[[{"header":{"parameterUnit":"m.s-1","parameterCategory":1,"la1":30.6,"la2":29.2853,"lo1":-89.7004,"lo2":-87.6739,"dy":0.0162,"dx":0.0183,"nx":112,"ny":82,"refTime":"2023-07-19T06:00:00:Z","depth":0,"parameterNumber":2,"parameterNumberName":"U-component_of_WINDS"},"data":[0.0,0.0,0.0,0.0,0.0,0.0,0.0,0.0,0.0,0.0,0.0,0.0,0.0,0.0,0.0,0.0,0.0,0.0,0.0,0.0,0.0,0.0,0.0,0.0,0.0,0.0,0.0,0.0,0.0,0.0,0.0,0.0,0.0,0.0,0.0,0.0,0.0,0.0,0.0,0.0,0.0,0.0,0.0,0.0,0.0,0.0,0.0,0.0,0.0,0.0,0.0,0.0,0.0,0.0,0.0,0.0,0.0,0.0,0.0,0.0,0.0,0.0,0.0,0.0,0.0,0.0,0.0,0.0,0.0,0.0,0.0,0.0,0.0,0.0,0.0,0.0,0.0,0.0,0.0,0.0,0.0,0.0,0.0,0.0,0.0,0.0,0.0,0.0,0.0,0.0,-3.347,-3.704,-3.9981,-4.2039,-4.2909,-4.1497,-3.9556,-3.7123,0.0,0.0,0.0,0.0,0.0,0.0,0.0,0.0,0.0,0.0,0.0,0.0,0.0,0.0,0.0,0.0,0.0,0.0,0.0,0.0,0.0,0.0,0.0,0.0,0.0,0.0,0.0,0.0,0.0,0.0,0.0,0.0,0.0,0.0,0.0,0.0,0.0,0.0,0.0,0.0,0.0,0.0,0.0,0.0,0.0,0.0,0.0,0.0,0.0,0.0,0.0,0.0,0.0,0.0,0.0,0.0,0.0,0.0,0.0,0.0,0.0,0.0,0.0,0.0,0.0,0.0,0.0,0.0,0.0,0.0,0.0,0.0,0.0,0.0,0.0,0.0,0.0,0.0,0.0,0.0,0.0,0.0,0.0,0.0,0.0,0.0,0.0,0.0,0.0,0.0,0.0,0.0,0.0,0.0,0.0,0.0,0.0,0.0,0.0,0.0,0.0,0.0,0.0,0.0,-3.3844,-3.8393,-4.0528,-4.2218,-4.3689,-4.2333,-4.0346,-3.7888,0.0,0.0,0.0,0.0,0.0,0.0,0.0,0.0,0.0,0.0,0.0,0.0,0.0,0.0,0.0,0.0,0.0,0.0,0.0,0.0,0.0,0.0,0.0,0.0,0.0,0.0,0.0,0.0,0.0,0.0,0.0,0.0,0.0,0.0,0.0,0.0,0.0,0.0,0.0,0.0,0.0,0.0,0.0,0.0,0.0,0.0,0.0,0.0,0.0,0.0,0.0,0.0,0.0,0.0,0.0,0.0,0.0,0.0,0.0,0.0,0.0,0.0,0.0,0.0,0.0,0.0,0.0,0.0,0.0,0.0,0.0,0.0,0.0,0.0,0.0,0.0,0.0,0.0,0.0,0.0,0.0,0.0,0.0,0.0,0.0,0.0,0.0,0.0,0.0,0.0,0.0,0.0,0.0,0.0,0.0,0.0,0.0,0.0,0.0,0.0,0.0,0.0,0.0,-3.3837,-3.5981,-3.9472,-4.0913,-4.224,-4.3856,-4.2519,-4.0346,-3.7429,-3.3478,0.0,0.0,0.0,0.0,0.0,0.0,0.0,0.0,0.0,0.0,0.0,0.0,0.0,0.0,0.0,0.0,0.0,0.0,0.0,0.0,0.0,0.0,0.0,0.0,0.0,0.0,0.0,0.0,0.0,0.0,0.0,0.0,0.0,0.0,0.0,0.0,0.0,0.0,0.0,0.0,0.0,0.0,0.0,0.0,0.0,0.0,0.0,0.0,0.0,0.0,0.0,0.0,0.0,0.0,0.0,0.0,0.0,0.0,0.0,0.0,0.0,0.0,0.0,0.0,0.0,0.0,0.0,0.0,0.0,0.0,0.0,0.0,0.0,0.0,0.0,0.0,0.0,0.0,0.0,0.0,0.0,0.0,0.0,0.0,0.0,0.0,0.0,0.0,0.0,0.0,0.0,0.0,0.0,0.0,0.0,0.0,0.0,0.0,0.0,0.0,0.0,0.0,-3.538,-3.7604,-3.983,-4.0966,-4.2077,-4.3336,-4.2314,-4.0123,-3.6643,-3.3522,0.0,0.0,0.0,0.0,0.0,0.0,0.0,0.0,0.0,0.0,0.0,0.0,0.0,0.0,0.0,0.0,0.0,0.0,0.0,0.0,0.0,0.0,0.0,0.0,0.0,0.0,0.0,0.0,0.0,0.0,0.0,0.0,0.0,0.0,0.0,0.0,0.0,0.0,0.0,0.0,0.0,0.0,0.0,0.0,0.0,0.0,0.0,0.0,0.0,0.0,0.0,0.0,0.0,0.0,0.0,0.0,0.0,0.0,0.0,0.0,0.0,0.0,0.0,0.0,0.0,0.0,0.0,0.0,0.0,0.0,0.0,0.0,0.0,0.0,0.0,0.0,0.0,0.0,0.0,0.0,0.0,0.0,0.0,0.0,0.0,0.0,0.0,0.0,0.0,0.0,0.0,0.0,0.0,0.0,0.0,0.0,0.0,0.0,0.0,0.0,0.0,0.0,-3.5621,-3.7248,-3.8933,-4.0544,-4.1575,-4.1757,-4.1664,-3.9881,-3.5844,-3.3206,0.0,0.0,0.0,0.0,0.0,0.0,0.0,0.0,0.0,0.0,0.0,0.0,0.0,0.0,0.0,0.0,0.0,0.0,0.0,0.0,0.0,0.0,0.0,0.0,0.0,0.0,0.0,0.0,0.0,0.0,0.0,0.0,0.0,0.0,0.0,0.0,0.0,0.0,0.0,0.0,0.0,0.0,0.0,0.0,0.0,0.0,0.0,0.0,0.0,0.0,0.0,0.0,0.0,0.0,0.0,0.0,0.0,0.0,0.0,0.0,0.0,0.0,0.0,0.0,0.0,0.0,0.0,0.0,0.0,0.0,0.0,0.0,0.0,0.0,0.0,0.0,0.0,0.0,0.0,0.0,0.0,0.0,0.0,0.0,0.0,0.0,0.0,0.0,0.0,0.0,0.0,0.0,0.0,0.0,0.0,0.0,0.0,0.0,0.0,0.0,0.0,0.0,-3.5935,-3.7419,0.0,-4.0307,-4.0945,-4.1553,-4.0643,-3.8729,-3.5696,0.0,0.0,0.0,0.0,0.0,0.0,0.0,0.0,0.0,0.0,0.0,0.0,0.0,0.0,0.0,0.0,0.0,0.0,0.0,0.0,0.0,0.0,0.0,0.0,0.0,0.0,0.0,0.0,0.0,0.0,0.0,0.0,0.0,0.0,0.0,0.0,0.0,0.0,0.0,0.0,0.0,0.0,0.0,0.0,0.0,0.0,0.0,0.0,0.0,0.0,0.0,0.0,0.0,0.0,0.0,0.0,0.0,0.0,0.0,0.0,0.0,0.0,0.0,0.0,0.0,0.0,0.0,0.0,0.0,0.0,0.0,0.0,0.0,0.0,0.0,0.0,0.0,0.0,0.0,0.0,0.0,0.0,0.0,0.0,0.0,0.0,0.0,0.0,0.0,0.0,0.0,0.0,0.0,0.0,0.0,0.0,0.0,0.0,0.0,0.0,0.0,0.0,-3.5441,-3.6234,-3.7396,0.0,-4.0004,-4.0326,-4.0748,-3.9997,-3.8358,-3.5677,0.0,0.0,0.0,0.0,0.0,0.0,0.0,0.0,0.0,0.0,0.0,0.0,0.0,0.0,0.0,0.0,0.0,0.0,0.0,0.0,0.0,0.0,0.0,0.0,0.0,0.0,0.0,0.0,0.0,0.0,0.0,0.0,0.0,0.0,0.0,0.0,0.0,0.0,0.0,0.0,0.0,0.0,0.0,0.0,0.0,0.0,0.0,0.0,0.0,0.0,0.0,0.0,0.0,0.0,0.0,0.0,0.0,0.0,0.0,0.0,0.0,0.0,0.0,0.0,0.0,0.0,0.0,0.0,0.0,0.0,0.0,0.0,0.0,0.0,0.0,0.0,0.0,0.0,0.0,0.0,0.0,0.0,0.0,0.0,0.0,0.0,0.0,0.0,0.0,0.0,0.0,0.0,0.0,0.0,0.0,0.0,0.0,0.0,0.0,0.0,0.0,0.0,-3.6186,-3.655,-3.7091,-3.8641,-3.9567,-3.9789,-3.9067,-3.9839,-3.8985,0.0,0.0,0.0,0.0,0.0,0.0,0.0,0.0,0.0,0.0,0.0,0.0,0.0,0.0,0.0,0.0,0.0,0.0,0.0,0.0,0.0,0.0,0.0,0.0,0.0,0.0,0.0,0.0,0.0,0.0,0.0,0.0,0.0,0.0,0.0,0.0,0.0,0.0,0.0,0.0,0.0,0.0,0.0,0.0,0.0,0.0,0.0,0.0,0.0,0.0,0.0,0.0,0.0,0.0,0.0,0.0,0.0,0.0,0.0,0.0,0.0,0.0,0.0,0.0,0.0,0.0,0.0,0.0,0.0,0.0,0.0,0.0,0.0,0.0,0.0,0.0,0.0,0.0,0.0,0.0,0.0,0.0,0.0,0.0,0.0,0.0,0.0,0.0,0.0,0.0,0.0,0.0,0.0,0.0,0.0,0.0,0.0,0.0,0.0,0.0,0.0,0.0,0.0,-3.5371,-3.6167,-3.7091,-3.8641,-3.9069,-3.918,-3.9011,-3.8781,-3.7726,-3.564,0.0,0.0,0.0,0.0,0.0,0.0,0.0,0.0,0.0,0.0,0.0,0.0,0.0,0.0,0.0,0.0,0.0,0.0,0.0,0.0,0.0,0.0,0.0,0.0,0.0,0.0,0.0,0.0,0.0,0.0,0.0,0.0,0.0,0.0,0.0,0.0,0.0,0.0,0.0,0.0,0.0,0.0,0.0,0.0,0.0,0.0,0.0,0.0,0.0,0.0,0.0,0.0,0.0,0.0,0.0,0.0,0.0,0.0,0.0,0.0,0.0,0.0,0.0,0.0,0.0,0.0,0.0,0.0,0.0,0.0,0.0,0.0,0.0,0.0,0.0,0.0,0.0,0.0,0.0,0.0,0.0,0.0,0.0,0.0,0.0,0.0,0.0,0.0,0.0,0.0,0.0,0.0,0.0,0.0,0.0,0.0,0.0,0.0,0.0,0.0,0.0,0.0,-3.5006,-3.6001,-3.7077,-3.8596,-3.8851,-3.8925,-3.8968,-3.86,-3.7819,-3.6551,0.0,0.0,0.0,0.0,0.0,0.0,0.0,0.0,0.0,0.0,0.0,0.0,0.0,0.0,0.0,0.0,0.0,0.0,0.0,0.0,0.0,0.0,0.0,0.0,0.0,0.0,0.0,0.0,0.0,0.0,0.0,0.0,0.0,0.0,0.0,0.0,0.0,0.0,0.0,0.0,0.0,0.0,0.0,0.0,0.0,0.0,0.0,0.0,0.0,0.0,0.0,0.0,0.0,0.0,0.0,0.0,0.0,0.0,0.0,0.0,0.0,0.0,0.0,0.0,0.0,0.0,0.0,0.0,0.0,0.0,0.0,0.0,0.0,0.0,0.0,0.0,0.0,0.0,0.0,0.0,0.0,0.0,0.0,0.0,0.0,0.0,0.0,0.0,0.0,0.0,0.0,0.0,0.0,0.0,0.0,0.0,0.0,0.0,0.0,0.0,0.0,0.0,-3.4927,-3.5964,-3.7067,-3.8539,-3.8807,-3.891,-3.891,-3.9017,-3.8767,-3.7949,0.0,0.0,0.0,0.0,0.0,0.0,0.0,0.0,0.0,0.0,0.0,0.0,0.0,0.0,0.0,0.0,0.0,0.0,0.0,0.0,0.0,0.0,0.0,0.0,0.0,0.0,0.0,0.0,0.0,0.0,0.0,0.0,0.0,0.0,0.0,0.0,0.0,0.0,0.0,0.0,0.0,0.0,0.0,0.0,0.0,0.0,0.0,0.0,0.0,0.0,0.0,0.0,0.0,0.0,0.0,0.0,0.0,0.0,0.0,0.0,-3.3731,0.0,0.0,0.0,0.0,0.0,0.0,0.0,0.0,0.0,0.0,0.0,0.0,0.0,0.0,0.0,0.0,0.0,0.0,0.0,0.0,0.0,0.0,0.0,0.0,0.0,0.0,0.0,0.0,0.0,0.0,0.0,0.0,0.0,0.0,0.0,0.0,0.0,0.0,0.0,0.0,0.0,-3.4235,-3.5639,-3.7067,-3.8539,-3.8807,-3.891,-3.891,-3.9017,-3.8767,-3.7949,-3.6978,0.0,0.0,0.0,0.0,0.0,0.0,0.0,0.0,0.0,0.0,0.0,0.0,0.0,0.0,0.0,0.0,0.0,0.0,0.0,0.0,0.0,0.0,0.0,0.0,0.0,0.0,0.0,0.0,0.0,0.0,0.0,0.0,0.0,0.0,0.0,0.0,0.0,0.0,0.0,0.0,0.0,0.0,0.0,0.0,0.0,0.0,0.0,0.0,0.0,0.0,0.0,0.0,0.0,0.0,0.0,0.0,0.0,0.0,0.0,0.0,-3.5106,0.0,0.0,0.0,0.0,0.0,0.0,0.0,0.0,0.0,0.0,0.0,0.0,0.0,0.0,0.0,0.0,0.0,0.0,0.0,0.0,0.0,0.0,0.0,0.0,0.0,0.0,0.0,0.0,0.0,0.0,0.0,0.0,0.0,0.0,0.0,0.0,0.0,0.0,0.0,0.0,-3.4587,-3.5821,-3.7137,-3.8645,-3.8896,-3.8954,-3.8954,-3.9031,-3.8915,-3.8488,-3.7686,0.0,0.0,0.0,0.0,0.0,0.0,0.0,0.0,0.0,0.0,0.0,0.0,0.0,0.0,0.0,0.0,0.0,0.0,0.0,0.0,0.0,0.0,0.0,0.0,0.0,0.0,0.0,0.0,0.0,0.0,0.0,0.0,0.0,0.0,0.0,0.0,0.0,0.0,0.0,0.0,0.0,0.0,0.0,0.0,0.0,0.0,0.0,0.0,0.0,0.0,0.0,0.0,0.0,-3.9288,-3.9291,-3.9295,-3.9241,-3.9228,-3.9208,-3.9039,-3.7899,-3.614,0.0,0.0,0.0,0.0,0.0,0.0,0.0,0.0,0.0,0.0,0.0,0.0,0.0,0.0,0.0,0.0,0.0,0.0,0.0,0.0,0.0,0.0,0.0,0.0,0.0,-3.5473,-3.4965,0.0,0.0,0.0,0.0,0.0,0.0,0.0,0.0,0.0,0.0,0.0,0.0,-3.5212,-3.6276,-3.7355,-3.8744,-3.895,-3.8993,-3.8993,-3.9059,-3.9101,-3.9101,-3.8419,-3.7924,0.0,0.0,0.0,0.0,0.0,0.0,0.0,0.0,0.0,0.0,0.0,0.0,0.0,0.0,0.0,0.0,0.0,0.0,0.0,0.0,0.0,0.0,0.0,0.0,0.0,0.0,0.0,0.0,0.0,0.0,0.0,0.0,-3.3556,-3.3044,0.0,0.0,0.0,0.0,0.0,0.0,0.0,0.0,0.0,0.0,0.0,0.0,0.0,0.0,-4.0493,-4.1357,-4.2167,-4.2906,-4.2862,-4.2857,-4.2918,-4.2914,-4.2894,-4.2851,-4.2032,0.0,-3.7957,-3.797,0.0,0.0,0.0,0.0,0.0,0.0,0.0,0.0,0.0,0.0,0.0,0.0,0.0,0.0,0.0,0.0,0.0,0.0,0.0,0.0,0.0,0.0,-3.5293,-3.6981,-3.7215,-3.7001,0.0,-3.6572,-3.6464,-3.6389,0.0,0.0,0.0,0.0,0.0,0.0,0.0,0.0,-3.5305,-3.6758,-3.7965,-3.8799,-3.895,-3.8993,-3.8993,-3.9059,-3.9101,-3.9101,-3.8994,-3.8554,-3.7728,-3.6048,0.0,0.0,0.0,0.0,0.0,0.0,0.0,0.0,0.0,0.0,0.0,0.0,0.0,0.0,0.0,0.0,0.0,0.0,0.0,0.0,0.0,0.0,0.0,0.0,0.0,0.0,0.0,0.0,0.0,-3.3683,-3.4943,-3.5123,-3.5112,-3.4933,0.0,0.0,0.0,0.0,0.0,0.0,0.0,0.0,0.0,-3.9407,-4.0154,-4.1144,-4.2445,-4.285,-4.3214,-4.3603,-4.3575,-4.3575,-4.3603,-4.3603,-4.3603,-4.3583,-4.3166,-4.2032,-4.0412,-3.9437,-3.8297,-3.7109,0.0,0.0,0.0,0.0,0.0,-3.3189,-3.2735,0.0,0.0,0.0,0.0,0.0,0.0,0.0,0.0,0.0,0.0,0.0,0.0,0.0,0.0,-3.8153,-3.8299,-3.8277,-3.8626,-3.8607,-3.8197,0.0,-3.6452,-3.5706,-3.48,0.0,0.0,0.0,0.0,-3.4521,-3.6044,-3.7169,-3.8141,-3.8929,-3.905,-3.9064,-3.9064,-3.9073,-3.9101,-3.9101,-3.9059,-3.8826,-3.8393,-3.7239,-3.591,0.0,0.0,0.0,0.0,0.0,0.0,0.0,0.0,0.0,0.0,0.0,0.0,0.0,0.0,0.0,0.0,0.0,0.0,0.0,0.0,0.0,0.0,0.0,0.0,0.0,0.0,0.0,0.0,-3.475,-3.6144,-3.7025,-3.6684,-3.6366,0.0,0.0,0.0,0.0,0.0,0.0,-3.913,-3.9647,-4.0486,-4.174,-4.1954,-4.2668,-4.3913,-4.4152,-4.4273,-4.4277,-4.4277,-4.4277,-4.4265,-4.4265,-4.4265,-4.4246,-4.4024,-4.3408,-4.243,-4.0903,-3.9617,-3.8559,-3.7913,-3.7524,-3.7184,-3.5885,-3.5386,-3.5278,-3.4635,-3.4833,-3.5472,-3.6129,0.0,-3.6323,-3.6273,0.0,0.0,0.0,0.0,-3.6122,-3.6337,0.0,-3.8333,-3.9151,-3.927,-3.9328,-3.9792,-3.9781,-3.923,0.0,-3.7417,-3.6893,-3.5693,0.0,0.0,0.0,0.0,-3.5569,-3.6932,-3.7748,-3.8432,-3.9045,-3.9101,-3.9101,-3.9101,-3.9101,-3.9101,-3.9101,-3.9045,-3.8993,-3.8921,-3.7889,-3.6697,-3.5394,0.0,0.0,0.0,0.0,0.0,0.0,0.0,0.0,0.0,0.0,0.0,0.0,0.0,0.0,0.0,0.0,0.0,0.0,0.0,0.0,0.0,0.0,0.0,0.0,0.0,0.0,0.0,0.0,0.0,-3.7925,-3.8114,0.0,0.0,0.0,0.0,-3.8363,-3.9946,-4.0927,-4.097,-4.2538,-4.3486,-4.3569,-4.4307,-4.4741,-4.4826,-4.5663,-4.6072,-4.6068,-4.6068,-4.6061,-4.6079,-4.6079,-4.6079,-4.602,-4.5184,-4.4343,-4.3443,-4.2466,-4.1068,-3.9529,-3.9485,-3.8955,-3.8211,-3.8133,-3.8053,-3.7999,-3.7961,-3.7961,-3.8019,-3.8057,-3.8077,-3.8077,-3.8077,-3.8019,0.0,0.0,-3.7913,-3.8064,-3.8888,-3.9061,-3.9237,-4.0111,-4.0267,-4.0213,-4.0186,-3.9975,-3.9663,0.0,-3.857,-3.8003,-3.7845,0.0,-3.5831,-3.6608,-3.6696,-3.7,-3.7832,-3.8584,-3.9064,-3.9101,-3.9101,-3.9101,-3.9101,-3.9101,-3.9101,-3.9101,-3.9101,-3.9059,-3.8993,-3.7419,-3.6482,-3.6329,-3.3853,0.0,0.0,0.0,0.0,0.0,0.0,0.0,0.0,0.0,0.0,0.0,0.0,0.0,0.0,0.0,0.0,0.0,0.0,0.0,0.0,0.0,0.0,0.0,0.0,0.0,0.0,0.0,0.0,-3.8954,-3.9069,0.0,-3.9146,-3.9696,-4.0104,-4.0167,-4.178,-4.276,-4.2772,-4.3359,-4.3956,-4.4524,-4.4801,-4.4936,-4.49,-4.5212,-4.5089,-4.4529,-4.5094,-4.5059,-4.4559,-4.5105,-4.5066,-4.4517,-4.4201,-4.3576,-4.2747,-4.2399,-4.1533,-4.0446,-4.0436,-4.0246,-3.9901,-3.9287,-3.9052,-3.8957,-3.8398,-3.8566,-3.9127,-3.9688,-3.9115,-3.8304,-3.882,-3.8575,-3.8138,-3.8144,-3.8511,-3.8973,-3.9287,-3.9699,-4.0135,-4.0391,-4.0447,-4.0379,-4.0234,-4.0089,-3.9911,-3.9623,-3.9221,-3.8769,-3.8221,-3.7617,-3.7138,-3.6932,-3.7293,-3.7657,-3.7896,-3.8613,-3.9101,-3.9101,-3.9101,-3.9101,-3.9101,-3.9101,-3.8878,-3.8358,-3.8321,-3.8057,-3.7475,-3.6846,-3.621,-3.5644,-3.4092,-3.2592,0.0,0.0,0.0,0.0,0.0,0.0,0.0,0.0,0.0,0.0,0.0,0.0,0.0,0.0,0.0,0.0,0.0,0.0,0.0,0.0,0.0,0.0,0.0,0.0,0.0,0.0,-4.0069,-4.0744,-4.0851,-4.0908,-4.0945,-4.1505,-4.1903,-4.1947,-4.332,-4.4142,-4.4138,-4.4414,-4.4839,-4.5426,-4.5436,-4.5263,-4.4905,-4.4902,-4.4465,-4.3611,-4.4484,-4.4442,-4.362,-4.4501,-4.4423,-4.3601,-4.3601,-4.3112,-4.2299,-4.2299,-4.1749,-4.0907,-4.0908,-4.0893,-4.0819,-4.0176,-3.994,-3.9865,-3.9274,-3.9262,-3.9636,-4.0526,-3.9811,-3.8787,-3.9618,-3.947,-3.9007,-3.9007,-3.9406,-3.9837,-3.9837,-4.0214,-4.0603,-4.0539,-4.0527,-4.0491,-4.0307,-4.0187,-4.0019,-3.9815,-3.9601,-3.9264,-3.8702,-3.8532,-3.8294,-3.7766,-3.8074,-3.8356,-3.8316,-3.8767,-3.9101,-3.9101,-3.9101,-3.9101,-3.9101,-3.9101,-3.8767,-3.7949,-3.7894,-3.7514,-3.6636,-3.6273,-3.5675,-3.4788,-3.3231,-3.1982,-3.1088,0.0,0.0,0.0,0.0,0.0,0.0,0.0,0.0,0.0,0.0,0.0,0.0,0.0,0.0,0.0,0.0,0.0,0.0,0.0,0.0,0.0,0.0,0.0,-4.0369,-4.066,-4.1441,-4.3185,-4.34,-4.3447,-4.3599,-4.3619,-4.3646,-4.3643,-4.4504,-4.5033,-4.5042,-4.5838,-4.6307,-4.6294,-4.6306,-4.5841,-4.4919,-4.4908,-4.4471,-4.361,-4.4472,-4.4446,-4.362,-4.4465,-4.4384,-4.3562,-4.3523,-4.3054,-4.2299,-4.226,-4.1749,-4.0946,-4.0907,-4.0888,-4.0883,-4.0818,-4.0804,-4.0794,-4.0803,-4.0236,-3.9636,-4.0526,-4.0216,-3.9655,-4.0545,-4.0797,-4.0797,-4.0797,-4.0746,-4.07,-4.07,-4.0654,-4.06,-4.0603,-4.0607,-4.055,-4.0432,-4.0243,-4.007,-3.9914,-3.9701,-3.9477,-3.9412,-3.9301,-3.9197,-3.9197,-3.9142,0.0,-3.9101,-3.9101,-3.9101,-3.9101,-3.9101,-3.9101,-3.9101,-3.9101,-3.8748,-3.7912,-3.7856,-3.7458,-3.6557,-3.5713,-3.4826,-3.3865,-3.1297,-3.0269,-3.0892,0.0,0.0,0.0,0.0,0.0,0.0,0.0,0.0,0.0,0.0,0.0,0.0,0.0,0.0,0.0,0.0,0.0,0.0,0.0,0.0,0.0,0.0,-4.0207,-4.0523,-4.1731,-4.2795,-4.3346,-4.343,-4.3506,-4.3599,-4.4132,-4.4491,-4.4543,-4.5367,-4.5898,-4.594,-4.6168,-4.6308,-4.6305,-4.6301,-4.5862,-4.4985,-4.4963,-4.4545,-4.3687,-4.4501,-4.4437,-4.3607,-4.3841,-4.3481,-4.2627,-4.2042,-4.1974,-4.2245,-4.1622,-4.154,-4.177,-4.115,-4.0903,-4.0888,-4.0823,-4.0792,-4.0803,-4.0797,-4.0236,-3.9636,-4.0526,-4.0216,-3.9655,-4.0545,-4.0797,-4.0797,-4.0797,-4.079,-4.0778,-4.0778,-4.0713,-4.0654,-4.06,-4.0549,-4.0492,-4.036,-4.0262,-4.0099,-3.987,-3.9735,-3.9618,-3.9552,-3.9438,-3.9346,-3.9346,-3.9202,0.0,-3.9101,-3.9101,-3.9101,-3.9101,-3.9101,-3.9101,-3.9101,-3.9101,-3.8507,-3.7113,-3.7021,-3.6363,-3.4852,-3.4498,-3.3884,-3.2892,-3.2114,-3.147,0.0,0.0,0.0,0.0,0.0,0.0,0.0,0.0,0.0,0.0,0.0,0.0,0.0,0.0,0.0,0.0,0.0,0.0,0.0,0.0,0.0,0.0,-4.0362,-4.1732,-4.2179,-4.3182,-4.4052,-4.443,-4.4514,-4.4574,-4.4636,-4.5077,-4.536,-4.543,-4.5903,-4.6223,-4.6291,-4.6301,-4.6308,-4.6307,-4.6304,-4.5887,-4.5018,-4.4992,-4.4553,-4.37,-4.4514,-4.447,-4.3643,-4.3986,-4.3665,0.0,-4.2357,-4.2406,-4.282,-4.2295,-4.2159,0.0,0.0,0.0,0.0,0.0,-4.0798,-4.079,-4.0797,-4.0236,-3.9636,-4.0526,-4.0216,-3.9655,-4.0545,-4.0797,-4.0797,-4.0797,-4.0797,-4.0797,-4.0797,-4.0746,-4.0687,-4.0619,-4.0542,-4.0457,-4.0288,-4.0234,-4.0118,-3.9848,0.0,0.0,-3.9614,-3.952,-3.9431,-3.9405,-3.9242,-3.9129,0.0,-3.9101,-3.9101,-3.9101,-3.9101,-3.9101,-3.9101,-3.9101,0.0,0.0,0.0,-3.5905,-3.4135,-3.3615,0.0,0.0,0.0,-3.1765,0.0,0.0,0.0,0.0,-2.8924,-2.8336,0.0,0.0,0.0,0.0,0.0,0.0,0.0,0.0,0.0,0.0,0.0,0.0,0.0,0.0,0.0,0.0,-4.2071,-4.3559,-4.4504,-4.475,-4.5116,-4.5908,-4.6,-4.6026,-4.6081,-4.6104,-4.6134,-4.6199,-4.6192,-4.6225,-4.6291,0.0,0.0,0.0,0.0,-4.5929,-4.5142,-4.5148,-4.4766,-4.4003,-4.4716,-4.4673,-4.4007,-4.4638,-4.4496,-4.3733,-4.3634,-4.3656,-4.3739,-4.3642,-4.3082,-4.2202,-4.1345,-4.0969,-4.0898,-4.0828,-4.0809,0.0,0.0,0.0,0.0,-4.0545,-4.0274,-3.9791,-4.0565,-4.0797,-4.0797,-4.079,-4.079,-4.079,-4.0784,-4.0739,-4.0673,-4.0603,-4.0531,-4.0441,-4.0252,-4.0187,-4.0108,-3.9859,-3.9747,-3.9684,-3.9614,-3.9546,-3.9482,-3.9418,-3.9301,0.0,-3.9129,-3.9101,-3.9101,-3.9101,0.0,0.0,-3.9101,-3.9101,-3.8767,-3.7949,-3.7058,-3.5786,-3.4085,-3.3136,-3.2645,-3.2645,-3.1884,-3.176,-3.2353,-3.2148,-3.2248,-3.2587,-3.068,-2.9678,0.0,0.0,0.0,0.0,0.0,0.0,0.0,0.0,0.0,0.0,0.0,0.0,0.0,0.0,0.0,-4.2001,-4.3298,-4.4405,-4.5345,-4.558,-4.5725,-4.5898,-4.5966,-4.6035,-4.6084,-4.6093,-4.6123,-4.6196,-4.6209,-4.6234,-4.6293,-4.6302,0.0,-4.6308,-4.6307,-4.6226,-4.6047,-4.6058,-4.5953,-4.5791,0.0,0.0,-4.5774,-4.5226,-4.487,-4.4604,-4.3908,-4.3997,-4.4595,-4.3897,-4.3081,-4.2206,-4.1334,-4.0956,-4.0893,-4.0883,-4.0846,-4.0794,-4.0788,-4.0699,-4.0584,-4.0758,-4.07,-4.0584,-4.0758,-4.0797,0.0,-4.0739,-4.0726,-4.0707,-4.0661,-4.0628,-4.06,-4.0546,-4.0473,-4.0381,-4.0243,-4.0148,-4.0067,-3.9911,-3.977,-3.9696,-3.9693,-3.9583,-3.9495,-3.9482,-3.9328,-3.9197,-3.9183,-3.9129,-3.9101,-3.9101,-3.9101,-3.9101,-3.9101,-3.9101,-3.8767,-3.7949,-3.6427,-3.509,-3.4035,-3.3708,-3.3555,-3.3555,-3.3328,-3.3259,-3.3326,-3.3077,-3.2909,-3.2818,-3.1986,-3.1425,0.0,0.0,0.0,0.0,0.0,0.0,0.0,0.0,0.0,0.0,0.0,-3.7377,0.0,0.0,-4.1867,-4.3798,-4.4948,-4.5781,-4.629,-4.6448,-4.6351,-4.5958,-4.5968,-4.6175,-4.6659,-4.6735,-4.6777,-4.6843,-4.684,-4.6692,-4.6317,-4.6305,-4.6308,-4.6308,-4.6307,-4.6304,-4.6301,-4.6293,-4.6305,-4.63,-4.63,-4.6298,-4.6292,-4.5859,-4.5638,-4.5575,-4.5092,-4.5145,-4.5454,-4.4133,-4.3332,-4.2817,-4.1513,-4.0971,-4.0946,-4.0913,-4.0877,-4.0859,-4.0806,-4.0808,-4.0796,-4.0797,-4.0797,-4.0797,-4.0797,-4.0797,-4.079,-4.0752,-4.0733,-4.0694,-4.0661,-4.0626,-4.0583,-4.0531,-4.0476,-4.0402,-4.0233,-4.0168,-4.0109,-3.9975,-3.9878,-3.9656,-3.9233,-3.9041,-3.9076,-3.9433,-3.9412,-3.9341,-3.9301,-3.9215,-3.9156,-3.9156,-3.9129,-3.9101,-3.9101,-3.8702,-3.7927,-3.674,-3.5774,-3.4863,-3.3983,-3.3842,-3.3807,-3.3807,-3.3766,-3.3698,-3.3605,-3.343,-3.3208,-3.2932,-3.2539,-3.2109,0.0,0.0,0.0,0.0,0.0,0.0,0.0,-3.6579,-3.6772,-3.6822,-3.7651,-3.8727,-3.9924,-4.1431,-4.3151,-4.5251,-4.632,-4.6906,-4.6995,-4.7063,-4.68,-4.5983,-4.6086,-4.6527,-4.725,-4.7514,-4.7685,-4.7746,-4.7591,-4.7225,-4.6593,-4.6384,-4.6308,-4.6308,-4.6306,-4.6302,-4.6301,-4.6291,-4.6302,-4.63,-4.63,-4.63,-4.63,-4.6292,-4.6308,-4.6308,-4.6236,-4.6111,-4.5835,-4.4242,-4.352,-4.3217,-4.1636,-4.1011,-4.0995,-4.0945,-4.0917,-4.0883,-4.0834,-4.0806,-4.0794,-4.079,-4.0681,-4.0545,-4.0545,-4.0429,-4.0326,-4.0475,-4.0488,-4.0481,-4.0641,-4.0631,-4.0573,-4.0516,-4.0495,-4.0449,-4.028,-4.0224,-4.0187,-4.0089,-3.9863,-3.9467,-3.8761,-3.8387,-3.8376,-3.8977,-3.9021,-3.8983,-3.8945,-3.896,-3.8968,-3.8973,-3.9063,-3.904,-3.8878,-3.8094,-3.696,-3.5508,-3.5285,-3.4837,-3.3957,-3.3842,-3.3807,-3.3807,-3.3793,-3.3726,-3.3605,-3.3534,-3.3345,-3.306,-3.2802,-3.2387,-3.3543,-3.4276,-3.5204,-3.6094,-3.6504,-3.6639,0.0,-3.7045,-3.7655,-3.7669,-3.8516,-3.9751,-4.143,-4.21,-4.3263,-4.587,-4.6578,-4.6855,-4.6987,-4.7063,-4.6774,-4.591,-4.6552,-4.715,-4.7373,-4.8106,-4.8588,-4.8655,-4.7934,-4.7485,-4.7453,-4.6717,-4.6308,-4.6308,-4.6307,-4.6305,-4.6301,-4.6295,-4.6308,-4.63,-4.63,-4.63,-4.63,-4.63,-4.6298,-4.6298,-4.6288,-4.5826,-4.4975,-4.4008,-4.3181,-4.2434,-4.1464,-4.1055,-4.0999,-4.0999,-4.0945,-4.0898,-4.0888,-4.084,-4.0794,-4.0794,-4.0273,-3.9655,-3.9655,-3.9088,-3.8632,-3.9361,-3.9541,-3.9715,-4.0424,-4.0615,-4.0585,-4.0507,-4.051,-4.0485,-4.0407,-4.0325,-4.027,-4.028,-3.9548,-3.8888,-3.8783,-3.8016,-3.7432,-3.7454,-3.7357,-3.7273,-3.7261,-3.7816,-3.8201,-3.8149,-3.8769,-3.8891,-3.8111,-3.7299,-3.6445,-3.5553,-3.5351,-3.4903,-3.4022,-3.3855,-3.3807,-3.3807,-3.3739,-3.3671,-3.3605,-3.3534,-3.3422,-3.3262,-3.3039,-3.2655,-3.4233,-3.557,-3.6837,-3.7246,-3.7691,-3.8007,-3.788,-3.8153,-3.845,-3.8493,-3.8892,-3.9789,-4.1653,-4.2159,-4.3341,0.0,-4.7341,-4.7549,-4.7677,-4.7761,-4.7279,-4.5908,-4.6581,-4.7191,-4.7331,-4.8165,-4.8736,-4.8782,-4.8933,-4.8603,-4.7648,-4.7245,-4.6816,-4.6328,-4.6308,-4.6306,-4.6305,-4.6297,-4.6291,-4.6308,-4.6303,-4.63,-4.63,-4.63,-4.63,-4.63,-4.6296,-4.58,-4.489,-4.4029,-4.3158,-4.2304,-4.1437,-4.1075,-4.1059,-4.1015,-4.0984,-4.0945,-4.0917,-4.0883,-4.0846,-4.0806,-4.0208,-3.9505,-3.9507,-3.8895,-3.827,-3.8606,-3.8704,-3.8775,-3.9076,-3.9485,-3.9841,-3.9808,-4.0157,-4.0495,-4.0466,-4.0441,-4.0243,-3.97,-3.9238,-3.8602,-3.7628,-3.7053,-3.6548,-3.5995,-3.6594,-3.711,-3.711,-3.7316,-3.7436,-3.7374,-3.766,-3.7504,-3.6639,-3.621,-3.5633,-3.4742,-3.4559,-3.4315,-3.3965,-3.3842,-3.378,-3.3739,-3.3236,-3.2949,-3.2839,-3.2356,-3.2023,-3.1903,-3.1776,-3.152,-3.5239,-3.6656,-3.7789,-3.8145,-3.8646,-3.9021,-3.8921,-3.8906,-3.8921,-3.8935,-3.9036,-3.9672,-4.1533,-4.2045,-4.3283,-4.6689,-4.745,-4.7674,-4.7825,-4.7904,-4.7386,-4.5881,-4.6329,-4.6769,-4.6874,-4.7977,-4.8702,-4.8778,-4.9159,-4.8853,-4.7645,-4.7361,-4.6953,-4.6328,-4.6308,-4.6307,-4.6307,-4.6301,-4.6296,-4.6293,-4.6306,-4.6303,-4.63,-4.63,-4.63,-4.628,-4.6046,-4.5457,-4.4571,-4.3691,-4.2822,-4.1983,-4.1351,-4.1109,-4.1094,-4.1059,-4.1015,-4.098,-4.093,-4.0922,-4.0849,-4.0569,-3.9882,-3.9116,-3.888,-3.8205,-3.756,-3.7787,-3.8007,-3.8234,-3.8402,-3.9063,-3.9644,-3.9638,-4.0073,-4.0508,-4.0523,-4.0342,-3.9977,-3.9319,-3.8753,-3.7992,-3.6765,-3.6258,-3.5803,-3.5132,-3.5911,-3.657,-3.6523,-3.6587,-3.6718,-3.6913,-3.6714,-3.6304,-3.567,-3.5349,-3.4878,-3.4198,-3.4011,-3.3921,-3.3921,-3.3834,-3.3643,-3.3369,-3.2788,-3.2319,-3.1992,-3.1405,-3.1079,-3.0975,-3.0939,-3.081,-3.6714,-3.7459,-3.7914,-3.885,-3.9124,-3.9142,-3.8935,-3.8935,-3.895,-3.8837,-3.8946,-3.9602,-4.1289,-4.1892,-4.2995,-4.571,-4.6442,-4.6713,-4.6914,-4.7,-4.6711,-4.5804,-4.5785,-4.5846,0.0,-4.7524,-4.8633,-4.8697,-4.8008,-4.7563,-4.7502,-4.6752,-4.6327,-4.6308,-4.6308,-4.6308,-4.6307,-4.6307,-4.6303,-4.6293,-4.6293,-4.6308,-4.63,-4.63,-4.63,-4.6241,-4.5402,-4.4543,-4.3665,-4.2797,-4.1933,-4.1148,-4.1106,-4.1095,-4.1092,-4.1094,-4.1059,-4.1002,-4.0999,-4.095,-4.0767,-3.9908,-3.9048,-3.8172,-3.7329,-3.6461,-3.5936,-3.6729,-3.7555,-3.8368,-3.9148,-3.997,-4.0535,-4.0473,-4.0477,-4.0523,-4.0573,-3.9926,-3.9355,-3.939,-3.802,-3.6824,-3.6712,-3.5936,-3.5281,-3.5113,-3.5075,-3.5003,-3.4793,-3.533,-3.6056,-3.6918,-3.6234,-3.5731,-3.5693,-3.485,-3.4311,-3.4293,-3.4111,-3.3998,-3.3998,-3.382,-3.3346,-3.2541,-3.2447,-3.2024,-3.1222,-3.1203,-3.1185,-3.1185,-3.1185,-3.1151,-3.7656,-3.8688,-3.9452,-3.9867,-4.0007,-3.9858,-3.9137,-3.8935,-3.8925,-3.8881,-3.8877,-3.9449,-4.1278,-4.1796,-4.2861,-4.5647,-4.634,-4.6595,-4.6801,-4.6903,-4.6611,-4.5734,-4.5698,0.0,0.0,0.0,0.0,-4.7772,-4.8105,-4.8064,-4.7522,-4.7292,-4.6891,-4.6327,-4.6308,-4.6308,-4.6308,-4.6307,-4.6306,-4.6304,-4.6301,-4.6299,-4.6296,-4.6296,-4.5982,-4.5429,-4.5137,-4.4177,-4.2806,-4.2529,-4.188,-4.1092,-4.1096,-4.1103,-4.1095,-4.1097,-4.1085,-4.1059,-4.1019,-4.0991,-4.0814,-3.9893,-3.9015,-3.8142,-3.7267,-3.6394,-3.5769,-3.6038,-3.6323,-3.6582,-3.6812,-3.7938,-3.8987,-3.8873,-3.9721,-4.0417,-3.9856,-3.9543,-3.9024,-3.7893,-3.7192,-3.6627,-3.6061,-3.5668,-3.5369,-3.513,-3.4964,-3.4839,-3.4708,-3.4867,-3.5075,-3.5375,-3.5158,-3.4948,-3.4903,-3.46,-3.4386,-3.4305,-3.4161,-3.4049,-3.3998,-3.3345,-3.281,-3.2437,-3.1409,-3.0695,-3.0337,-2.986,-2.9618,-2.9618,-2.9649,-2.9637,-3.8615,-3.9752,-4.0563,-4.0453,-4.0482,-4.0226,-3.9211,-3.8921,-3.8862,-3.8773,-3.8762,-3.9304,-4.108,-4.164,-4.2634,-4.5116,-4.5803,-4.6103,-4.6321,-4.6414,-4.6256,-4.5695,-4.5671,-4.5706,0.0,0.0,0.0,-4.6787,-4.7378,-4.7535,-4.7069,-4.7104,-4.6885,-4.6325,-4.6307,-4.6308,-4.6308,-4.6308,-4.6308,-4.6307,-4.6304,-4.6301,-4.6282,-4.5989,-4.5538,-4.4967,-4.4341,-4.3439,-4.2381,-4.2066,-4.1612,-4.1097,-4.1105,-4.1093,-4.11,-4.1106,-4.1094,-4.1085,-4.1027,-4.1007,-4.0796,-3.9563,-3.8782,-3.8074,-3.693,-3.6168,-3.5702,-3.5706,-3.5908,-3.6182,-3.6462,-3.7358,-3.8254,-3.8458,-3.912,-3.9558,-3.9031,-3.8697,-3.817,-3.7044,-3.6606,-3.6233,-3.5693,-3.5515,-3.5398,-3.5195,-3.5001,-3.4849,-3.4778,-3.4708,-3.4666,-3.4645,-3.4634,-3.4612,-3.4539,-3.4517,-3.4461,-3.434,-3.4209,-3.3969,-3.3592,-3.2954,-3.2287,-3.1597,-3.0612,-2.9929,-2.9538,-2.9113,-2.8905,-2.8905,-2.8975,-2.8987,-3.9639,-4.0683,-4.124,-4.0696,-4.0565,-4.0268,-3.9153,-3.891,-3.8818,-3.8556,-3.8593,-3.9169,-4.0816,0.0,-4.2301,-4.4202,-4.4905,-4.5258,-4.5476,-4.5622,-4.5698,0.0,0.0,0.0,0.0,0.0,0.0,-4.5893,0.0,-4.6059,-4.62,-4.6262,-4.6308,-4.6301,-4.6301,-4.6304,-4.6307,-4.6307,-4.6308,-4.6307,-4.6245,-4.6224,-4.6205,-4.5326,-4.4915,-4.4778,-4.3114,-4.2369,-4.2271,-4.1444,-4.1109,-4.1108,-4.1097,-4.1105,-4.1093,-4.11,-4.1106,-4.1085,-4.1027,-4.0976,-4.0657,-3.8944,-3.8335,-3.7928,-3.6308,-3.5771,-3.5693,-3.5707,-3.6248,-3.7033,-3.7854,-3.8099,-3.8337,-3.909,-3.8671,-3.8106,-3.8125,-3.7474,-3.6887,-3.6859,-3.6226,-3.5679,-3.5606,-3.5496,-3.5379,-3.5315,-3.5141,-3.5002,-3.4907,-3.4848,-3.4778,-3.4716,-3.4697,-3.4666,-3.4612,-3.4539,-3.4484,-3.4416,-3.4244,-3.374,-3.2847,-3.2599,-3.1726,-3.0137,-3.0058,-2.9673,-2.8917,-2.9033,-2.9089,-2.9119,-2.9167,-2.92,-4.1192,-4.202,-4.2171,-4.1493,-4.1318,-4.0903,-3.9326,-3.8851,-3.8701,-3.8541,-3.8451,-3.8946,-4.07,-4.1258,0.0,-4.4242,-4.4927,0.0,-4.555,-4.5654,0.0,-4.5708,-4.5708,-4.5708,-4.5708,-4.5715,0.0,0.0,-4.5927,-4.6047,-4.6123,-4.6187,-4.6255,-4.6306,-4.6297,-4.6302,-4.6303,-4.6306,-4.6307,-4.6289,-4.5644,-4.5331,-4.5292,-4.4433,-4.3671,-4.3044,-4.2594,-4.2024,-4.1411,-4.1194,-4.1094,-4.1108,-4.1097,-4.1092,-4.1107,-4.1106,-4.1092,-4.1084,-4.1015,-4.0568,-3.9859,-3.8769,-3.7955,-3.7204,-3.6138,-3.5794,-3.5757,-3.5718,-3.5857,-3.606,-3.6284,-3.6775,-3.7286,-3.7488,-3.7861,-3.7995,-3.7365,-3.7067,-3.6717,-3.6129,-3.5839,-3.5679,-3.5606,-3.5578,-3.5502,-3.5386,-3.53,-3.5153,-3.4936,-3.483,-3.4778,-3.4716,-3.4697,-3.4666,-3.4612,-3.4572,-3.4539,-3.4484,-3.3791,-3.3259,-3.2961,-3.161,-3.0662,-3.0186,-2.9587,-2.9184,-2.8964,-2.9055,-2.9141,-2.9167,-2.9189,-2.92,-4.1509,-4.2269,-4.2536,-4.1824,-4.1307,-4.0626,-3.9231,-3.8728,-3.8512,-3.8366,-3.851,-3.9113,-4.0536,-4.1311,-4.235,0.0,0.0,0.0,-4.5476,-4.561,-4.5673,-4.575,-4.5746,0.0,-4.5742,-4.5742,-4.5771,0.0,-4.5935,-4.6037,-4.6091,-4.6161,-4.6216,-4.6247,-4.6259,-4.6267,-4.6294,-4.5912,-4.5739,-4.5721,-4.4843,-4.4433,-4.4394,-4.3535,-4.2851,-4.2382,0.0,-4.1559,-4.1105,-4.11,-4.1097,-4.1093,-4.1104,-4.1097,-4.1092,-4.1091,-4.11,-4.1031,-4.0597,-3.9878,-3.9093,-3.8579,-3.78,-3.6941,-3.6054,-3.5808,-3.5872,-3.6217,-3.6289,-3.6361,-3.6737,-3.6875,-3.6897,-3.6899,-3.7007,-3.6975,-3.6474,-3.6369,-3.6245,-3.5781,-3.5704,-3.5679,-3.5648,-3.562,-3.5572,-3.5495,-3.5405,-3.5285,-3.5108,-3.4964,-3.4859,-3.4758,-3.4747,-3.4697,-3.4612,-3.4612,-3.4411,-3.3989,-3.3444,-3.2777,-3.1979,-3.0946,-3.0196,-2.977,-2.9317,-2.9096,-2.9096,-2.9163,-2.9207,-2.924,-2.9272,-2.9294,-4.1293,-4.2041,-4.2471,-4.1671,-4.0818,-3.9915,-3.9006,-3.8575,-3.8318,-3.8118,-3.856,-3.9301,-4.0311,-4.1317,-4.2488,-4.3935,-4.4576,-4.4995,-4.5322,-4.5502,-4.564,-4.5765,-4.5783,-4.5793,-4.5793,-4.5793,-4.5827,-4.5873,-4.5955,-4.6035,-4.6093,-4.6157,-4.6192,-4.6206,-4.6206,-4.618,-4.6122,-4.5376,-4.4934,-4.4821,-4.3943,-4.3534,-4.3496,-4.2637,-4.2246,-4.2207,0.0,0.0,-4.1091,-4.1104,-4.1099,-4.1098,-4.1093,-4.1104,-4.1094,-4.1098,-4.1108,-4.0978,-4.0029,-3.9179,-3.8468,-3.8295,-3.7629,-3.6813,-3.6168,-3.5976,-3.6157,-3.7031,-3.7128,-3.719,-3.7926,-3.7434,-3.6734,-3.6734,-3.6212,-3.5704,-3.5704,-3.5704,-3.5704,-3.5704,-3.5704,-3.5704,-3.5704,-3.5648,-3.562,-3.561,-3.5502,-3.5398,-3.5316,-3.5134,-3.4955,-3.4819,-3.4798,-3.4747,-3.4612,-3.4612,-3.4223,-3.3382,-3.3141,-3.2328,-3.0692,-3.0449,-2.9995,-2.9229,-2.92,-2.92,-2.92,-2.9262,-2.9302,-2.9312,-2.9365,-2.9386,-4.1882,-4.2292,-4.2115,-4.0729,-4.0161,-3.9743,-3.8903,-3.8417,-3.8136,-3.8035,-3.7988,-3.8456,-4.0113,-4.076,-4.1697,-4.3713,-4.4438,-4.4856,-4.5191,-4.5448,-4.5601,0.0,-4.568,-4.5731,-4.5731,-4.5781,0.0,0.0,0.0,-4.6035,-4.6093,-4.6157,-4.6192,-4.6206,-4.6206,-4.5882,-4.5232,-4.5088,-4.4648,-4.3915,-4.3043,-4.2635,-4.2596,-4.1777,-4.1406,-4.1406,0.0,0.0,-4.1092,-4.1108,-4.1103,-4.1098,-4.1093,-4.1108,-4.1104,-4.1103,-4.1091,-4.0969,-4.0033,-3.9179,-3.8374,-3.7588,-3.6736,-3.613,-3.6697,-3.6863,-3.7033,-3.785,-3.7608,-3.7109,-3.7206,-3.6575,-3.5915,-3.5915,-3.5797,-3.5704,-3.5704,-3.5704,-3.5704,-3.5704,-3.5704,-3.5704,-3.5704,-3.5684,-3.5668,-3.5601,-3.5578,-3.5515,-3.5398,-3.5212,-3.5011,-3.4812,-3.48,-3.4747,-3.4612,-3.4612,-3.4245,-3.3435,-3.2699,-3.1813,-3.0731,-2.993,-2.9447,-2.9291,-2.9229,-2.9229,-2.9272,-2.9302,-2.9334,-2.9386,-2.9344,-2.9323,-4.14,-4.1299,-4.0832,-4.0157,-3.9538,-3.8976,-3.8577,-3.8188,-3.8005,-3.8402,-3.8671,-3.926,-4.0631,-4.1433,-4.2283,-4.3463,-4.4095,-4.4533,-4.4849,-4.5211,-4.5457,-4.5484,-4.5616,-4.57,-4.5657,-4.5731,-4.5803,0.0,0.0,-4.603,-4.6095,-4.6162,-4.6196,-4.6203,-4.6192,-4.5808,-4.4958,-4.4528,-4.3895,-4.3007,-4.2138,-4.1714,-4.1717,-4.1327,-4.1172,-4.1191,-4.1191,0.0,-4.1152,-4.1111,-4.1108,-4.1103,-4.1097,-4.1093,-4.1106,-4.1103,-4.1093,-4.0972,-4.0061,-3.95,-3.903,-3.8073,-3.7195,-3.6639,-3.7517,-3.778,-3.7858,-3.8237,-3.8049,-3.7623,-3.7172,-3.6726,-3.6269,-3.5804,-3.5697,-3.5706,-3.5709,-3.5701,-3.5706,-3.5709,-3.5704,-3.5704,-3.5704,-3.5704,-3.5684,-3.5668,-3.562,-3.5578,-3.5509,-3.5369,-3.5168,-3.4936,-3.484,-3.4751,-3.4666,-3.4247,-3.3625,-3.278,-3.1904,-3.1039,-3.0167,-2.9638,-2.9361,-2.9349,-2.9326,-2.9315,-2.9355,-2.9355,-2.9355,-2.9355,-2.9312,-2.9272,-4.079,-4.0381,-3.9882,-3.9635,-3.8925,-3.8256,-3.8256,-3.8093,-3.8133,-3.876,-3.9418,-4.0183,-4.1124,-4.2022,-4.2776,-4.3213,-4.3775,-4.425,-4.4519,-4.4973,-4.5272,-4.5351,-4.5521,0.0,-4.5563,-4.5684,0.0,0.0,0.0,0.0,-4.6105,-4.6162,-4.6192,-4.6192,-4.6209,-4.5693,-4.4626,-4.3983,-4.314,-4.2116,-4.1424,-4.1101,-4.1108,-4.1091,-4.1132,-4.1172,-4.1172,0.0,0.0,-4.1132,-4.109,-4.1107,-4.1101,-4.1095,-4.1106,-4.1103,-4.1093,-4.0974,-4.0106,-3.9685,-3.9406,-3.8629,-3.7946,-3.7502,-3.8197,-3.8406,-3.8406,-3.8406,-3.8233,-3.7904,-3.7268,-3.6925,-3.6575,-3.5873,-3.5693,-3.5702,-3.5706,-3.5702,-3.5688,-3.5706,-3.5701,-3.5695,-3.5695,-3.5684,-3.5679,-3.5704,-3.5643,-3.5595,-3.559,-3.5509,-3.535,-3.5117,-3.4936,-3.4802,-3.4739,-3.3913,-3.3055,-3.2191,-3.1316,-3.047,-2.9654,-2.9521,-2.9453,-2.9423,-2.9597,-2.9587,-2.9419,-2.9595,-2.9553,-2.9304,-2.9302,-2.924,-4.0727,-4.0632,-4.0352,-3.8907,-3.8323,-3.8118,-3.8118,-3.8473,-3.8796,-3.8867,-3.9418,-4.0183,-4.1124,-4.1533,-4.2048,-4.3051,-4.3664,-4.4106,-4.4388,-4.4814,-4.5129,-4.5213,0.0,0.0,-4.5429,-4.5537,0.0,0.0,0.0,0.0,-4.6108,-4.6158,-4.6189,-4.6189,-4.6192,-4.5407,-4.3743,-4.3649,-4.2799,-4.1215,-4.114,-4.1091,-4.1093,-4.1104,-4.111,-4.1112,0.0,0.0,0.0,-4.1132,-4.109,-4.1107,-4.1101,-4.1095,-4.1106,-4.1103,-4.1093,-4.0974,-4.0106,-3.9289,-3.8592,-3.845,-3.8346,-3.8299,-3.838,-3.8406,-3.8406,-3.8406,-3.7838,-3.7193,-3.7115,-3.6515,-3.5867,-3.5728,-3.5703,-3.5693,-3.5694,-3.5704,-3.5704,-3.5699,-3.5698,-3.5702,-3.5702,-3.564,-3.5637,-3.5684,-3.5643,-3.5601,-3.5601,-3.5584,-3.5534,-3.5391,-3.5124,-3.4927,-3.4802,-3.3987,-3.3146,-3.2326,-3.1468,-3.0584,-2.972,-2.9692,-2.9626,-2.9492,-3.0211,-3.0229,-2.9482,-3.0226,-3.0137,-2.9312,-2.9243,-2.9167,-4.0618,-4.0131,-3.9568,-3.8443,-3.807,-3.795,-3.788,-3.8312,-3.8859,-3.934,-4.0032,-4.0816,-4.1622,-4.2083,-4.2318,-4.2359,-4.3266,-4.3911,-4.3652,-4.4443,-4.5049,-4.5136,-4.5298,0.0,0.0,0.0,0.0,0.0,0.0,0.0,-4.5262,-4.5822,-4.6149,-4.6149,-4.5663,-4.4837,-4.3614,-4.3111,-4.2287,-4.1103,-4.1103,-4.1097,-4.1109,-4.1095,-4.1102,-4.1109,0.0,0.0,0.0,-4.1113,-4.1093,-4.111,-4.1106,-4.1099,-4.1106,-4.1103,-4.0762,-4.0272,-3.9911,-3.9231,-3.8494,-3.8412,-3.8397,-3.8405,-3.8395,-3.8406,-3.8285,-3.7767,-3.7364,-3.6979,-3.6442,-3.6032,-3.5732,-3.5708,-3.5708,-3.5708,-3.5703,-3.5728,-3.5742,-3.5708,-3.5699,-3.5708,-3.5693,-3.5247,-3.4883,-3.4916,-3.4886,-3.4881,-3.4881,-3.5297,-3.5584,-3.5541,-3.5289,-3.5072,-3.4992,-3.4112,-3.3412,-3.3091,-3.2232,-3.1563,-3.1224,-3.1175,-3.1115,-3.1056,-3.1335,-3.108,-3.0228,-3.0543,-3.0209,-2.9235,-2.9211,-2.9134,-4.0775,-4.0094,-3.9319,-3.8526,-3.8078,-3.7847,-3.7972,-3.8466,-3.9112,-3.9929,-4.0748,-4.1481,-4.2015,-4.2273,-4.2281,-4.1869,-4.2623,-4.3133,-4.2787,-4.3825,-4.4649,-4.4707,0.0,-4.5369,0.0,0.0,0.0,0.0,0.0,0.0,0.0,-4.4963,-4.5453,-4.5706,-4.5172,-4.4347,-4.3234,-4.2659,-4.1932,-4.1075,-4.1073,-4.1074,-4.1072,-4.1097,-4.1108,-4.11,0.0,0.0,0.0,-4.1108,-4.1093,-4.1092,-4.109,-4.1102,-4.1067,-4.0812,-4.0333,-3.976,-3.9502,-3.8838,-3.8118,-3.8061,-3.7864,-3.7626,-3.7629,-3.78,-3.7838,-3.6966,-3.6714,-3.6563,-3.5963,-3.5747,-3.5704,-3.5713,-3.5718,-3.5704,-3.5733,-3.5776,-3.5794,-3.5742,-3.5737,-3.5728,-3.5703,-3.5165,-3.4763,-3.4781,-3.4781,-3.4761,-3.4772,-3.5284,-3.5629,-3.5608,-3.5423,-3.527,-3.5168,-3.403,-3.3438,-3.3666,-3.2817,-3.2307,-3.226,-3.2182,-3.2141,-3.211,-3.2283,-3.1848,-3.0723,-3.0942,-3.0418,-2.9229,-2.9178,-2.91,-4.1303,-4.0752,-4.0002,-3.9265,-3.8348,-3.7791,-3.8521,-3.9169,-3.9828,-4.0607,-4.1469,-4.2103,-4.2103,-4.1769,-4.1575,-4.1778,-4.165,-4.1607,-4.1884,-4.2945,-4.3744,0.0,0.0,-4.5246,-4.5398,0.0,0.0,0.0,0.0,0.0,0.0,-4.3525,-4.3918,-4.4792,-4.4807,-4.3992,-4.2338,-4.2319,-4.1852,-4.0996,-4.0993,-4.099,-4.0994,-4.1061,-4.11,0.0,0.0,0.0,0.0,-4.1099,-4.1108,-4.1094,-4.1092,-4.1105,-4.1008,-4.0129,-3.9802,-3.9672,-3.8817,-3.7936,-3.7205,-3.7205,-3.6573,-3.5834,-3.5834,-3.644,-3.6925,-3.6067,-3.5817,-3.5803,-3.5799,-3.5747,-3.5713,-3.5775,-3.5742,-3.5713,-3.5775,-3.5799,-3.5799,-3.5799,-3.5799,-3.5775,-3.5708,-3.5644,-3.5607,-3.5684,-3.5626,-3.5618,-3.5683,-3.5689,-3.5664,-3.5612,-3.5599,-3.5515,-3.5304,-3.3708,-3.3054,-3.3846,-3.3081,-3.2549,-3.24,-3.2326,-3.2241,-3.2105,-3.2887,-3.2472,-3.0787,-3.1461,-3.0924,-2.9302,-2.9163,-2.9055,-4.1264,-4.1067,-4.0636,-3.9849,-3.9342,-3.9064,-3.9272,-3.9825,-4.0358,-4.0605,-4.14,-4.1874,-4.1372,-4.1448,-4.1306,-4.05,-4.0962,-4.156,0.0,0.0,0.0,-4.46,-4.4578,-4.4528,0.0,0.0,0.0,0.0,0.0,0.0,0.0,-4.2524,-4.2945,-4.3815,-4.3306,-4.2772,-4.2248,-4.1639,-4.1209,-4.0937,-4.0984,-4.1002,-4.0997,-4.1026,0.0,0.0,0.0,0.0,0.0,-4.1104,-4.1101,-4.1092,-4.1093,-4.0734,-4.0171,-3.9895,-3.9041,-3.7978,-3.7706,-3.7046,-3.6307,-3.6313,-3.6075,-3.5795,-3.5799,-3.5989,-3.6144,-3.5872,-3.5797,-3.5803,-3.5801,-3.5788,-3.577,-3.5799,-3.5742,-3.5708,-3.5737,-3.577,-3.5799,-3.5799,-3.5793,-3.5797,-3.5775,-3.5257,-3.4855,-3.4875,-3.4856,-3.4856,-3.4885,-3.5355,-3.5679,-3.5664,-3.5139,-3.4952,-3.5405,-3.4839,-3.458,-3.4833,-3.4503,-3.4267,-3.4187,-3.4065,-3.3946,-3.3805,-3.346,-3.2711,-3.148,-3.1128,-3.0342,-2.9163,-2.9074,-2.9028,-4.1433,-4.1339,-4.0851,-4.001,-3.9716,-3.9598,-3.9575,-4.0091,-4.0553,-4.0553,-4.1086,-4.1339,-4.0626,-4.0588,-4.0456,-3.9717,-4.0086,-4.0688,0.0,0.0,0.0,-4.4928,0.0,0.0,0.0,0.0,0.0,0.0,0.0,0.0,0.0,0.0,-4.1865,-4.2394,-4.2276,-4.2029,-4.1687,-4.1121,-4.0869,-4.0869,-4.0926,-4.0963,-4.096,-4.0968,0.0,0.0,0.0,0.0,0.0,-4.0615,-4.0795,-4.1066,-4.0761,-4.0309,-3.9726,-3.9062,-3.8129,-3.7157,-3.681,-3.6348,-3.5905,-3.5895,-3.5878,-3.5834,-3.5815,-3.5803,-3.5795,-3.5795,-3.5797,-3.5803,-3.5797,-3.5793,-3.5799,-3.577,-3.5737,-3.5704,-3.5694,-3.5723,-3.5757,-3.5766,-3.5788,-3.5797,-3.5803,-3.5357,-3.498,-3.4957,-3.4962,-3.4986,-3.4986,-3.5441,-3.5732,-3.5742,-3.5248,-3.5106,-3.5531,-3.5175,-3.5049,-3.5362,-3.5273,-3.5168,-3.5082,-3.4946,-3.4649,-3.4196,-3.3604,-3.2663,-3.1381,-3.0476,-2.9688,-2.9055,-2.8716,-2.8546,0.0,-4.155,-4.0816,-3.9899,-3.962,-3.9559,-3.9559,-4.0039,0.0,-4.0502,-4.0655,-4.0577,-3.9846,-3.9424,-3.921,-3.9327,-3.9098,-3.9256,0.0,-4.1453,0.0,0.0,-4.4444,0.0,0.0,0.0,0.0,0.0,0.0,0.0,0.0,0.0,-4.0809,-4.0794,-4.1646,-4.1687,-4.0801,-4.0807,-4.0807,-4.0807,-4.0872,-4.0902,-4.0883,-4.083,0.0,0.0,0.0,0.0,0.0,-3.9705,-4.0188,-4.0844,-4.0093,-3.9726,-3.9421,-3.7806,-3.716,-3.7001,-3.6189,-3.5903,-3.5911,-3.5908,-3.5898,-3.5898,-3.5834,-3.5795,-3.5799,-3.5795,-3.5801,-3.5803,-3.5803,-3.5803,-3.578,-3.5713,-3.5708,-3.5699,-3.5693,-3.5707,-3.5693,-3.5704,-3.5747,-3.5803,-3.5803,-3.5803,-3.5775,-3.5713,-3.5751,-3.5803,-3.5803,-3.5801,-3.5806,-3.5808,-3.5803,-3.5761,-3.5713,-3.4903,-3.4704,-3.5457,-3.5435,-3.5361,-3.5198,-3.5025,-3.4462,-3.3524,-3.3231,-3.227,-3.0596,-2.9581,-2.9037,-2.8895,-2.8154,-2.778,-4.0905,0.0,-4.1425,-4.057,-4.031,-4.0264,0.0,-4.0401,-4.0502,-4.0502,-4.0591,-4.0297,-3.9176,-3.9011,-3.8958,-3.8747,-3.8762,-3.9246,-4.0397,-4.2146,0.0,-4.4889,-4.3838,0.0,0.0,0.0,0.0,0.0,0.0,0.0,0.0,0.0,-4.0794,-4.0803,-4.1013,-4.1019,-4.0796,-4.0804,-4.0796,-4.0812,-4.0862,-4.0872,-4.0798,-4.0188,0.0,0.0,0.0,0.0,-3.8735,-3.878,-3.8939,-3.9084,-3.8896,-3.8437,-3.7848,-3.7424,-3.6843,-3.6245,-3.6059,-3.5975,-3.597,-3.5911,-3.5894,-3.5898,-3.5878,-3.5838,-3.5795,-3.5799,-3.5791,-3.5806,-3.5806,-3.5806,-3.5801,-3.578,-3.5742,-3.5699,-3.5693,-3.5707,-3.5693,-3.5704,-3.5747,-3.5808,-3.5806,-3.5806,-3.5786,-3.5782,-3.5782,-3.5806,-3.5806,-3.5791,-3.5795,-3.5806,-3.5793,-3.577,-3.5699,-3.5449,-3.538,-3.5564,-3.5509,-3.5412,-3.5285,-3.4503,-3.3911,-3.3505,-3.201,-3.0695,-2.964,-2.9281,-2.8784,-2.8154,-2.7919,-2.7475,-4.0633,-4.106,-4.1142,-4.0302,-4.0105,-3.9978,-3.9564,-3.9775,-3.9933,-3.9484,-3.9476,-3.927,-3.8358,-3.8348,-3.8489,-3.8501,-3.868,0.0,0.0,0.0,-4.3223,-4.3817,0.0,0.0,0.0,0.0,0.0,0.0,0.0,0.0,0.0,0.0,-4.079,-4.0797,-4.0809,-4.079,-4.0797,-4.08,-4.0812,-4.0796,-4.0436,-4.0234,-4.0186,-3.9334,0.0,0.0,0.0,0.0,-3.7808,-3.7884,-3.8141,-3.8461,-3.8085,-3.7671,-3.7246,-3.685,-3.6394,-3.5996,-3.6004,-3.5995,-3.599,-3.596,-3.5946,-3.5933,-3.5919,-3.5869,-3.5853,-3.5857,-3.5846,-3.5846,-3.5811,-3.5811,-3.5803,-3.5808,-3.577,-3.5737,-3.5713,-3.5703,-3.5689,-3.5704,-3.5747,-3.5803,-3.5797,-3.581,-3.5795,-3.5795,-3.5795,-3.5799,-3.5807,-3.5799,-3.5799,-3.5807,-3.5791,-3.5765,-3.5708,-3.5335,-3.5236,-3.5587,-3.5579,-3.5302,-3.4769,-3.4209,-3.3428,-3.2411,-3.0909,-2.9702,-2.8795,-2.8667,-2.8183,-2.7348,-2.6901,-2.6476,-4.0334,-4.045,-4.0326,-3.9693,-3.9487,-3.9281,-3.8565,-3.8899,-3.9161,-3.8373,-3.8269,-3.8215,-3.7755,-3.7828,-3.807,-3.851,0.0,0.0,-4.0757,-4.1572,-4.2184,-4.2561,0.0,0.0,0.0,0.0,0.0,0.0,0.0,0.0,0.0,0.0,0.0,-4.0797,-4.0797,-4.0739,-4.0603,-4.0608,-4.0608,-4.0584,-3.9724,-3.9317,-3.9268,-3.8392,0.0,0.0,0.0,0.0,-3.6882,-3.6968,-3.7439,-3.8034,-3.7347,-3.7092,-3.7005,-3.6269,-3.5995,-3.5993,-3.6003,-3.5995,-3.6009,-3.6007,-3.6001,-3.5994,-3.5921,-3.5916,-3.5929,-3.5914,-3.5915,-3.5882,-3.5822,-3.5815,-3.5803,-3.5801,-3.5793,-3.5784,-3.5722,-3.5718,-3.5718,-3.5718,-3.5756,-3.5793,-3.5793,-3.581,-3.5803,-3.5799,-3.5799,-3.5807,-3.5803,-3.5807,-3.5803,-3.5803,-3.569,-3.5579,-3.5519,-3.4778,-3.457,-3.5156,-3.5204,-3.4751,-3.3728,-3.363,-3.2748,-3.097,-2.9945,-2.9045,-2.825,-2.7972,-2.7397,-2.6532,-2.5774,-2.5339,-3.898,-3.8938,-3.9061,-3.9536,-3.9242,-3.8822,-3.8809,-3.8806,-3.8784,-3.864,-3.8565,-3.8429,-3.8006,-3.8051,-3.8314,-3.884,0.0,-3.9953,0.0,0.0,-4.1678,0.0,0.0,0.0,0.0,0.0,0.0,0.0,0.0,0.0,0.0,0.0,0.0,-4.0797,-4.0797,-4.0448,-3.9713,-3.9704,-3.9704,-3.9694,-3.8872,-3.8446,-3.8373,-3.7502,-3.7038,0.0,0.0,-3.5907,-3.5921,-3.5994,-3.6138,-3.6289,-3.6153,-3.6153,-3.6184,-3.6048,-3.5993,-3.5994,-3.5996,-3.5995,-3.5995,-3.5991,-3.6007,-3.6005,-3.5992,-3.5981,-3.5974,-3.597,-3.5941,-3.5901,-3.5898,-3.5889,-3.5872,-3.5811,-3.5799,-3.5792,-3.5791,-3.5786,-3.5786,-3.5786,-3.5783,-3.5795,-3.5795,-3.5857,-3.5864,-3.5803,-3.5799,-3.5803,-3.5807,-3.5807,-3.5803,-3.5803,-3.5134,-3.4693,-3.4686,-3.3892,-3.3403,-3.339,-3.3394,-3.2923,-3.186,-3.1752,-3.1229,-3.02,-2.9181,-2.8608,-2.8451,-2.7522,-2.6656,-2.5848,-2.5596,-2.5086,-3.8885,-3.8792,-3.8881,-3.9352,-3.8905,-3.8331,-3.8402,-3.8061,-3.7702,-3.7596,-3.756,-3.7559,-3.7454,-3.799,-3.8609,-3.9227,0.0,-4.0014,-4.0583,-4.062,0.0,0.0,0.0,0.0,0.0,0.0,0.0,0.0,0.0,0.0,0.0,0.0,0.0,0.0,-4.032,-3.9907,-3.9501,-3.8564,-3.8326,-3.8779,-3.7981,-3.7555,-3.7458,-3.6632,-3.6245,-3.6226,0.0,-3.5703,-3.5713,-3.5771,-3.5838,-3.5898,-3.5894,-3.5914,-3.5949,-3.5995,-3.6004,-3.6009,-3.5993,-3.5995,-3.5996,-3.5995,-3.5994,-3.5992,-3.6006,-3.6,-3.5995,-3.5995,-3.5972,-3.5958,-3.5914,-3.5906,-3.5897,-3.5862,-3.5856,-3.5853,-3.5843,-3.5843,-3.5859,-3.5849,-3.5843,-3.5853,-3.5843,-3.5876,-3.5882,-3.5862,-3.584,-3.584,-3.584,-3.5445,-3.5158,-3.515,-3.4349,-3.3779,-3.3756,-3.2938,-3.2589,-3.2974,-3.2512,-3.1815,-3.0853,-3.0297,-2.9596,-2.8724,-2.818,-2.7678,-2.7193,-2.6647,-2.59,-2.5046,-2.4958,-2.4672,-3.8868,-3.8744,-3.8762,-3.9009,-3.8556,-3.8087,-3.8154,-3.7571,-3.6957,-3.6839,-3.6676,-3.6647,-3.6866,-3.7809,0.0,-3.9549,-3.9848,-4.0048,-4.0215,0.0,0.0,0.0,0.0,0.0,0.0,0.0,0.0,0.0,0.0,0.0,0.0,0.0,0.0,0.0,-3.9895,-3.9398,-3.921,-3.7677,-3.7251,-3.7883,-3.7085,-3.6679,-3.6593,-3.5974,-3.5704,-3.5709,-3.5711,-3.5698,-3.5708,-3.5769,-3.5838,-3.5905,-3.5894,-3.5894,-3.5912,-3.5956,-3.5991,-3.6,-3.6004,-3.6009,-3.5992,-3.5995,-3.5996,-3.5957,-3.576,-3.5699,-3.5655,-3.5459,-3.5389,-3.5465,-3.5823,-3.5916,-3.5912,-3.5921,-3.5919,-3.5919,-3.5921,-3.5924,-3.5919,-3.5892,-3.5919,-3.5924,-3.5892,-3.5919,-3.5921,-3.5906,-3.5903,-3.5822,-3.5621,-3.501,-3.4522,-3.4325,-3.3456,-3.2695,-3.2237,-3.1563,-3.1339,-3.175,-3.1283,-3.0599,-2.9698,-2.8981,-2.8278,-2.7604,-2.7291,-2.6808,-2.6116,-2.5799,-2.5265,-2.4545,-2.4481,-2.4411,-3.8323,-3.8225,-3.8175,-3.8347,-3.8327,-3.8356,-3.858,-3.794,-3.7287,-3.7422,-3.6806,-3.6317,-3.6591,-3.7661,-3.8814,-3.9727,-4.0059,-4.0243,0.0,0.0,0.0,0.0,0.0,0.0,0.0,0.0,0.0,0.0,0.0,0.0,0.0,0.0,0.0,0.0,0.0,-3.9058,-3.829,-3.7367,-3.6942,-3.698,-3.6173,-3.5787,-3.5781,-3.5723,-3.5704,-3.5704,-3.5709,-3.5702,-3.5708,-3.5775,-3.5846,-3.5905,-3.5901,-3.5906,-3.5909,-3.5912,-3.5947,-3.6002,-3.6002,-3.6007,-3.5996,-3.6004,-3.6009,-3.5856,-3.5038,-3.4785,-3.4627,-3.3804,-3.3584,-3.3967,-3.5573,-3.5992,-3.5984,-3.5984,-3.5984,-3.5986,-3.5995,-3.5997,-3.5976,-3.5917,-3.5944,-3.5967,-3.5919,-3.5944,-3.5963,-3.5906,-3.5903,-3.5604,-3.48,-3.4648,-3.4282,-3.3485,-3.2543,-3.1304,-2.9612,-2.9363,-2.8973,-2.8214,-2.8808,-2.8766,-2.7822,-2.7732,-2.7661,-2.7596,-2.6806,-2.632,-2.619,-2.531,-2.4806,-2.4684,-2.4631,-2.4547,-3.871,-3.8588,-3.8559,-3.8609,-3.8609,-3.864,-3.8732,-3.7779,-3.6878,-3.692,-3.635,-3.6056,-3.6824,-3.7841,-3.8699,-3.9131,-3.9776,0.0,0.0,0.0,0.0,0.0,0.0,0.0,0.0,0.0,0.0,0.0,0.0,0.0,0.0,0.0,0.0,0.0,0.0,-3.8253,-3.7396,-3.6563,-3.6149,-3.6149,-3.5839,-3.5704,-3.5704,-3.5668,-3.5668,-3.5704,-3.5668,-3.5651,-3.5703,-3.5728,-3.5773,-3.5846,-3.5872,-3.59,-3.5899,-3.5907,-3.5914,-3.5945,-3.5995,-3.5651,-3.5188,-3.5181,-3.4816,-3.4312,-3.3982,-3.3887,-3.3826,-3.3494,-3.3392,-3.3541,-3.4215,-3.4384,-3.4519,-3.5067,-3.5185,-3.5342,-3.5878,-3.5996,-3.5998,-3.5962,-3.5985,-3.5985,-3.5963,-3.5985,-3.5984,-3.5975,-3.5504,-3.503,-3.47,-3.3711,-3.2893,-3.2533,-3.1172,-2.9995,-2.926,-2.8669,-2.7972,-2.7108,-2.7769,-2.779,-2.6886,-2.6823,-2.6561,-2.6059,-2.5678,-2.548,-2.5448,-2.5007,-2.4795,-2.4757,-2.4698,-2.4623,-3.8702,-3.8405,-3.813,-3.813,-3.8116,-3.8116,-3.8159,-3.7368,-3.6584,-3.6396,-3.5824,-3.5683,-3.6694,-3.765,0.0,0.0,0.0,0.0,0.0,0.0,0.0,0.0,0.0,0.0,0.0,0.0,0.0,0.0,0.0,0.0,0.0,0.0,0.0,0.0,0.0,0.0,-3.6914,-3.6099,-3.5704,-3.5704,-3.5704,-3.5704,-3.5704,-3.5637,-3.5637,-3.5673,-3.5612,-3.5629,-3.5678,-3.5694,-3.5745,-3.5842,-3.5869,-3.5897,-3.5892,-3.5899,-3.5732,-3.5522,-3.5576,-3.502,-3.4287,-3.4297,-3.3895,-3.3353,-3.3063,-3.2988,-3.2949,-3.2675,-3.2613,-3.2609,-3.2604,-3.301,-3.3552,-3.4159,-3.4297,-3.4456,-3.5048,-3.5187,-3.5189,-3.5172,-3.5172,-3.5172,-3.5172,-3.5172,-3.5172,-3.5188,-3.4679,-3.4186,-3.3919,-3.2838,-3.1868,-3.1269,-3.0082,-2.9082,-2.8487,-2.7889,-2.7133,-2.625,-2.6655,-2.6668,-2.6027,-2.5946,-2.564,-2.5069,-2.5031,-2.4999,-2.4999,-2.4884,-2.4827,-2.4824,-2.4757,-2.4703,-3.8153,-3.7423,-3.6695,-3.6695,-3.6656,-3.6643,-3.6771,-3.6732,-3.6527,-3.5915,-3.5323,-3.5153,-3.6026,-3.6958,0.0,-3.884,0.0,0.0,0.0,0.0,0.0,0.0,0.0,0.0,0.0,0.0,0.0,0.0,0.0,0.0,0.0,0.0,0.0,0.0,0.0,0.0,-3.6895,-3.6099,-3.5704,-3.5704,-3.5704,-3.5704,-3.5704,-3.5637,-3.5601,-3.5601,-3.5601,-3.5599,-3.5593,-3.5664,-3.5767,-3.5882,-3.5882,-3.5878,-3.5889,-3.5889,-3.5373,-3.4683,-3.4683,-3.4113,-3.3389,-3.3389,-3.3378,-3.3211,-3.2356,-3.2087,-3.1913,-3.1113,-3.0897,-3.0897,-3.0895,-3.2137,-3.3377,-3.3396,-3.3382,-3.3388,-3.3392,-3.3395,-3.3397,-3.3397,-3.3397,-3.3397,-3.3397,-3.3397,-3.3397,-3.3397,-3.3395,-3.3078,-3.2209,-3.2091,-3.142,-2.9694,-2.943,-2.8693,-2.695,-2.673,-2.6294,-2.536,-2.5303,-2.5239,-2.5113,-2.5095,-2.5069,-2.501,-2.5003,-2.5003,-2.5003,-2.4931,-2.4891,-2.4891,-2.4842,-2.4794,-3.7747,-3.7307,-3.7042,-3.6929,-3.6893,-3.6756,-3.6276,-3.6082,-3.5839,-3.5279,-3.502,-3.5022,-3.5426,-3.6194,0.0,0.0,0.0,0.0,0.0,0.0,0.0,0.0,0.0,0.0,0.0,0.0,0.0,0.0,0.0,0.0,0.0,0.0,0.0,0.0,0.0,0.0,-3.5926,-3.5725,-3.5633,-3.5637,-3.5633,-3.5633,-3.5637,-3.5608,-3.559,-3.559,-3.5547,-3.5571,-3.5566,-3.5054,-3.4876,-3.4865,-3.4283,-3.4097,-3.4138,-3.4138,-3.3985,-3.3795,-3.3784,-3.321,-3.248,-3.2487,-3.2108,-3.1591,-3.1339,-3.1265,-3.121,-3.0976,-3.0898,-3.0897,-3.0897,-3.1265,-3.1788,-3.2354,-3.2491,-3.265,-3.3278,-3.3395,-3.3395,-3.3397,-3.3396,-3.3395,-3.3395,-3.3395,-3.3395,-3.3395,-3.2887,-3.2183,-3.136,-3.1214,-3.0753,-2.9614,-2.8922,-2.8106,-2.6962,-2.6249,-2.5748,-2.5456,-2.541,-2.5303,-2.5179,-2.5137,-2.5082,-2.5063,-2.5063,-2.5069,-2.5069,-2.4998,-2.4971,-2.4971,-2.4849,-2.4794,-3.6796,-3.6139,-3.5814,-3.5732,-3.569,-3.5681,-3.5594,-3.5484,-3.5302,-3.4993,-3.4955,-3.502,-3.5164,-3.5867,0.0,0.0,0.0,0.0,0.0,0.0,0.0,0.0,0.0,0.0,0.0,0.0,0.0,0.0,0.0,0.0,0.0,0.0,0.0,0.0,0.0,0.0,-3.5509,-3.556,-3.561,-3.5602,-3.5604,-3.5578,-3.5565,-3.5566,-3.556,-3.554,-3.5181,-3.5057,-3.5068,-3.4299,-3.3994,-3.3972,-3.3495,-3.3329,-3.3351,-3.3395,-3.3183,-3.2874,-3.2881,-3.2305,-3.1572,-3.1583,-3.1264,-3.0863,-3.0887,-3.0891,-3.0895,-3.0897,-3.0898,-3.0898,-3.0898,-3.0897,-3.1014,-3.1519,-3.1617,-3.1774,-3.2284,-3.2419,-3.2419,-3.2419,-3.2418,-3.2416,-3.2416,-3.2416,-3.2416,-3.2418,-3.1968,-3.1459,-3.0951,-3.0552,-2.9998,-2.9121,-2.8247,-2.7369,-2.6492,-2.5902,-2.5563,-2.5544,-2.5489,-2.5406,-2.5327,-2.5222,-2.5164,-2.5149,-2.5131,-2.5126,-2.5101,-2.5063,-2.5037,-2.5043,-2.4938,-2.4884,-3.5545,-3.4486,-3.3902,-3.3755,-3.3768,-3.4044,-3.4921,-3.5029,-3.4955,-3.502,-3.5084,-3.5147,-3.5189,-3.5808,0.0,0.0,0.0,0.0,0.0,0.0,0.0,0.0,0.0,0.0,0.0,0.0,0.0,0.0,0.0,0.0,0.0,0.0,0.0,0.0,0.0,0.0,-3.5502,-3.5554,-3.5585,0.0,-3.5585,-3.5547,-3.5502,-3.5509,-3.547,-3.5335,-3.4603,-3.4289,-3.4214,-3.3417,-3.3121,-3.3168,-3.3083,-3.3067,-3.3084,-3.3137,-3.2657,-3.1975,-3.1975,-3.1456,-3.0802,-3.0794,-3.0804,-3.0815,-3.0865,-3.0887,-3.0889,-3.0895,-3.0897,-3.0897,-3.0898,-3.084,-3.0781,-3.0779,-3.0838,-3.0897,-3.0897,-3.0897,-3.0896,-3.0895,-3.0832,-3.0771,-3.0771,-3.0712,-3.0654,-3.0659,-3.0656,-3.0653,-3.0653,-2.9966,-2.9145,-2.8271,-2.7462,-2.6652,-2.5768,-2.5692,-2.5667,-2.5609,-2.5543,-2.5509,-2.5506,-2.5382,-2.5288,-2.5215,-2.5209,-2.5176,-2.5125,-2.51,-2.5063,-2.4993,-2.4924,-2.4847,-3.4995,-3.4638,-3.4789,-3.4031,-3.4338,-3.4869,-3.519,-3.5237,-3.522,-3.5237,-3.5245,-3.5261,-3.5281,0.0,0.0,0.0,0.0,0.0,0.0,0.0,0.0,0.0,0.0,0.0,0.0,0.0,0.0,0.0,0.0,0.0,0.0,0.0,0.0,0.0,0.0,-3.5379,-3.5494,-3.5501,-3.5527,0.0,-3.5481,-3.5455,-3.5494,-3.5496,-3.513,-3.4469,-3.4346,-3.3919,-3.3233,-3.2493,-3.2197,-3.2144,-3.1504,-3.1284,-3.1332,-3.1354,-3.1244,-3.1074,-3.1074,-3.0966,-3.0802,-3.0794,-3.0804,-3.0794,-3.0821,-3.0822,-3.0824,-3.0889,-3.0851,-3.0833,-3.0895,-3.0388,-2.9881,-2.9881,-3.039,-3.0898,-3.0898,-3.0897,-3.0895,-3.0894,-3.0342,-2.9887,-2.9887,-2.9301,-2.8852,-2.8853,-2.8855,-2.8856,-2.8858,-2.87,-2.8249,-2.7369,-2.7108,-2.6652,-2.5768,-2.5697,-2.5683,-2.5689,-2.5627,-2.5582,-2.5586,-2.5457,-2.5363,-2.5351,-2.5313,-2.5274,-2.5255,-2.519,-2.4831,-2.4164,-2.4091,-2.3699,-3.4815,-3.4166,-3.4031,-3.3509,-3.401,-3.476,-3.5277,-3.5395,-3.5403,-3.5446,-3.5376,-3.5312,-3.535,0.0,0.0,0.0,0.0,0.0,0.0,0.0,0.0,0.0,0.0,0.0,0.0,0.0,0.0,0.0,0.0,0.0,0.0,0.0,0.0,0.0,-3.5297,-3.5361,-3.5453,-3.5453,-3.5453,-3.5453,-3.5412,-3.5208,-3.4826,-3.4866,-3.4629,-3.4167,-3.3395,-3.2808,-3.2318,-3.1574,-3.1273,-3.1247,-3.0842,-3.0717,-3.0752,-3.0758,-3.0745,-3.0753,-3.0739,-3.0747,-3.0757,-3.0795,-3.0806,-3.0794,-3.0807,-3.0791,-3.0812,-3.0839,-3.0822,-3.0706,-3.0322,-2.9893,-2.9463,-2.9074,-2.9313,-2.9667,-2.9667,-2.9668,-2.9667,-2.9667,-2.9293,-2.8976,-2.8974,-2.8601,-2.8305,-2.8303,-2.8305,-2.8306,-2.8308,-2.7933,-2.7502,-2.7051,-2.6631,-2.6194,-2.5749,-2.5696,-2.5705,-2.5699,-2.5645,-2.5603,-2.5593,-2.5531,-2.527,-2.4838,-2.4787,-2.4561,-2.4143,-2.4077,-2.3818,-2.3371,-2.3301,-2.3029,-3.4814,-3.3624,-3.2968,-3.3216,-3.3695,-3.4368,-3.5295,-3.552,-3.5521,-3.5591,-3.5469,-3.536,0.0,0.0,0.0,0.0,0.0,0.0,0.0,0.0,0.0,0.0,0.0,0.0,0.0,0.0,0.0,0.0,0.0,0.0,0.0,0.0,-3.5226,-3.5304,-3.5312,-3.5324,-3.5379,-3.5379,-3.5372,-3.5383,-3.5237,-3.4791,-3.412,-3.3878,-3.3763,-3.3686,-3.2297,-3.1626,-3.1444,-3.0853,-3.0602,-3.0606,-3.0665,-3.068,-3.0683,-3.0674,-3.0681,-3.0688,-3.0685,-3.0691,-3.0719,-3.0767,-3.0774,-3.0779,-3.0806,-3.0792,-3.0792,-3.0803,-3.0687,-3.0416,-2.9681,-2.9274,-2.8885,-2.8223,-2.7957,-2.7924,-2.8238,-2.8298,-2.83,-2.83,-2.8183,-2.8026,-2.7888,-2.7846,-2.7842,-2.7858,-2.7857,-2.7856,-2.7855,-2.7225,-2.6771,-2.679,-2.6131,-2.5696,-2.5704,-2.571,-2.5699,-2.5699,-2.563,-2.5537,-2.5396,-2.5529,-2.5099,-2.4035,-2.4161,-2.3788,-2.2894,-2.2833,-2.2736,-2.2596,-2.2536,-2.2427,-3.4875,-3.3706,-3.3336,-3.4783,-3.4648,-3.4424,-3.538,-3.5585,-3.5591,0.0,-3.5584,0.0,0.0,0.0,0.0,0.0,0.0,0.0,0.0,0.0,0.0,0.0,0.0,0.0,0.0,0.0,0.0,0.0,0.0,0.0,0.0,-3.5209,-3.5226,-3.5304,-3.5312,-3.5289,-3.5315,-3.5315,-3.532,-3.5308,-3.4618,-3.4246,-3.4141,-3.2692,-3.2025,-3.2025,-3.1796,-3.1303,-3.0664,-3.0631,-3.0604,-3.0604,-3.0608,-3.0602,-3.0614,-3.0602,-3.0618,-3.061,-3.0614,-3.0644,-3.0704,-3.0716,-3.0709,-3.0714,-3.0779,-3.0801,-3.0796,-3.0806,-3.0258,-2.9652,-2.9529,-2.8386,-2.7223,-2.7106,-2.6541,-2.6451,-2.7973,-2.8293,-2.8295,-2.8296,-2.7694,-2.6933,-2.6172,-2.6054,-2.6053,-2.6053,-2.6052,-2.6049,-2.6045,-2.5943,-2.5878,-2.5867,-2.5779,-2.571,-2.5705,-2.5701,-2.5699,-2.5699,-2.563,-2.5293,-2.4588,-2.5221,-2.4864,-2.3278,-2.3939,-2.3828,-2.2892,-2.2894,-2.251,-2.1758,-2.1741,-2.1317,-3.4766,-3.3761,-3.3291,-3.3981,-3.3506,-3.3228,-3.4602,-3.4922,-3.5074,-3.5551,0.0,0.0,0.0,0.0,0.0,0.0,0.0,0.0,0.0,0.0,0.0,0.0,0.0,0.0,0.0,0.0,0.0,0.0,0.0,0.0,-3.5209,-3.5209,-3.5218,-3.5234,-3.5234,-3.5258,-3.5297,-3.5297,-3.5067,-3.4622,-3.4275,-3.362,-3.2718,-3.2013,-3.1705,-3.1671,-3.1174,-3.078,-3.0444,-3.0564,-3.0588,-3.0554,-3.0592,-3.0583,-3.055,-3.054,-3.0521,-3.0487,-3.0534,-3.0552,-3.0589,-3.0626,-3.0641,-3.0651,-3.0713,-3.0742,-3.0742,-3.0737,-3.0133,-2.9391,-2.8892,-2.7833,-2.6771,-2.6283,-2.5937,-2.5903,-2.6635,-2.6781,-2.6787,-2.6791,-2.6507,-2.6143,-2.5774,-2.5701,-2.5703,-2.5703,-2.5703,-2.5701,-2.57,-2.5695,-2.5708,-2.5701,-2.5693,-2.5707,-2.5704,-2.5704,-2.5705,-2.571,-2.5218,-2.4763,-2.4404,-2.473,-2.4351,-2.3125,-2.3881,-2.363,-2.228,-2.2286,-2.1848,-2.0986,-2.0952,-2.0708,-3.4955,-3.4014,-3.3255,-3.3417,-3.2633,-3.2222,-3.3756,0.0,-3.4333,0.0,0.0,0.0,0.0,0.0,0.0,0.0,0.0,0.0,0.0,0.0,0.0,0.0,0.0,0.0,0.0,0.0,0.0,0.0,0.0,0.0,-3.5193,-3.5212,-3.5193,-3.5209,-3.5193,-3.5133,-3.4971,-3.476,-3.4343,-3.3775,-3.3554,-3.2787,-3.1591,-3.1411,-3.1346,-3.1299,-3.0681,-3.0392,-3.0411,-3.053,-3.0545,-3.0505,-3.0535,-3.0514,-3.0477,-3.0461,-3.0425,-3.0381,-3.0449,-3.0471,-3.0491,-3.0567,-3.0608,-3.0602,-3.0656,-3.0697,-3.0646,-3.0426,-2.9771,-2.8957,-2.8082,-2.722,-2.6413,-2.5751,-2.5641,-2.5665,-2.5607,-2.5609,-2.5595,-2.5603,-2.5639,-2.5671,-2.5675,-2.5667,-2.5675,-2.5698,-2.5702,-2.5703,-2.5703,-2.5701,-2.5697,-2.5694,-2.5709,-2.5706,-2.5706,-2.5706,-2.5609,-2.5378,-2.4752,-2.4203,-2.3765,-2.3958,-2.3658,-2.2783,-2.3589,-2.3266,-2.1796,-2.1805,-2.1353,-2.0497,-2.0447,-2.0421,-3.5755,-3.4536,-3.348,-3.424,-3.314,-3.2122,-3.3046,0.0,-3.3505,0.0,0.0,0.0,0.0,0.0,0.0,0.0,0.0,0.0,0.0,0.0,0.0,0.0,0.0,0.0,0.0,0.0,0.0,0.0,0.0,0.0,-3.5143,-3.52,-3.5206,-3.5201,-3.5206,-3.4844,-3.4071,-3.3261,-3.2844,-3.2857,-3.2034,-3.1628,-3.1578,-3.0753,-3.0375,-3.0374,-3.0389,-3.0394,-3.041,-3.0483,-3.0504,-3.0499,-3.0439,-3.041,-3.0404,-3.0324,-3.0305,-3.0316,-3.0379,-3.0414,-3.0433,-3.0559,-3.0602,-3.0592,-3.0597,-3.0645,-3.0529,-2.9691,-2.8847,-2.799,-2.7178,-2.6315,-2.5662,-2.5604,-2.5604,-2.5593,-2.56,-2.5598,-2.5591,-2.5591,-2.5602,-2.5609,-2.5611,-2.5607,-2.5621,-2.5692,-2.5703,-2.5693,-2.57,-2.5703,-2.5703,-2.5702,-2.57,-2.5699,-2.5699,-2.5699,-2.5347,-2.4526,-2.4428,-2.3667,-2.2007,-2.2726,-2.2762,-2.1884,-2.2713,-2.2714,-2.1808,-2.1798,-2.1348,-2.0501,-2.0497,-2.0463,-3.5195,-3.4216,-3.3297,-3.297,-3.2015,-3.1365,-3.2228,-3.2437,-3.2688,0.0,0.0,0.0,0.0,0.0,0.0,0.0,0.0,0.0,0.0,0.0,0.0,0.0,0.0,0.0,0.0,0.0,0.0,0.0,0.0,0.0,-3.4281,-3.4859,-3.5208,-3.5206,-3.4707,-3.4028,-3.3158,-3.2909,-3.2491,-3.1969,-3.1684,-3.1289,-3.0753,-3.0433,-3.0299,-3.0292,-3.0322,-3.0334,-3.0348,-3.0406,-3.0442,-3.0419,-3.0419,-3.0359,-3.0324,-3.0318,-3.0273,-3.0253,-3.0305,-3.0003,-2.9583,-2.9674,-2.9342,-2.894,-2.8984,-2.9004,-2.8978,-2.8655,-2.7948,-2.7201,-2.6961,-2.6254,-2.5601,-2.5601,-2.5593,-2.559,-2.5604,-2.5601,-2.5599,-2.5599,-2.5609,-2.5598,-2.5598,-2.56,-2.5619,-2.5623,-2.5639,-2.5653,-2.5683,-2.571,-2.5696,-2.57,-2.5192,-2.4861,-2.4862,-2.4354,-2.3904,-2.3591,-2.3043,-2.2457,-2.1832,-2.2107,-2.2129,-2.1816,-2.2654,-2.2663,-2.1792,-2.1805,-2.1354,-2.0494,-2.0499,-2.0492,-3.4376,-3.3596,-3.2815,-3.2191,-3.139,-3.089,-3.1468,0.0,-3.1846,0.0,0.0,0.0,0.0,0.0,0.0,0.0,0.0,0.0,0.0,0.0,0.0,0.0,0.0,0.0,0.0,0.0,0.0,0.0,0.0,0.0,-3.3773,-3.4681,-3.503,-3.4761,-3.3982,-3.3131,-3.2233,-3.2,-3.1609,-3.1028,-3.1075,-3.0802,-3.0279,-3.0279,-3.0279,-3.0279,-3.0286,-3.0298,-3.031,-3.0377,-3.0402,-3.0404,-3.0383,-3.0348,-3.0305,-3.026,-3.0253,-3.0195,-2.9947,-2.9531,-2.906,-2.8839,-2.8415,-2.8014,-2.8057,-2.8074,-2.8047,-2.7745,-2.7255,-2.676,-2.6524,-2.6028,-2.5585,-2.5573,-2.5567,-2.5567,-2.5567,-2.5573,-2.5601,-2.5601,-2.5607,-2.5593,-2.5593,-2.5593,-2.5608,-2.5591,-2.5604,-2.5621,-2.5697,-2.5704,-2.5595,-2.5295,-2.4748,-2.4279,-2.399,-2.3421,-2.2989,-2.2671,-2.2122,-2.1671,-2.1376,-2.1363,-2.1351,-2.1359,-2.193,-2.1934,-2.136,-2.1661,-2.1357,-2.049,-2.0504,-2.0497,0.0,0.0,0.0,-3.2075,-3.1425,0.0,-3.08,0.0,-3.104,0.0,0.0,0.0,0.0,0.0,0.0,0.0,0.0,0.0,0.0,0.0,0.0,0.0,0.0,0.0,0.0,0.0,0.0,0.0,0.0,-3.2765,-3.371,-3.459,-3.4691,-3.3884,-3.3077,-3.2214,-3.1271,-3.0498,-3.0101,-3.0101,-3.0101,-3.015,-3.0211,-3.0211,-3.0211,-3.0192,-3.026,-3.0292,-3.031,-3.0373,-3.0404,-3.0398,-3.0336,-3.0304,-3.0298,-3.0221,-3.0241,-3.0139,-2.9308,-2.9,-2.889,-2.8125,-2.7894,-2.7936,-2.7924,-2.7965,-2.7846,-2.6997,-2.6757,-2.6581,-2.5806,-2.5596,-2.5586,-2.5526,-2.5494,-2.5492,-2.5492,-2.5557,-2.5598,-2.5601,-2.5601,-2.5601,-2.5601,-2.5601,-2.5604,-2.5599,-2.5601,-2.5617,-2.5693,-2.5697,-2.5354,-2.4495,-2.4379,-2.4009,-2.3132,-2.3032,-2.2657,-2.1816,-2.1768,-2.139,-2.0522,-2.0492,-2.0494,-2.0503,-2.0506,-2.0504,-2.0495,-2.1347,-2.1337,-2.0509,-2.0508,-2.0499,-3.2635,0.0,0.0,0.0,0.0,0.0,0.0,0.0,0.0,0.0,0.0,0.0,0.0,0.0,0.0,0.0,0.0,0.0,0.0,0.0,0.0,0.0,0.0,0.0,0.0,0.0,0.0,0.0,-3.1052,-3.1895,-3.2746,-3.3672,-3.3792,-3.2986,-3.2137,-3.1272,-3.043,-3.0217,-3.0098,-3.0101,-3.0101,-3.015,-3.0211,-3.0211,-3.0199,-3.02,-3.0221,-3.0266,-3.0311,-3.0323,-3.0336,-3.0336,-3.031,-3.0304,-3.0304,-3.0286,-2.9896,-2.9327,-2.9147,-2.8286,-2.7262,-2.7094,-2.6648,-2.6195,-2.6184,-2.6192,-2.618,-2.5921,-2.5851,-2.5804,-2.5592,-2.554,-2.5515,-2.5499,-2.5453,-2.543,-2.543,-2.5479,-2.5534,-2.5592,-2.5601,-2.5601,-2.5601,-2.5601,-2.5601,-2.5604,-2.5607,-2.5618,-2.5634,-2.5637,-2.5314,-2.4496,-2.3837,-2.3116,-2.2239,-2.157,-2.1114,-2.0871,-2.0854,-2.072,-2.0439,-2.0422,-2.0428,-2.0433,-2.0474,-2.0494,-2.0492,-2.0739,-2.0742,-2.0504,-2.0501,-2.0534,-3.1738,-3.1601,-3.1481,0.0,0.0,0.0,-3.0836,-3.0837,0.0,0.0,0.0,0.0,0.0,0.0,0.0,0.0,0.0,0.0,0.0,0.0,0.0,0.0,0.0,0.0,0.0,0.0,0.0,0.0,-3.0711,-3.1553,-3.2395,-3.2952,-3.29,-3.2067,-3.1561,-3.0906,-3.0072,-3.0072,-3.0068,-3.0106,-3.0106,-3.0135,-3.0211,-3.0211,-3.0199,-3.0194,-3.0207,-3.0221,-3.0253,-3.0286,-3.0292,-3.0304,-3.0304,-3.0316,-3.0303,-2.9926,-2.9472,-2.8948,-2.8244,-2.7404,-2.6579,-2.6255,-2.5861,-2.5507,-2.5507,-2.5484,-2.546,-2.5453,-2.5453,-2.5453,-2.5457,-2.546,-2.5459,-2.5425,-2.5397,-2.5354,-2.5354,-2.5385,-2.5434,-2.5538,-2.5557,-2.5564,-2.5564,-2.5586,-2.5592,-2.5592,-2.5595,-2.561,-2.5595,-2.5289,-2.4752,-2.3932,-2.3077,-2.2201,-2.1324,-2.079,-2.0506,-2.0493,-2.0475,-2.0434,-2.0408,-2.0408,-2.0391,-2.0358,-2.0415,-2.0463,-2.0499,-2.0504,-2.0502,-2.0507,-2.0507,-2.0525,-3.0874,-3.0897,-3.0898,0.0,0.0,0.0,-3.091,-3.0908,-3.0867,0.0,0.0,0.0,0.0,0.0,0.0,0.0,0.0,0.0,0.0,0.0,0.0,0.0,0.0,0.0,0.0,0.0,-2.998,-2.9924,-3.072,-3.1533,-3.2307,-3.2345,-3.2028,-3.1309,-3.1194,-3.0779,-2.9999,-2.9999,-3.003,-3.0095,-3.0095,-3.014,-3.0211,-3.0089,-3.0051,-3.0058,-2.9964,-2.9964,-3.0058,-3.0119,-3.0209,-3.0304,-3.0304,-3.0342,-3.0283,-2.9413,-2.9041,-2.8736,-2.7083,-2.6534,-2.6428,-2.5657,-2.5432,-2.5484,-2.548,-2.5444,-2.5389,-2.5385,-2.538,-2.5376,-2.5374,-2.5379,-2.5351,-2.5297,-2.5273,-2.5283,-2.5283,-2.5274,-2.5321,-2.5437,-2.5483,-2.5485,-2.5485,-2.5541,-2.5593,-2.5593,-2.5586,-2.5582,-2.5596,-2.4824,-2.3996,-2.319,-2.2315,-2.1437,-2.056,-2.0491,-2.0497,-2.0483,-2.0432,-2.0388,-2.0399,-2.0392,-2.0366,-2.0302,-2.0373,-2.0438,-2.0482,-2.0506,-2.0496,-2.0494,-2.0505,-2.0507,0.0,0.0,0.0,0.0,0.0,0.0,-3.0894,-3.0891,-3.0693,0.0,0.0,0.0,0.0,0.0,0.0,0.0,0.0,0.0,0.0,0.0,0.0,0.0,0.0,0.0,0.0,0.0,-3.0049,-2.9999,-3.0736,-3.1252,-3.1367,-3.1367,-3.13,-3.1138,-3.0513,-3.0086,-2.9924,-2.9932,-2.9972,-3.0095,-3.0095,-3.014,-3.0192,-2.9471,-2.9147,-2.9127,-2.8466,-2.8561,-2.9147,-2.9179,-2.9627,-3.0305,-3.0298,-3.0342,-3.0288,-2.9423,-2.8698,-2.7986,-2.6937,-2.6174,-2.5634,-2.5461,-2.5402,-2.5419,-2.5421,-2.5374,-2.5303,-2.5244,-2.5234,-2.5229,-2.5238,-2.5247,-2.5225,-2.5143,-2.5134,-2.5136,-2.5136,-2.5145,-2.5165,-2.5247,-2.5345,-2.5422,-2.5422,-2.5488,-2.5529,-2.5529,-2.5511,-2.5512,-2.5525,-2.4813,-2.3967,-2.3103,-2.2234,-2.1376,-2.0488,-2.0415,-2.0418,-2.0421,-2.0366,-2.0318,-2.0327,-2.0311,-2.0319,-2.0295,-2.0379,-2.0404,-2.0426,-2.0467,-2.0498,-2.0493,-2.0498,-2.0504,0.0,0.0,0.0,-3.0897,0.0,0.0,0.0,-3.0249,-2.9993,0.0,0.0,0.0,0.0,0.0,0.0,0.0,0.0,0.0,0.0,0.0,0.0,0.0,0.0,0.0,0.0,0.0,-3.0138,-3.0014,-3.0349,-3.0545,-3.049,-3.0464,-3.0447,-3.0447,-3.0095,-2.9893,-2.991,-2.951,-2.9349,-2.9459,-2.9041,-2.8893,-2.8943,-2.8497,-2.8306,-2.8287,-2.7886,-2.7924,-2.8306,-2.8307,-2.8587,-2.9085,-2.996,-3.008,-2.966,-2.8819,-2.7972,-2.7121,-2.625,-2.5683,-2.5351,-2.5351,-2.5351,-2.5346,-2.5303,-2.5228,-2.5132,-2.5111,-2.5099,-2.5099,-2.5099,-2.5075,-2.5044,-2.5019,-2.498,-2.4954,-2.4993,-2.4993,-2.5019,-2.505,-2.5121,-2.5214,-2.5284,-2.5369,-2.54,-2.54,-2.5433,-2.5441,-2.5449,-2.433,-2.3388,-2.2946,-2.1752,-2.0819,-2.0382,-2.0344,-2.0344,-2.0304,-2.0272,-2.0246,-2.02,-2.0199,-2.0214,-2.0257,-2.0318,-2.036,-2.035,-2.0421,-2.0461,-2.0449,-2.0476,-2.0503,0.0,0.0,0.0,0.0,0.0,-3.0468,0.0,0.0,0.0,0.0,0.0,0.0,0.0,0.0,0.0,0.0,0.0,0.0,0.0,0.0,0.0,0.0,0.0,0.0,0.0,0.0,-3.0041,-3.0026,-2.9959,-2.9912,-2.9887,-2.9825,-2.978,-2.9771,-2.9842,-2.982,-2.9658,-2.9028,-2.8666,-2.8558,-2.7911,-2.7648,-2.7701,-2.7529,-2.7453,-2.7434,-2.7275,-2.7287,-2.7447,-2.7434,-2.7523,-2.7822,-2.9257,-2.9422,-2.8744,-2.7937,-2.7182,-2.6451,-2.5581,-2.5288,-2.5283,-2.5278,-2.5252,-2.5209,-2.5126,-2.5037,-2.4935,-2.4921,-2.4914,-2.4933,-2.494,-2.49,-2.4872,-2.4849,-2.4801,-2.4794,-2.4834,-2.4842,-2.4863,-2.4879,-2.4914,-2.5006,-2.5145,-2.5212,-2.5268,-2.5268,-2.5317,-2.5351,-2.5351,-2.3978,-2.2934,-2.2784,-2.1398,-2.0412,-2.025,-2.0235,-2.0211,-2.0144,-2.0146,-2.012,-2.0055,-2.0055,-2.0093,-2.0167,-2.0226,-2.0269,-2.028,-2.0346,-2.0372,-2.041,-2.0466,-2.0475,0.0,0.0,0.0,0.0,-3.0312,0.0,0.0,0.0,-2.8199,-2.732,0.0,0.0,0.0,0.0,0.0,0.0,0.0,0.0,0.0,0.0,0.0,0.0,0.0,0.0,0.0,0.0,0.0,-3.0037,-3.0038,-2.9943,-2.9816,-2.9808,-2.9771,-2.9717,-2.9771,-2.9475,-2.8742,-2.8717,-2.8381,-2.774,-2.7645,-2.7648,-2.7663,-2.6899,-2.6555,-2.6498,-2.5735,-2.5825,-2.6537,-2.6479,-2.6905,-2.7637,-2.7955,-2.8036,-2.7831,-2.6973,-2.659,-2.6398,-2.551,-2.5206,-2.5204,-2.5138,-2.505,-2.4929,-2.4799,-2.4746,-2.4719,-2.4654,-2.4647,-2.4654,-2.473,-2.4738,-2.4715,-2.4645,-2.4663,-2.4698,-2.4647,-2.4671,-2.4737,-2.4806,-2.4828,-2.4861,-2.4999,-2.5075,-2.5112,-2.5112,-2.5134,-2.5124,-2.5124,-2.4279,-2.3414,-2.2703,-2.1761,-2.0862,-2.0103,-2.0036,-2.0011,-1.9931,-1.9934,-1.9923,-1.9912,-1.9928,-1.9941,-2.0021,-2.0088,-2.0152,-2.0204,-2.0227,-2.0283,-2.0393,-2.0416,-2.0408,0.0,0.0,0.0,0.0,0.0,0.0,-2.832,0.0,-2.7303,0.0,0.0,0.0,0.0,0.0,0.0,0.0,0.0,0.0,0.0,0.0,0.0,0.0,0.0,0.0,0.0,0.0,0.0,0.0,0.0,-2.8734,-2.9134,-2.9081,-2.9264,-2.9744,-2.9319,-2.8938,-2.8609,-2.7744,-2.7158,-2.6845,-2.6371,-2.6181,-2.6236,-2.583,-2.5646,-2.5627,-2.5266,-2.5311,-2.5641,-2.5622,-2.5812,-2.6155,-2.62,-2.6548,-2.6942,-2.6584,-2.6125,-2.5646,-2.5264,-2.5115,-2.5069,-2.4955,-2.4854,-2.4772,-2.4673,-2.4613,-2.4582,-2.4547,-2.4513,-2.4497,-2.451,-2.4539,-2.4524,-2.449,-2.4472,-2.4472,-2.4472,-2.4542,-2.4593,-2.4613,-2.4663,-2.4703,-2.4753,-2.4891,-2.498,-2.498,-2.4968,-2.4975,-2.4975,-2.4252,-2.3619,-2.3264,-2.2011,-2.1045,-2.0662,-2.0161,-1.9868,-1.9834,-1.9848,-1.983,-1.983,-1.9836,-1.9866,-1.9879,-1.9958,-1.9991,-2.0036,-2.0107,-2.0165,-2.0227,-2.0306,-2.0334,-3.0801,0.0,0.0,0.0,0.0,0.0,0.0,0.0,0.0,0.0,0.0,0.0,0.0,0.0,0.0,0.0,0.0,0.0,0.0,0.0,0.0,0.0,0.0,0.0,0.0,0.0,0.0,0.0,-2.7657,0.0,-2.8362,-2.8504,-2.8846,-2.9458,-2.8892,-2.8493,-2.8269,-2.6937,-2.6158,-2.5951,-2.5361,-2.5107,-2.5174,-2.5113,-2.5095,-2.5095,-2.507,-2.5076,-2.5076,-2.5031,-2.5024,-2.5024,-2.5024,-2.5399,-2.5965,-2.599,-2.5596,-2.5056,-2.5056,-2.5,-2.4927,-2.4787,-2.4707,-2.4637,-2.4574,-2.4507,-2.4474,-2.4456,-2.4402,-2.4375,-2.4364,-2.4375,-2.4376,-2.4348,-2.433,-2.4303,-2.4358,-2.443,-2.4472,-2.4495,-2.4547,-2.4572,-2.4607,-2.4742,-2.4846,-2.4846,-2.4856,-2.484,-2.484,-2.4341,-2.39,-2.3673,-2.2507,-2.1632,-2.14,-2.0577,-1.9982,-1.9763,-1.9745,-1.9744,-1.9744,-1.9757,-1.9757,-1.9776,-1.9823,-1.9851,-1.9909,-2.0003,-2.0049,-2.0074,-2.0205,-2.0265,0.0,0.0,0.0,-2.96,0.0,0.0,0.0,0.0,-2.5732,0.0,0.0,0.0,0.0,0.0,-2.5699,-2.5699,0.0,0.0,0.0,0.0,0.0,0.0,0.0,0.0,0.0,0.0,0.0,-2.7851,-2.7824,0.0,-2.7636,-2.8312,-2.8684,-2.8642,-2.862,-2.8231,-2.7456,-2.6612,-2.5834,-2.5139,-2.505,-2.5051,-2.5107,-2.5095,-2.5101,-2.5101,-2.5037,-2.501,-2.4984,-2.4856,-2.4801,-2.4801,-2.4801,-2.482,-2.4879,-2.4998,-2.4999,-2.4908,-2.4908,-2.4851,-2.4772,-2.4655,-2.4564,-2.4486,-2.442,-2.4403,-2.4394,-2.4312,-2.4294,-2.4294,-2.4294,-2.4294,-2.4284,-2.422,-2.4257,-2.4294,-2.4294,-2.4348,-2.442,-2.4486,-2.4503,-2.452,-2.4599,-2.4666,-2.4717,-2.4717,-2.4711,-2.4707,-2.4707,-2.467,-2.4377,-2.3596,-2.3394,-2.2974,-2.2133,-2.1275,-2.0431,-1.9653,-1.9615,-1.9615,-1.9615,-1.9613,-1.9635,-1.9699,-1.9719,-1.9763,-1.9896,-1.9896,-1.9943,-2.0018,-2.0145,-2.021,0.0,0.0,-2.9374,-2.8813,0.0,0.0,0.0,0.0,0.0,0.0,0.0,0.0,0.0,0.0,-2.563,-2.563,-2.56,-2.5615,0.0,0.0,0.0,0.0,0.0,0.0,0.0,0.0,0.0,-2.63,-2.6249,-2.6404,0.0,-2.7567,-2.822,-2.8719,-2.8692,-2.8271,-2.7464,-2.6667,-2.5841,-2.5031,-2.5057,-2.5076,-2.5095,-2.5044,-2.5031,-2.5025,-2.5004,-2.4971,-2.4931,-2.4877,-2.4849,-2.4794,-2.4794,-2.4798,-2.4809,-2.4856,-2.4851,-2.4837,-2.4834,-2.4787,-2.4714,-2.4631,-2.4555,-2.4495,-2.4479,-2.4471,-2.4462,-2.4437,-2.4393,-2.4348,-2.4303,-2.4294,-2.4284,-2.4275,-2.4257,-2.4229,-2.4229,-2.4257,-2.4257,-2.4302,-2.4302,-2.4321,-2.4384,-2.4429,-2.449,-2.4666,-2.4698,-2.4695,-2.47,-2.47,-2.4598,-2.432,-2.3757,-2.3227,-2.2858,-2.2036,-2.1406,-2.1132,-2.1113,-2.1113,-2.1113,-2.06,-2.0333,-2.0363,-1.9885,-1.9935,-2.0563,-2.0064,-2.0427,-2.1501,-2.1018,-2.0842,-3.0764,-3.0138,0.0,-2.8379,-2.7569,0.0,-2.5859,0.0,0.0,0.0,0.0,0.0,0.0,0.0,-2.5608,-2.5598,-2.5602,-2.5613,0.0,-2.5702,0.0,0.0,0.0,0.0,0.0,0.0,-2.5615,-2.5535,-2.5462,-2.5633,0.0,0.0,-2.7453,-2.7961,-2.793,-2.7621,-2.7089,-2.6279,-2.5576,-2.4993,-2.5012,-2.5031,-2.5031,-2.4972,-2.494,-2.4953,-2.4938,-2.4903,-2.4863,-2.4856,-2.482,-2.4757,-2.4757,-2.4761,-2.4764,-2.4783,-2.4783,-2.4749,-2.4757,-2.4722,-2.4658,-2.4599,-2.4547,-2.4503,-2.4503,-2.4512,-2.453,-2.4517,-2.4474,-2.4402,-2.4312,-2.4294,-2.4284,-2.4275,-2.422,-2.4201,-2.4201,-2.4201,-2.4201,-2.4201,-2.4182,-2.4182,-2.421,-2.4201,-2.4275,-2.4551,-2.4617,-2.4631,-2.4637,-2.4653,-2.4663,-2.4623,-2.4124,-2.3611,-2.3179,-2.2587,-2.213,-2.1854,-2.1835,-2.1835,-2.1835,-2.1344,-2.0963,-2.0665,-2.0219,-2.0284,-2.0851,-2.0092,-2.0594,-2.2203,-2.1116,-2.113]},{"header":{"parameterUnit":"m.s-1","parameterCategory":1,"la1":30.6,"la2":29.2853,"lo1":-89.7004,"lo2":-87.6739,"dy":0.0162,"dx":0.0183,"nx":112,"ny":82,"refTime":"2023-07-19T06:00:00:Z","depth":0,"parameterNumber":3,"parameterNumberName":"V-component_of_WINDS"},"data":[0.0,0.0,0.0,0.0,0.0,0.0,0.0,0.0,0.0,0.0,0.0,0.0,0.0,0.0,0.0,0.0,0.0,0.0,0.0,0.0,0.0,0.0,0.0,0.0,0.0,0.0,0.0,0.0,0.0,0.0,0.0,0.0,0.0,0.0,0.0,0.0,0.0,0.0,0.0,0.0,0.0,0.0,0.0,0.0,0.0,0.0,0.0,0.0,0.0,0.0,0.0,0.0,0.0,0.0,0.0,0.0,0.0,0.0,0.0,0.0,0.0,0.0,0.0,0.0,0.0,0.0,0.0,0.0,0.0,0.0,0.0,0.0,0.0,0.0,0.0,0.0,0.0,0.0,0.0,0.0,0.0,0.0,0.0,0.0,0.0,0.0,0.0,0.0,0.0,0.0,-0.9756,-1.084,-1.2319,-1.3457,-1.3942,-1.3483,-1.2757,-1.1838,0.0,0.0,0.0,0.0,0.0,0.0,0.0,0.0,0.0,0.0,0.0,0.0,0.0,0.0,0.0,0.0,0.0,0.0,0.0,0.0,0.0,0.0,0.0,0.0,0.0,0.0,0.0,0.0,0.0,0.0,0.0,0.0,0.0,0.0,0.0,0.0,0.0,0.0,0.0,0.0,0.0,0.0,0.0,0.0,0.0,0.0,0.0,0.0,0.0,0.0,0.0,0.0,0.0,0.0,0.0,0.0,0.0,0.0,0.0,0.0,0.0,0.0,0.0,0.0,0.0,0.0,0.0,0.0,0.0,0.0,0.0,0.0,0.0,0.0,0.0,0.0,0.0,0.0,0.0,0.0,0.0,0.0,0.0,0.0,0.0,0.0,0.0,0.0,0.0,0.0,0.0,0.0,0.0,0.0,0.0,0.0,0.0,0.0,0.0,0.0,0.0,0.0,0.0,0.0,-1.0146,-1.1967,-1.2924,-1.3667,-1.4195,-1.3755,-1.3109,-1.2265,0.0,0.0,0.0,0.0,0.0,0.0,0.0,0.0,0.0,0.0,0.0,0.0,0.0,0.0,0.0,0.0,0.0,0.0,0.0,0.0,0.0,0.0,0.0,0.0,0.0,0.0,0.0,0.0,0.0,0.0,0.0,0.0,0.0,0.0,0.0,0.0,0.0,0.0,0.0,0.0,0.0,0.0,0.0,0.0,0.0,0.0,0.0,0.0,0.0,0.0,0.0,0.0,0.0,0.0,0.0,0.0,0.0,0.0,0.0,0.0,0.0,0.0,0.0,0.0,0.0,0.0,0.0,0.0,0.0,0.0,0.0,0.0,0.0,0.0,0.0,0.0,0.0,0.0,0.0,0.0,0.0,0.0,0.0,0.0,0.0,0.0,0.0,0.0,0.0,0.0,0.0,0.0,0.0,0.0,0.0,0.0,0.0,0.0,0.0,0.0,0.0,0.0,0.0,-1.0305,-1.1172,-1.2635,-1.3195,-1.3725,-1.425,-1.3815,-1.3109,-1.2161,-1.0797,0.0,0.0,0.0,0.0,0.0,0.0,0.0,0.0,0.0,0.0,0.0,0.0,0.0,0.0,0.0,0.0,0.0,0.0,0.0,0.0,0.0,0.0,0.0,0.0,0.0,0.0,0.0,0.0,0.0,0.0,0.0,0.0,0.0,0.0,0.0,0.0,0.0,0.0,0.0,0.0,0.0,0.0,0.0,0.0,0.0,0.0,0.0,0.0,0.0,0.0,0.0,0.0,0.0,0.0,0.0,0.0,0.0,0.0,0.0,0.0,0.0,0.0,0.0,0.0,0.0,0.0,0.0,0.0,0.0,0.0,0.0,0.0,0.0,0.0,0.0,0.0,0.0,0.0,0.0,0.0,0.0,0.0,0.0,0.0,0.0,0.0,0.0,0.0,0.0,0.0,0.0,0.0,0.0,0.0,0.0,0.0,0.0,0.0,0.0,0.0,0.0,0.0,-1.1198,-1.2128,-1.299,-1.341,-1.3722,-1.4081,-1.3749,-1.3037,-1.1862,-1.0851,0.0,0.0,0.0,0.0,0.0,0.0,0.0,0.0,0.0,0.0,0.0,0.0,0.0,0.0,0.0,0.0,0.0,0.0,0.0,0.0,0.0,0.0,0.0,0.0,0.0,0.0,0.0,0.0,0.0,0.0,0.0,0.0,0.0,0.0,0.0,0.0,0.0,0.0,0.0,0.0,0.0,0.0,0.0,0.0,0.0,0.0,0.0,0.0,0.0,0.0,0.0,0.0,0.0,0.0,0.0,0.0,0.0,0.0,0.0,0.0,0.0,0.0,0.0,0.0,0.0,0.0,0.0,0.0,0.0,0.0,0.0,0.0,0.0,0.0,0.0,0.0,0.0,0.0,0.0,0.0,0.0,0.0,0.0,0.0,0.0,0.0,0.0,0.0,0.0,0.0,0.0,0.0,0.0,0.0,0.0,0.0,0.0,0.0,0.0,0.0,0.0,0.0,-1.166,-1.2463,-1.3027,-1.3566,-1.381,-1.3568,-1.3538,-1.2958,-1.1603,-1.0749,0.0,0.0,0.0,0.0,0.0,0.0,0.0,0.0,0.0,0.0,0.0,0.0,0.0,0.0,0.0,0.0,0.0,0.0,0.0,0.0,0.0,0.0,0.0,0.0,0.0,0.0,0.0,0.0,0.0,0.0,0.0,0.0,0.0,0.0,0.0,0.0,0.0,0.0,0.0,0.0,0.0,0.0,0.0,0.0,0.0,0.0,0.0,0.0,0.0,0.0,0.0,0.0,0.0,0.0,0.0,0.0,0.0,0.0,0.0,0.0,0.0,0.0,0.0,0.0,0.0,0.0,0.0,0.0,0.0,0.0,0.0,0.0,0.0,0.0,0.0,0.0,0.0,0.0,0.0,0.0,0.0,0.0,0.0,0.0,0.0,0.0,0.0,0.0,0.0,0.0,0.0,0.0,0.0,0.0,0.0,0.0,0.0,0.0,0.0,0.0,0.0,0.0,-1.1893,-1.2566,0.0,-1.3536,-1.3601,-1.3501,-1.3206,-1.2584,-1.1555,0.0,0.0,0.0,0.0,0.0,0.0,0.0,0.0,0.0,0.0,0.0,0.0,0.0,0.0,0.0,0.0,0.0,0.0,0.0,0.0,0.0,0.0,0.0,0.0,0.0,0.0,0.0,0.0,0.0,0.0,0.0,0.0,0.0,0.0,0.0,0.0,0.0,0.0,0.0,0.0,0.0,0.0,0.0,0.0,0.0,0.0,0.0,0.0,0.0,0.0,0.0,0.0,0.0,0.0,0.0,0.0,0.0,0.0,0.0,0.0,0.0,0.0,0.0,0.0,0.0,0.0,0.0,0.0,0.0,0.0,0.0,0.0,0.0,0.0,0.0,0.0,0.0,0.0,0.0,0.0,0.0,0.0,0.0,0.0,0.0,0.0,0.0,0.0,0.0,0.0,0.0,0.0,0.0,0.0,0.0,0.0,0.0,0.0,0.0,0.0,0.0,0.0,-1.1644,-1.2168,-1.2694,0.0,-1.358,-1.3542,-1.3387,-1.3044,-1.2463,-1.1549,0.0,0.0,0.0,0.0,0.0,0.0,0.0,0.0,0.0,0.0,0.0,0.0,0.0,0.0,0.0,0.0,0.0,0.0,0.0,0.0,0.0,0.0,0.0,0.0,0.0,0.0,0.0,0.0,0.0,0.0,0.0,0.0,0.0,0.0,0.0,0.0,0.0,0.0,0.0,0.0,0.0,0.0,0.0,0.0,0.0,0.0,0.0,0.0,0.0,0.0,0.0,0.0,0.0,0.0,0.0,0.0,0.0,0.0,0.0,0.0,0.0,0.0,0.0,0.0,0.0,0.0,0.0,0.0,0.0,0.0,0.0,0.0,0.0,0.0,0.0,0.0,0.0,0.0,0.0,0.0,0.0,0.0,0.0,0.0,0.0,0.0,0.0,0.0,0.0,0.0,0.0,0.0,0.0,0.0,0.0,0.0,0.0,0.0,0.0,0.0,0.0,0.0,-1.2064,-1.2452,-1.2862,-1.3636,-1.3769,-1.3604,-1.3119,-1.3089,-1.262,0.0,0.0,0.0,0.0,0.0,0.0,0.0,0.0,0.0,0.0,0.0,0.0,0.0,0.0,0.0,0.0,0.0,0.0,0.0,0.0,0.0,0.0,0.0,0.0,0.0,0.0,0.0,0.0,0.0,0.0,0.0,0.0,0.0,0.0,0.0,0.0,0.0,0.0,0.0,0.0,0.0,0.0,0.0,0.0,0.0,0.0,0.0,0.0,0.0,0.0,0.0,0.0,0.0,0.0,0.0,0.0,0.0,0.0,0.0,0.0,0.0,0.0,0.0,0.0,0.0,0.0,0.0,0.0,0.0,0.0,0.0,0.0,0.0,0.0,0.0,0.0,0.0,0.0,0.0,0.0,0.0,0.0,0.0,0.0,0.0,0.0,0.0,0.0,0.0,0.0,0.0,0.0,0.0,0.0,0.0,0.0,0.0,0.0,0.0,0.0,0.0,0.0,0.0,-1.1792,-1.2365,-1.2862,-1.3636,-1.3596,-1.3395,-1.31,-1.2741,-1.2258,-1.1537,0.0,0.0,0.0,0.0,0.0,0.0,0.0,0.0,0.0,0.0,0.0,0.0,0.0,0.0,0.0,0.0,0.0,0.0,0.0,0.0,0.0,0.0,0.0,0.0,0.0,0.0,0.0,0.0,0.0,0.0,0.0,0.0,0.0,0.0,0.0,0.0,0.0,0.0,0.0,0.0,0.0,0.0,0.0,0.0,0.0,0.0,0.0,0.0,0.0,0.0,0.0,0.0,0.0,0.0,0.0,0.0,0.0,0.0,0.0,0.0,0.0,0.0,0.0,0.0,0.0,0.0,0.0,0.0,0.0,0.0,0.0,0.0,0.0,0.0,0.0,0.0,0.0,0.0,0.0,0.0,0.0,0.0,0.0,0.0,0.0,0.0,0.0,0.0,0.0,0.0,0.0,0.0,0.0,0.0,0.0,0.0,0.0,0.0,0.0,0.0,0.0,0.0,-1.1713,-1.2308,-1.2902,-1.3762,-1.3568,-1.3355,-1.3228,-1.2728,-1.2288,-1.1832,0.0,0.0,0.0,0.0,0.0,0.0,0.0,0.0,0.0,0.0,0.0,0.0,0.0,0.0,0.0,0.0,0.0,0.0,0.0,0.0,0.0,0.0,0.0,0.0,0.0,0.0,0.0,0.0,0.0,0.0,0.0,0.0,0.0,0.0,0.0,0.0,0.0,0.0,0.0,0.0,0.0,0.0,0.0,0.0,0.0,0.0,0.0,0.0,0.0,0.0,0.0,0.0,0.0,0.0,0.0,0.0,0.0,0.0,0.0,0.0,0.0,0.0,0.0,0.0,0.0,0.0,0.0,0.0,0.0,0.0,0.0,0.0,0.0,0.0,0.0,0.0,0.0,0.0,0.0,0.0,0.0,0.0,0.0,0.0,0.0,0.0,0.0,0.0,0.0,0.0,0.0,0.0,0.0,0.0,0.0,0.0,0.0,0.0,0.0,0.0,0.0,0.0,-1.1644,-1.2296,-1.299,-1.3979,-1.3695,-1.3398,-1.3398,-1.296,-1.2596,-1.233,0.0,0.0,0.0,0.0,0.0,0.0,0.0,0.0,0.0,0.0,0.0,0.0,0.0,0.0,0.0,0.0,0.0,0.0,0.0,0.0,0.0,0.0,0.0,0.0,0.0,0.0,0.0,0.0,0.0,0.0,0.0,0.0,0.0,0.0,0.0,0.0,0.0,0.0,0.0,0.0,0.0,0.0,0.0,0.0,0.0,0.0,0.0,0.0,0.0,0.0,0.0,0.0,0.0,0.0,0.0,0.0,0.0,0.0,0.0,0.0,-0.4741,0.0,0.0,0.0,0.0,0.0,0.0,0.0,0.0,0.0,0.0,0.0,0.0,0.0,0.0,0.0,0.0,0.0,0.0,0.0,0.0,0.0,0.0,0.0,0.0,0.0,0.0,0.0,0.0,0.0,0.0,0.0,0.0,0.0,0.0,0.0,0.0,0.0,0.0,0.0,0.0,0.0,-1.1248,-1.2098,-1.299,-1.3979,-1.3695,-1.3398,-1.3398,-1.296,-1.2596,-1.233,-1.197,0.0,0.0,0.0,0.0,0.0,0.0,0.0,0.0,0.0,0.0,0.0,0.0,0.0,0.0,0.0,0.0,0.0,0.0,0.0,0.0,0.0,0.0,0.0,0.0,0.0,0.0,0.0,0.0,0.0,0.0,0.0,0.0,0.0,0.0,0.0,0.0,0.0,0.0,0.0,0.0,0.0,0.0,0.0,0.0,0.0,0.0,0.0,0.0,0.0,0.0,0.0,0.0,0.0,0.0,0.0,0.0,0.0,0.0,0.0,0.0,-0.4778,0.0,0.0,0.0,0.0,0.0,0.0,0.0,0.0,0.0,0.0,0.0,0.0,0.0,0.0,0.0,0.0,0.0,0.0,0.0,0.0,0.0,0.0,0.0,0.0,0.0,0.0,0.0,0.0,0.0,0.0,0.0,0.0,0.0,0.0,0.0,0.0,0.0,0.0,0.0,0.0,-1.1113,-1.1986,-1.2787,-1.3685,-1.344,-1.327,-1.327,-1.2918,-1.2644,-1.2506,-1.2381,0.0,0.0,0.0,0.0,0.0,0.0,0.0,0.0,0.0,0.0,0.0,0.0,0.0,0.0,0.0,0.0,0.0,0.0,0.0,0.0,0.0,0.0,0.0,0.0,0.0,0.0,0.0,0.0,0.0,0.0,0.0,0.0,0.0,0.0,0.0,0.0,0.0,0.0,0.0,0.0,0.0,0.0,0.0,0.0,0.0,0.0,0.0,0.0,0.0,0.0,0.0,0.0,0.0,-0.361,-0.3783,-0.374,-0.4081,-0.421,-0.4207,-0.4491,-0.4486,-0.4397,0.0,0.0,0.0,0.0,0.0,0.0,0.0,0.0,0.0,0.0,0.0,0.0,0.0,0.0,0.0,0.0,0.0,0.0,0.0,0.0,0.0,0.0,0.0,0.0,0.0,-0.819,-0.8718,0.0,0.0,0.0,0.0,0.0,0.0,0.0,0.0,0.0,0.0,0.0,0.0,-1.1145,-1.1918,-1.2635,-1.3341,-1.3222,-1.3094,-1.3094,-1.2833,-1.2705,-1.2705,-1.2715,-1.2781,0.0,0.0,0.0,0.0,0.0,0.0,0.0,0.0,0.0,0.0,0.0,0.0,0.0,0.0,0.0,0.0,0.0,0.0,0.0,0.0,0.0,0.0,0.0,0.0,0.0,0.0,0.0,0.0,0.0,0.0,0.0,0.0,0.6181,0.5604,0.0,0.0,0.0,0.0,0.0,0.0,0.0,0.0,0.0,0.0,0.0,0.0,0.0,0.0,-0.2432,-0.2983,-0.3411,-0.3707,-0.3986,-0.4032,-0.3802,-0.3849,-0.3847,-0.389,-0.4047,0.0,-0.4661,-0.4872,0.0,0.0,0.0,0.0,0.0,0.0,0.0,0.0,0.0,0.0,0.0,0.0,0.0,0.0,0.0,0.0,0.0,0.0,0.0,0.0,0.0,0.0,-0.7744,-0.8072,-0.872,-0.9268,0.0,-0.9757,-1.0155,-1.0349,0.0,0.0,0.0,0.0,0.0,0.0,0.0,0.0,-1.1174,-1.2077,-1.2841,-1.336,-1.3222,-1.3094,-1.3094,-1.2833,-1.2705,-1.2705,-1.2717,-1.2806,-1.2991,-1.2412,0.0,0.0,0.0,0.0,0.0,0.0,0.0,0.0,0.0,0.0,0.0,0.0,0.0,0.0,0.0,0.0,0.0,0.0,0.0,0.0,0.0,0.0,0.0,0.0,0.0,0.0,0.0,0.0,0.0,0.6662,0.6083,0.572,0.5287,0.5026,0.0,0.0,0.0,0.0,0.0,0.0,0.0,0.0,0.0,-0.0731,-0.1315,-0.1976,-0.2828,-0.3184,-0.3543,-0.3815,-0.3908,-0.3908,-0.3815,-0.3815,-0.3815,-0.3813,-0.3871,-0.4047,-0.4337,-0.4624,-0.4617,-0.4515,0.0,0.0,0.0,0.0,0.0,-0.4664,-0.4528,0.0,0.0,0.0,0.0,0.0,0.0,0.0,0.0,0.0,0.0,0.0,0.0,0.0,0.0,-0.8197,-0.871,-0.9234,-0.9855,-1.039,-1.0773,0.0,-1.0625,-1.0323,-0.9938,0.0,0.0,0.0,0.0,-1.0472,-1.1365,-1.2077,-1.2623,-1.2978,-1.2924,-1.2881,-1.2881,-1.279,-1.2705,-1.2705,-1.2833,-1.3038,-1.322,-1.2913,-1.2805,0.0,0.0,0.0,0.0,0.0,0.0,0.0,0.0,0.0,0.0,0.0,0.0,0.0,0.0,0.0,0.0,0.0,0.0,0.0,0.0,0.0,0.0,0.0,0.0,0.0,0.0,0.0,0.0,0.6598,0.613,0.5823,0.5196,0.4788,0.0,0.0,0.0,0.0,0.0,0.0,0.0897,0.0303,-0.0397,-0.123,-0.1786,-0.2376,-0.3119,-0.3329,-0.3533,-0.3728,-0.3728,-0.3728,-0.363,-0.363,-0.363,-0.3628,-0.3706,-0.3798,-0.3992,-0.4344,-0.4426,-0.4393,-0.4697,-0.4815,-0.4854,-0.4844,-0.4894,-0.4958,-0.4906,-0.4896,-0.4985,-0.5078,0.0,-0.5105,-0.5179,0.0,0.0,0.0,0.0,-0.6369,-0.6612,0.0,-0.7712,-0.8099,-0.8482,-0.8944,-0.9783,-1.0381,-1.0925,0.0,-1.1217,-1.106,-1.0573,0.0,0.0,0.0,0.0,-1.0917,-1.16,-1.2129,-1.2487,-1.2687,-1.2705,-1.2705,-1.2705,-1.2705,-1.2705,-1.2705,-1.2875,-1.3094,-1.3307,-1.3185,-1.304,-1.297,0.0,0.0,0.0,0.0,0.0,0.0,0.0,0.0,0.0,0.0,0.0,0.0,0.0,0.0,0.0,0.0,0.0,0.0,0.0,0.0,0.0,0.0,0.0,0.0,0.0,0.0,0.0,0.0,0.0,0.5753,0.5272,0.0,0.0,0.0,0.0,0.2683,0.1657,0.0938,0.0715,-0.0232,-0.0949,-0.1474,-0.208,-0.2736,-0.3479,-0.3544,-0.3575,-0.3626,-0.3626,-0.3473,-0.3222,-0.3222,-0.3222,-0.3218,-0.3407,-0.3636,-0.3849,-0.4229,-0.4452,-0.4504,-0.4717,-0.4869,-0.4988,-0.4978,-0.5137,-0.5383,-0.5377,-0.5377,-0.5385,-0.5391,-0.5394,-0.5394,-0.5394,-0.5385,0.0,0.0,-0.5962,-0.637,-0.677,-0.724,-0.7671,-0.7888,-0.8101,-0.8364,-0.8863,-0.9689,-1.0674,0.0,-1.1792,-1.1709,-1.1887,0.0,-1.0997,-1.1192,-1.1438,-1.171,-1.1928,-1.2397,-1.2693,-1.2705,-1.2705,-1.2705,-1.2705,-1.2705,-1.2705,-1.2705,-1.2705,-1.2833,-1.3094,-1.2748,-1.2651,-1.2909,-1.2405,0.0,0.0,0.0,0.0,0.0,0.0,0.0,0.0,0.0,0.0,0.0,0.0,0.0,0.0,0.0,0.0,0.0,0.0,0.0,0.0,0.0,0.0,0.0,0.0,0.0,0.0,0.0,0.0,0.5605,0.5057,0.0,0.4244,0.3648,0.298,0.2325,0.1733,0.1073,0.028,-0.0236,-0.0863,-0.1555,-0.1956,-0.2404,-0.2992,-0.3013,-0.3103,-0.326,-0.3302,-0.325,-0.3116,-0.3154,-0.3151,-0.3162,-0.3188,-0.343,-0.374,-0.3896,-0.4136,-0.4385,-0.4652,-0.4763,-0.4855,-0.5042,-0.5185,-0.5302,-0.5354,-0.542,-0.5499,-0.5578,-0.5584,-0.5597,-0.5715,-0.5765,-0.5785,-0.5871,-0.6056,-0.626,-0.6398,-0.6777,-0.7122,-0.7349,-0.7588,-0.794,-0.8552,-0.9209,-0.9951,-1.0895,-1.1525,-1.1807,-1.1594,-1.1501,-1.1398,-1.1335,-1.1624,-1.1964,-1.2176,-1.25,-1.2705,-1.2705,-1.2705,-1.2705,-1.2705,-1.2705,-1.2632,-1.2463,-1.2451,-1.2503,-1.2584,-1.2552,-1.2601,-1.2622,-1.2493,-1.2267,0.0,0.0,0.0,0.0,0.0,0.0,0.0,0.0,0.0,0.0,0.0,0.0,0.0,0.0,0.0,0.0,0.0,0.0,0.0,0.0,0.0,0.0,0.0,0.0,0.0,0.0,0.5944,0.55,0.4971,0.448,0.4123,0.3586,0.3022,0.2336,0.1844,0.1252,0.0433,0.0,-0.0636,-0.1438,-0.1736,-0.2125,-0.2599,-0.2648,-0.2768,-0.2954,-0.3062,-0.3108,-0.3098,-0.3112,-0.3106,-0.3097,-0.3097,-0.3346,-0.3701,-0.3701,-0.3928,-0.43,-0.448,-0.4614,-0.4741,-0.5022,-0.517,-0.5293,-0.5432,-0.5518,-0.5526,-0.565,-0.5684,-0.5667,-0.5789,-0.5855,-0.5917,-0.5917,-0.6021,-0.6176,-0.6176,-0.6414,-0.6704,-0.6966,-0.7146,-0.7459,-0.8201,-0.8771,-0.9423,-1.025,-1.1122,-1.1724,-1.1556,-1.178,-1.1891,-1.1681,-1.2005,-1.2278,-1.2403,-1.2596,-1.2705,-1.2705,-1.2705,-1.2705,-1.2705,-1.2705,-1.2596,-1.233,-1.2312,-1.228,-1.2258,-1.2357,-1.2415,-1.2405,-1.2342,-1.2277,-1.2207,0.0,0.0,0.0,0.0,0.0,0.0,0.0,0.0,0.0,0.0,0.0,0.0,0.0,0.0,0.0,0.0,0.0,0.0,0.0,0.0,0.0,0.0,0.0,0.7027,0.6349,0.5732,0.535,0.5041,0.4614,0.3862,0.3624,0.3291,0.2765,0.204,0.1523,0.1229,0.045,-0.0354,-0.1162,-0.1415,-0.1851,-0.2354,-0.255,-0.2671,-0.2667,-0.2964,-0.3059,-0.3098,-0.3061,-0.3104,-0.3094,-0.3091,-0.3341,-0.3701,-0.3697,-0.3928,-0.4304,-0.43,-0.4478,-0.4703,-0.4921,-0.5191,-0.5416,-0.5644,-0.561,-0.5526,-0.565,-0.5607,-0.5529,-0.5653,-0.5688,-0.5688,-0.5688,-0.5908,-0.6083,-0.6083,-0.6257,-0.6476,-0.6704,-0.6795,-0.7013,-0.7768,-0.8416,-0.9113,-0.9859,-1.0684,-1.1413,-1.1909,-1.2203,-1.2406,-1.2406,-1.2577,0.0,-1.2705,-1.2705,-1.2705,-1.2705,-1.2705,-1.2705,-1.2705,-1.2705,-1.259,-1.2318,-1.23,-1.2261,-1.2187,-1.2123,-1.2119,-1.2201,-1.1936,-1.2153,-1.2796,0.0,0.0,0.0,0.0,0.0,0.0,0.0,0.0,0.0,0.0,0.0,0.0,0.0,0.0,0.0,0.0,0.0,0.0,0.0,0.0,0.0,0.0,0.7271,0.6827,0.619,0.5634,0.5322,0.4948,0.4429,0.3862,0.3813,0.3502,0.2773,0.2378,0.1904,0.1253,0.0604,0.0,-0.0606,-0.0859,-0.1251,-0.1767,-0.1816,-0.1994,-0.2337,-0.2478,-0.2572,-0.2715,-0.2729,-0.285,-0.3027,-0.2986,-0.3119,-0.3417,-0.3367,-0.3634,-0.4114,-0.4234,-0.4344,-0.4478,-0.4877,-0.528,-0.5644,-0.5688,-0.561,-0.5526,-0.565,-0.5607,-0.5529,-0.5653,-0.5688,-0.5688,-0.5688,-0.5733,-0.5822,-0.5822,-0.5994,-0.6257,-0.6476,-0.6786,-0.7231,-0.7937,-0.8512,-0.9165,-1.0033,-1.0554,-1.0987,-1.1435,-1.1823,-1.2123,-1.2123,-1.2454,0.0,-1.2705,-1.2705,-1.2705,-1.2705,-1.2705,-1.2705,-1.2705,-1.2705,-1.2512,-1.2059,-1.2029,-1.1903,-1.1619,-1.1753,-1.1916,-1.2134,-1.2207,-1.2357,0.0,0.0,0.0,0.0,0.0,0.0,0.0,0.0,0.0,0.0,0.0,0.0,0.0,0.0,0.0,0.0,0.0,0.0,0.0,0.0,0.0,0.0,0.7617,0.7171,0.6869,0.6117,0.5506,0.5308,0.4924,0.4538,0.4101,0.3993,0.3669,0.2978,0.2607,0.2069,0.1263,0.0808,0.0253,-0.0404,-0.0657,-0.1001,-0.1375,-0.1571,-0.1799,-0.2099,-0.2236,-0.2331,-0.243,-0.2594,-0.2719,0.0,-0.2962,-0.3105,-0.3323,-0.3282,-0.3503,0.0,0.0,0.0,0.0,0.0,-0.5235,-0.5597,-0.5688,-0.561,-0.5526,-0.565,-0.5607,-0.5529,-0.5653,-0.5688,-0.5688,-0.5688,-0.5688,-0.5688,-0.5688,-0.5908,-0.6171,-0.6479,-0.683,-0.7316,-0.8197,-0.8644,-0.917,-1.012,0.0,0.0,-1.1219,-1.1613,-1.1914,-1.2,-1.2326,-1.2619,0.0,-1.2705,-1.2705,-1.2705,-1.2705,-1.2705,-1.2705,-1.2705,0.0,0.0,0.0,-1.1796,-1.1546,-1.1739,0.0,0.0,0.0,-1.2353,0.0,0.0,0.0,0.0,-1.4777,-1.5226,0.0,0.0,0.0,0.0,0.0,0.0,0.0,0.0,0.0,0.0,0.0,0.0,0.0,0.0,0.0,0.0,0.7608,0.7143,0.7049,0.619,0.549,0.5281,0.4987,0.4736,0.4386,0.4135,0.3783,0.318,0.2674,0.2018,0.1263,0.0,0.0,0.0,0.0,-0.0902,-0.1133,-0.1577,-0.1857,-0.1873,-0.2099,-0.2195,-0.221,-0.2486,-0.2575,-0.2579,-0.2908,-0.3148,-0.3346,-0.3339,-0.3485,-0.3692,-0.3845,-0.408,-0.4389,-0.4832,-0.5146,0.0,0.0,0.0,0.0,-0.5653,-0.5615,-0.5548,-0.5656,-0.5688,-0.5688,-0.5733,-0.5733,-0.5733,-0.5777,-0.5952,-0.626,-0.6704,-0.701,-0.7404,-0.8372,-0.8771,-0.9213,-1.0077,-1.0511,-1.0819,-1.1219,-1.1527,-1.1742,-1.1957,-1.2203,0.0,-1.2619,-1.2705,-1.2705,-1.2705,0.0,0.0,-1.2705,-1.2705,-1.2596,-1.233,-1.2041,-1.1844,-1.1695,-1.1979,-1.2124,-1.2124,-1.204,-1.2311,-1.2989,-1.3439,-1.4147,-1.5152,-1.559,-1.5947,0.0,0.0,0.0,0.0,0.0,0.0,0.0,0.0,0.0,0.0,0.0,0.0,0.0,0.0,0.0,0.888,0.8171,0.753,0.7233,0.6457,0.5817,0.5534,0.5288,0.4839,0.4133,0.4033,0.3681,0.2927,0.2371,0.1817,0.1212,0.0758,0.0,-0.0051,-0.0354,-0.0605,-0.0854,-0.1206,-0.1454,-0.1649,0.0,0.0,-0.2049,-0.2073,-0.2155,-0.2386,-0.2589,-0.2739,-0.2874,-0.307,-0.3249,-0.3414,-0.3753,-0.4214,-0.4614,-0.4703,-0.5015,-0.5416,-0.546,-0.5539,-0.5659,-0.5683,-0.5675,-0.5659,-0.5683,-0.5688,0.0,-0.5952,-0.6041,-0.6038,-0.6213,-0.6299,-0.6476,-0.6922,-0.7228,-0.7621,-0.8416,-0.8947,-0.9388,-0.9951,-1.0424,-1.0776,-1.1008,-1.1397,-1.1699,-1.1742,-1.2118,-1.2406,-1.2448,-1.2619,-1.2705,-1.2705,-1.2705,-1.2705,-1.2705,-1.2705,-1.2596,-1.233,-1.2144,-1.1954,-1.1719,-1.2061,-1.2254,-1.2254,-1.2419,-1.2601,-1.2918,-1.349,-1.4096,-1.474,-1.573,-1.649,0.0,0.0,0.0,0.0,0.0,0.0,0.0,0.0,0.0,0.0,0.0,1.0939,0.0,0.0,0.9666,0.916,0.8381,0.7712,0.7383,0.6735,0.6154,0.5847,0.5441,0.5006,0.4493,0.4089,0.3579,0.2916,0.225,0.158,0.1011,0.0606,0.0253,0.0,-0.0404,-0.0657,-0.0808,-0.1212,-0.1465,-0.1617,-0.1617,-0.1667,-0.1819,-0.1902,-0.2042,-0.2139,-0.2412,-0.2514,-0.2581,-0.2748,-0.303,-0.337,-0.3495,-0.3855,-0.4304,-0.4435,-0.4748,-0.5062,-0.5327,-0.5463,-0.5552,-0.5688,-0.5688,-0.5688,-0.5688,-0.5688,-0.5733,-0.5863,-0.5997,-0.6127,-0.6213,-0.6435,-0.67,-0.701,-0.7319,-0.7716,-0.846,-0.8767,-0.9122,-0.9689,-1.0081,-1.0394,-1.0467,-1.0873,-1.1251,-1.1634,-1.1909,-1.2075,-1.2203,-1.2412,-1.2534,-1.2534,-1.2619,-1.2705,-1.2705,-1.2668,-1.2461,-1.2071,-1.2187,-1.2132,-1.1868,-1.215,-1.2305,-1.2305,-1.2415,-1.2599,-1.29,-1.3295,-1.384,-1.4533,-1.5346,-1.6228,0.0,0.0,0.0,0.0,0.0,0.0,0.0,1.2729,1.2527,1.232,1.1917,1.1472,1.0978,1.0474,1.0012,0.9464,0.8585,0.7849,0.7548,0.6981,0.6473,0.6105,0.5608,0.5198,0.4862,0.4157,0.3491,0.2868,0.2078,0.1391,0.0864,0.0506,0.0202,0.0,-0.0455,-0.0758,-0.0808,-0.1263,-0.1566,-0.1617,-0.1617,-0.1617,-0.1617,-0.1819,-0.1921,-0.1921,-0.2221,-0.2366,-0.2402,-0.2561,-0.2852,-0.3259,-0.3185,-0.3408,-0.3812,-0.4123,-0.4391,-0.4703,-0.5104,-0.5327,-0.5416,-0.5597,-0.5672,-0.5653,-0.5653,-0.5637,-0.5667,-0.5733,-0.5916,-0.6095,-0.621,-0.6526,-0.6881,-0.7098,-0.7323,-0.768,-0.8332,-0.8504,-0.8679,-0.9209,-0.957,-0.9794,-0.9799,-1.0151,-1.0643,-1.1315,-1.1512,-1.164,-1.1767,-1.2051,-1.2287,-1.2335,-1.2504,-1.2638,-1.2632,-1.2516,-1.2277,-1.1752,-1.2107,-1.2208,-1.1942,-1.215,-1.2305,-1.2305,-1.2342,-1.2526,-1.29,-1.3083,-1.3557,-1.4289,-1.4776,-1.5665,1.2625,1.2096,1.1737,1.2033,1.2037,1.2126,0.0,1.2756,1.2599,1.2558,1.2098,1.1728,1.1831,1.1084,1.0386,1.0117,0.9212,0.8262,0.76,0.6981,0.6522,0.635,0.5974,0.5424,0.4614,0.4103,0.3451,0.271,0.1831,0.1192,0.088,0.0357,0.0051,0.0,-0.0303,-0.0556,-0.0808,-0.1111,-0.1364,-0.1617,-0.1617,-0.1617,-0.1617,-0.1617,-0.1667,-0.1667,-0.192,-0.2201,-0.2406,-0.2547,-0.2641,-0.2688,-0.2854,-0.3096,-0.3317,-0.3767,-0.4123,-0.4389,-0.4659,-0.506,-0.5416,-0.5416,-0.5481,-0.5529,-0.5529,-0.5494,-0.5515,-0.5795,-0.5909,-0.6068,-0.6584,-0.6751,-0.6928,-0.737,-0.7462,-0.7595,-0.79,-0.8113,-0.8285,-0.8332,-0.8767,-0.9112,-0.9132,-0.9478,-0.9943,-1.0387,-1.08,-1.1085,-1.1126,-1.1517,-1.1862,-1.2028,-1.227,-1.2402,-1.2337,-1.2119,-1.1842,-1.1552,-1.1914,-1.2018,-1.1756,-1.2114,-1.2305,-1.2305,-1.2489,-1.2673,-1.29,-1.3083,-1.3419,-1.3863,-1.4238,-1.5098,1.2842,1.2596,1.246,1.2282,1.2429,1.2717,1.3089,1.3137,1.3052,1.2926,1.259,1.2212,1.2042,1.1395,1.0806,0.0,0.9578,0.8706,0.7978,0.7458,0.7119,0.6912,0.6495,0.5899,0.5027,0.4108,0.3301,0.2877,0.1762,0.1007,0.0884,0.0309,0.0,0.0,-0.0253,-0.0455,-0.0556,-0.101,-0.1263,-0.1364,-0.1516,-0.1617,-0.1617,-0.1617,-0.1617,-0.1617,-0.1718,-0.19,-0.2156,-0.2163,-0.2356,-0.2587,-0.2671,-0.2827,-0.3051,-0.3363,-0.3721,-0.4123,-0.4391,-0.4703,-0.5015,-0.5327,-0.5383,-0.5332,-0.5464,-0.5466,-0.5421,-0.5555,-0.5698,-0.5881,-0.6233,-0.6519,-0.6757,-0.7064,-0.7216,-0.7323,-0.7591,-0.7724,-0.7822,-0.7852,-0.8162,-0.8337,-0.8127,-0.8554,-0.8986,-0.9183,-0.9977,-1.0597,-1.0597,-1.1009,-1.1356,-1.156,-1.1694,-1.1735,-1.1684,-1.1678,-1.1621,-1.1456,-1.1815,-1.1983,-1.1861,-1.215,-1.2378,-1.2489,-1.2385,-1.2483,-1.277,-1.2664,-1.2816,-1.3215,-1.3366,-1.391,1.3219,1.2981,1.2874,1.2486,1.265,1.3009,1.3307,1.3349,1.3307,1.3264,1.2966,1.2651,1.2451,1.1808,1.1194,1.0833,0.9924,0.8997,0.8272,0.7802,0.7452,0.7216,0.6872,0.6417,0.5755,0.4461,0.3512,0.3251,0.1985,0.1173,0.104,0.0413,0.0051,0.0,-0.0202,-0.0303,-0.0404,-0.0808,-0.1061,-0.1212,-0.1415,-0.1516,-0.1617,-0.1617,-0.1617,-0.1616,-0.1608,-0.1687,-0.1849,-0.186,-0.2057,-0.2384,-0.2484,-0.2604,-0.2829,-0.3051,-0.3363,-0.3765,-0.4076,-0.4346,-0.4654,-0.5026,-0.5162,-0.515,-0.5291,-0.5327,-0.5279,-0.5353,-0.5468,-0.5671,-0.5996,-0.6318,-0.6634,-0.69,-0.7021,-0.7143,-0.7282,-0.7295,-0.7229,-0.7243,-0.7401,-0.7428,-0.7188,-0.7624,-0.806,-0.8192,-0.912,-0.9842,-1.0086,-1.0578,-1.0964,-1.1197,-1.1181,-1.1186,-1.1119,-1.123,-1.1291,-1.1235,-1.1669,-1.1929,-1.1929,-1.2231,-1.2412,-1.2476,-1.23,-1.2325,-1.2522,-1.2252,-1.2282,-1.2593,-1.2579,-1.2841,1.3956,1.3403,1.287,1.2717,1.2571,1.2577,1.3264,1.3264,1.3222,1.361,1.3173,1.2868,1.3366,1.2409,1.152,1.1397,1.0243,0.9133,0.8378,0.776,0.7346,0.7203,0.6945,0.6801,0.0,0.5415,0.4362,0.3833,0.2726,0.1817,0.1296,0.0714,0.0253,0.0,0.0,-0.0152,-0.0404,-0.0404,-0.0707,-0.1212,-0.1212,-0.1364,-0.1617,-0.1617,-0.1617,-0.1615,-0.1585,-0.1555,-0.1525,-0.1728,-0.1831,-0.1887,-0.2334,-0.2513,-0.2558,-0.2829,-0.3051,-0.3272,-0.3767,-0.4078,-0.433,-0.4459,-0.4751,-0.4983,-0.4956,-0.4962,-0.505,-0.5162,-0.532,-0.5563,-0.6157,-0.6331,-0.6511,-0.7,-0.7092,-0.7054,-0.6881,-0.6726,-0.6586,-0.6371,-0.6277,-0.6327,-0.6515,-0.6741,-0.7138,-0.7744,-0.8178,-0.8727,-0.9527,-1.0214,-1.0723,-1.0979,-1.0948,-1.0924,-1.0913,-1.0863,-1.0818,-1.0812,-1.1372,-1.1706,-1.1706,-1.2268,-1.2426,-1.2126,-1.2374,-1.2333,-1.2024,-1.2017,-1.201,-1.201,-1.201,-1.2153,1.4502,1.3795,1.32,1.3002,1.2758,1.2711,1.3095,1.3264,1.3355,1.3483,1.3434,1.3391,1.3462,1.2729,1.1937,1.1487,1.0433,0.9427,0.8674,0.8217,0.7957,0.7756,0.7494,0.0,0.0,0.0,0.0,0.4547,0.3364,0.2414,0.1867,0.1084,0.0563,0.0253,0.0101,-0.0051,-0.0152,-0.0303,-0.0505,-0.0657,-0.0859,-0.096,-0.1061,-0.1061,-0.1154,-0.1338,-0.133,-0.1398,-0.1495,-0.1578,-0.1691,-0.1839,-0.2154,-0.2379,-0.2513,-0.2784,-0.2963,-0.3051,-0.3544,-0.3857,-0.4065,-0.4413,-0.4531,-0.4599,-0.4824,-0.4872,-0.4828,-0.5025,-0.5105,-0.5223,-0.5543,-0.5797,-0.6044,-0.6505,-0.6647,-0.6628,-0.667,-0.6529,-0.6312,-0.6086,-0.6016,-0.5965,-0.5913,-0.6249,-0.6795,-0.7668,-0.8475,-0.9132,-0.9544,-0.9916,-1.0182,-1.0269,-1.0248,-1.0269,-1.0422,-1.0413,-1.0513,-1.0775,-1.1223,-1.1558,-1.1706,-1.1972,-1.2186,-1.2289,-1.1861,-1.1706,-1.1874,-1.1537,-1.1406,-1.1406,-1.127,-1.1302,1.4726,1.4126,1.3572,1.3095,1.2812,1.278,1.312,1.3307,1.3476,1.373,1.3822,1.387,1.3995,1.3229,1.2376,1.1826,1.068,0.9589,0.869,0.8289,0.7948,0.7749,0.754,0.7444,0.0,0.0,0.0,0.5331,0.4145,0.3116,0.2364,0.1542,0.0921,0.0556,0.0354,0.0253,0.0152,-0.0051,-0.0202,-0.0404,-0.0657,-0.0808,-0.0808,-0.0803,-0.0894,-0.1079,-0.1113,-0.1232,-0.1341,-0.1423,-0.1544,-0.1705,-0.1974,-0.2199,-0.2424,-0.2649,-0.2829,-0.2963,-0.3454,-0.3678,-0.3838,-0.4202,-0.4333,-0.4338,-0.4534,-0.4641,-0.474,-0.4859,-0.4967,-0.5125,-0.5368,-0.5583,-0.5802,-0.6263,-0.6327,-0.631,-0.6269,-0.6129,-0.596,-0.5702,-0.5593,-0.5577,-0.5494,-0.5983,-0.6641,-0.7361,-0.8322,-0.9094,-0.9359,-0.9544,-0.9695,-0.9771,-0.9809,-0.9884,-1.0067,-1.0143,-1.0331,-1.0663,-1.1074,-1.1366,-1.1567,-1.1791,-1.1911,-1.1971,-1.1484,-1.1302,-1.145,-1.103,-1.0807,-1.0807,-1.0618,-1.0586,1.4722,1.4307,1.3949,1.2978,1.2742,1.2841,1.3291,1.3398,1.3603,1.4272,1.4286,1.4305,1.4805,0.0,1.2882,1.2362,1.0988,0.962,0.8531,0.7942,0.7494,0.0,0.0,0.0,0.0,0.0,0.0,0.6042,0.0,0.3979,0.2876,0.207,0.1364,0.0859,0.0808,0.0657,0.0404,0.0404,0.0152,-0.0354,-0.0656,-0.0756,-0.0756,-0.0742,-0.0784,-0.0782,-0.0988,-0.1063,-0.1107,-0.1311,-0.1391,-0.1436,-0.1705,-0.1974,-0.2199,-0.2424,-0.2649,-0.2963,-0.3454,-0.3585,-0.3646,-0.3921,-0.4114,-0.4238,-0.4137,-0.4353,-0.4659,-0.4701,-0.4933,-0.5246,-0.5573,-0.5651,-0.5772,-0.6148,-0.6168,-0.5993,-0.574,-0.5601,-0.5431,-0.5221,-0.5091,-0.5054,-0.5282,-0.598,-0.6637,-0.6865,-0.771,-0.8484,-0.8946,-0.9175,-0.9359,-0.9587,-0.9582,-0.9695,-0.9884,-1.0067,-1.0255,-1.0481,-1.0838,-1.1126,-1.127,-1.1624,-1.1626,-1.1193,-1.1238,-1.1094,-1.0776,-1.046,-1.0301,-1.0276,-1.0079,-0.9983,1.5197,1.4623,1.4059,1.3432,1.3276,1.329,1.3206,1.3568,1.399,1.4314,1.4664,1.4901,1.5065,1.4257,0.0,1.2218,1.0734,0.0,0.8237,0.764,0.0,0.7188,0.7188,0.7188,0.7188,0.7138,0.0,0.0,0.5284,0.4332,0.3428,0.2421,0.1767,0.1415,0.101,0.0758,0.0707,0.0505,0.0354,0.0202,-0.01,-0.0198,-0.0198,-0.0194,-0.0333,-0.0517,-0.0558,-0.0779,-0.1084,-0.1169,-0.1256,-0.1436,-0.1705,-0.1839,-0.193,-0.2334,-0.2558,-0.2693,-0.3363,-0.3549,-0.3575,-0.3904,-0.3989,-0.4033,-0.4077,-0.4157,-0.4311,-0.4623,-0.476,-0.4867,-0.5099,-0.525,-0.5406,-0.5644,-0.5658,-0.5551,-0.5543,-0.5416,-0.5242,-0.5078,-0.5037,-0.5054,-0.5282,-0.5595,-0.606,-0.6598,-0.7142,-0.7834,-0.867,-0.9089,-0.9359,-0.9587,-0.9582,-0.9695,-0.9884,-0.9954,-1.0067,-1.0255,-1.0452,-1.0646,-1.0869,-1.0962,-1.1009,-1.1061,-1.0879,-1.073,-1.0649,-1.0396,-1.0212,-1.0079,-1.0015,-0.9983,1.4955,1.4503,1.4078,1.3489,1.3372,1.3446,1.3365,1.3857,1.4447,1.4776,1.5267,1.5654,1.5662,1.4985,1.4016,0.0,0.0,0.0,0.8531,0.7786,0.7285,0.7042,0.6939,0.0,0.6836,0.6836,0.6637,0.0,0.5386,0.4636,0.383,0.2874,0.222,0.1969,0.1666,0.1414,0.1162,0.0751,0.0499,0.0399,0.0245,0.0097,0.0,0.0,-0.0093,-0.0231,0.0,-0.0544,-0.0807,-0.1031,-0.1166,-0.13,-0.1525,-0.1705,-0.1839,-0.2243,-0.2424,-0.2599,-0.3195,-0.3357,-0.3377,-0.3842,-0.3973,-0.3923,-0.3949,-0.404,-0.4166,-0.4407,-0.4617,-0.4827,-0.4959,-0.51,-0.5227,-0.535,-0.5283,-0.5238,-0.5288,-0.5192,-0.5094,-0.5029,-0.5018,-0.5054,-0.5129,-0.5323,-0.5634,-0.6099,-0.6602,-0.7219,-0.7944,-0.8556,-0.9056,-0.9435,-0.9473,-0.9582,-0.9884,-0.9884,-0.9948,-1.0068,-1.0185,-1.0295,-1.0352,-1.0429,-1.0508,-1.0542,-1.0418,-1.0339,-1.0339,-1.0149,-1.0021,-0.9926,-0.983,-0.9766,1.4572,1.4322,1.4211,1.3389,1.3361,1.3598,1.3717,1.4279,1.4901,1.5352,1.5923,1.6329,1.6338,1.5808,1.4942,1.3747,1.2257,1.0699,0.9118,0.8177,0.7484,0.6942,0.6689,0.6487,0.6487,0.6487,0.6237,0.5734,0.5388,0.4839,0.4033,0.3228,0.2674,0.2422,0.2422,0.2168,0.1661,0.1139,0.0784,0.0489,0.0431,0.0285,0.0047,0.0,0.0,0.0,0.0,0.0,-0.0448,-0.0852,-0.1076,-0.1121,-0.13,-0.1525,-0.1794,-0.2109,-0.2289,-0.2506,-0.2931,-0.304,-0.3112,-0.373,-0.3913,-0.3829,-0.3801,-0.394,-0.408,-0.4178,-0.4518,-0.4814,-0.4909,-0.5053,-0.5122,-0.5122,-0.5049,-0.5018,-0.5018,-0.5018,-0.5018,-0.5018,-0.5018,-0.5018,-0.5018,-0.5129,-0.5323,-0.5521,-0.606,-0.6641,-0.7065,-0.7829,-0.8594,-0.9208,-0.9284,-0.9473,-0.9884,-0.9884,-0.9894,-0.9849,-0.9974,-0.9961,-0.9825,-1.0004,-1.0072,-0.9958,-0.9983,-0.9983,-0.9983,-0.9862,-0.9804,-0.9772,-0.9612,-0.9548,1.5244,1.5028,1.4707,1.3875,1.4025,1.4269,1.4064,1.4699,1.536,1.5609,1.6027,1.6423,1.6615,1.6004,1.5125,1.3993,1.2533,1.1028,0.9657,0.8577,0.7836,0.0,0.7235,0.7039,0.7039,0.6842,0.0,0.0,0.0,0.4839,0.4033,0.3228,0.2674,0.2422,0.2422,0.2254,0.1925,0.1624,0.1315,0.0958,0.0563,0.0372,0.0325,0.0091,0.0,0.0,0.0,0.0,-0.0403,-0.0673,-0.0897,-0.1121,-0.13,-0.1436,-0.1525,-0.2019,-0.2243,-0.2326,-0.2887,-0.304,-0.3062,-0.3537,-0.3618,-0.3598,-0.3816,-0.3915,-0.3974,-0.4229,-0.4285,-0.4351,-0.4527,-0.4693,-0.4768,-0.4768,-0.4912,-0.5018,-0.5018,-0.5018,-0.5018,-0.5018,-0.5018,-0.5018,-0.5018,-0.5015,-0.5132,-0.5321,-0.5595,-0.5983,-0.6641,-0.7565,-0.8365,-0.9003,-0.9203,-0.9473,-0.9884,-0.9884,-0.982,-0.9666,-0.9608,-0.9575,-0.9506,-0.9581,-0.9675,-0.9836,-0.9958,-0.9958,-0.983,-0.9804,-0.9708,-0.9548,-0.9676,-0.974,1.5479,1.5134,1.4761,1.427,1.4489,1.4767,1.4663,1.5284,1.5986,1.6251,1.6764,1.7173,1.7299,1.6845,1.6125,1.5231,1.3692,1.2193,1.0974,0.9558,0.8528,0.8276,0.7633,0.7238,0.7385,0.7039,0.6692,0.0,0.0,0.4889,0.4236,0.343,0.2927,0.2826,0.2674,0.2551,0.2356,0.1944,0.1629,0.1314,0.0919,0.0637,0.041,0.027,0.0135,0.0,0.0,0.0,-0.0224,-0.0448,-0.0673,-0.0897,-0.1166,-0.13,-0.148,-0.2019,-0.2199,-0.2282,-0.2757,-0.2935,-0.2943,-0.3373,-0.3541,-0.3609,-0.386,-0.3971,-0.3979,-0.4103,-0.4209,-0.4328,-0.4317,-0.4591,-0.4775,-0.4714,-0.4779,-0.4859,-0.4979,-0.4898,-0.4859,-0.4979,-0.5018,-0.5018,-0.5018,-0.5018,-0.5015,-0.5132,-0.5323,-0.5595,-0.6022,-0.6795,-0.7676,-0.8589,-0.897,-0.9311,-0.9695,-0.9739,-0.9642,-0.94,-0.9337,-0.9231,-0.9079,-0.9274,-0.9434,-0.9536,-0.967,-0.9702,-0.9644,-0.9644,-0.9644,-0.9644,-0.9772,-0.983,1.5709,1.5249,1.4911,1.4622,1.4845,1.5166,1.5166,1.5876,1.6581,1.6853,1.7396,1.7838,1.7881,1.7568,1.7066,1.6372,1.4806,1.3318,1.2242,1.0538,0.9365,0.9072,0.818,0.0,0.7829,0.7338,0.0,0.0,0.0,0.0,0.4338,0.3684,0.3281,0.3281,0.3029,0.2845,0.2681,0.2305,0.1931,0.1655,0.1311,0.0987,0.0628,0.0493,0.0314,0.009,0.009,0.0,0.0,-0.0269,-0.0538,-0.0718,-0.0987,-0.1211,-0.148,-0.2019,-0.2199,-0.2237,-0.2673,-0.2819,-0.2885,-0.3295,-0.3487,-0.3611,-0.393,-0.3994,-0.3994,-0.3994,-0.4145,-0.4277,-0.4164,-0.4411,-0.4693,-0.4643,-0.4659,-0.474,-0.4859,-0.474,-0.4698,-0.4859,-0.4898,-0.4937,-0.4937,-0.5015,-0.5054,-0.5018,-0.5168,-0.5359,-0.5518,-0.6022,-0.6791,-0.7906,-0.8508,-0.9041,-0.943,-0.9485,-0.9362,-0.9117,-0.898,-0.8881,-0.8749,-0.899,-0.9145,-0.9242,-0.9403,-0.9435,-0.9382,-0.9473,-0.9602,-0.9734,-0.9804,-0.9926,1.6403,1.5954,1.549,1.4838,1.5048,1.5352,1.5352,1.6133,1.6869,1.69,1.7396,1.7838,1.7881,1.7523,1.7095,1.6633,1.5248,1.3854,1.278,1.1277,1.0212,0.992,0.0,0.0,0.8676,0.7978,0.0,0.0,0.0,0.0,0.4085,0.3734,0.3584,0.3584,0.3281,0.3026,0.2723,0.267,0.2477,0.2115,0.1616,0.1345,0.13,0.0852,0.0538,0.0359,0.0,0.0,0.0,-0.0269,-0.0538,-0.0718,-0.0987,-0.1211,-0.148,-0.2019,-0.2199,-0.2237,-0.2673,-0.2877,-0.3037,-0.3322,-0.3397,-0.3477,-0.3865,-0.3994,-0.3994,-0.3994,-0.3977,-0.395,-0.3942,-0.4039,-0.4206,-0.4387,-0.4582,-0.4659,-0.4501,-0.4423,-0.4423,-0.4462,-0.4621,-0.474,-0.474,-0.5049,-0.5207,-0.5015,-0.5168,-0.5321,-0.5321,-0.5556,-0.5986,-0.6679,-0.7787,-0.8627,-0.9041,-0.9067,-0.8959,-0.8775,-0.8506,-0.841,-0.8522,-0.8549,-0.8705,-0.9017,-0.9272,-0.9278,-0.9049,-0.9422,-0.9574,-0.9524,-0.9856,-1.0079,1.6825,1.6367,1.5936,1.5435,1.5575,1.5865,1.5982,1.6708,1.7403,1.7618,1.8033,1.8386,1.864,1.8026,1.7313,1.6686,1.5321,1.3951,1.293,1.1545,1.0556,1.0265,0.9525,0.0,0.0,0.0,0.0,0.0,0.0,0.0,0.4907,0.421,0.3835,0.3835,0.3544,0.3332,0.3193,0.2826,0.254,0.2379,0.2019,0.1705,0.1391,0.1211,0.0942,0.0583,0.0,0.0,0.0,0.0179,-0.0134,-0.0538,-0.0762,-0.1076,-0.148,-0.2019,-0.2181,-0.2199,-0.266,-0.2872,-0.303,-0.3318,-0.3486,-0.3613,-0.3909,-0.3994,-0.4024,-0.4094,-0.4009,-0.3927,-0.3991,-0.4145,-0.4348,-0.4543,-0.4543,-0.4543,-0.4582,-0.4387,-0.427,-0.4384,-0.4462,-0.4543,-0.4659,-0.4758,-0.4825,-0.4868,-0.4942,-0.498,-0.498,-0.5236,-0.5556,-0.5948,-0.7099,-0.8016,-0.8441,-0.8663,-0.8797,-0.8712,-0.8674,-0.8679,-0.8732,-0.8976,-0.918,-0.931,-0.9468,-0.9502,-0.935,-0.952,-0.967,-0.9817,-0.9951,-1.0174,1.7308,1.6864,1.6438,1.6057,1.6114,1.6358,1.6609,1.7277,1.7979,1.8355,1.8677,1.8904,1.9147,1.8326,1.7352,1.6704,1.5146,1.3755,1.2826,1.1589,1.0719,1.0476,0.0,0.9282,0.0,0.0,0.0,0.0,0.0,0.0,0.0,0.4577,0.4177,0.42,0.3803,0.3588,0.3545,0.3123,0.2886,0.2827,0.2557,0.2198,0.1838,0.1705,0.1436,0.1031,0.0,0.0,0.0,0.0673,0.0269,-0.0314,-0.0538,-0.0942,-0.1479,-0.196,-0.2158,-0.2258,-0.2632,-0.2886,-0.3084,-0.3288,-0.3521,-0.3747,-0.3913,-0.3973,-0.3977,-0.4048,-0.4021,-0.3964,-0.4058,-0.4231,-0.4423,-0.4504,-0.4465,-0.4423,-0.4506,-0.4314,-0.4157,-0.427,-0.4309,-0.4387,-0.4582,-0.463,-0.4692,-0.4849,-0.4849,-0.4847,-0.4771,-0.492,-0.5126,-0.5401,-0.6286,-0.7096,-0.7676,-0.8013,-0.8221,-0.8355,-0.8449,-0.8544,-0.872,-0.9076,-0.9292,-0.9397,-0.9639,-0.9661,-0.9466,-0.9682,-0.9847,-0.9958,-1.0047,-1.0269,1.7959,1.7561,1.7031,1.6667,1.6625,1.6776,1.7201,1.7902,1.8572,1.8935,1.9118,1.9188,1.9188,1.8162,1.7168,1.6668,1.4851,1.3269,1.2506,1.1557,1.0805,0.0,0.0,0.9772,0.9236,0.0,0.0,0.0,0.0,0.0,0.0,0.4623,0.4616,0.4708,0.4166,0.3849,0.3704,0.3702,0.3662,0.3587,0.3136,0.2911,0.2867,0.2422,0.2064,0.0,0.0,0.0,0.0,0.1076,0.0673,-0.0045,-0.0314,-0.0807,-0.1477,-0.1928,-0.2217,-0.2426,-0.2629,-0.2902,-0.3214,-0.3214,-0.3481,-0.3806,-0.3806,-0.383,-0.3881,-0.3831,-0.3962,-0.4079,-0.4118,-0.4231,-0.4345,-0.4155,-0.427,-0.4345,-0.4155,-0.4118,-0.4118,-0.4118,-0.4118,-0.4155,-0.4384,-0.4732,-0.5004,-0.5015,-0.5007,-0.4927,-0.4737,-0.454,-0.4577,-0.4965,-0.5201,-0.5744,-0.6822,-0.6935,-0.7101,-0.7504,-0.7523,-0.7739,-0.8266,-0.8549,-0.8865,-0.9206,-0.9664,-0.9619,-0.912,-0.992,-1.0123,-0.9804,-1.0149,-1.0396,1.8049,1.7963,1.7828,1.7482,1.7568,1.7803,1.8053,1.8624,1.9142,1.9259,1.936,1.936,1.8909,1.7969,1.6846,1.5648,1.4455,1.3353,0.0,0.0,0.0,1.0502,0.9628,0.8908,0.0,0.0,0.0,0.0,0.0,0.0,0.0,0.5127,0.4893,0.4847,0.4456,0.4307,0.444,0.4055,0.3832,0.3807,0.3496,0.3272,0.3092,0.2959,0.0,0.0,0.0,0.0,0.0,0.1525,0.0987,0.0403,-0.0179,-0.08,-0.1403,-0.1916,-0.2174,-0.2281,-0.2554,-0.2753,-0.2937,-0.3097,-0.3354,-0.3604,-0.3763,-0.3822,-0.3839,-0.381,-0.396,-0.4079,-0.3921,-0.4038,-0.4194,-0.4118,-0.427,-0.4384,-0.4309,-0.4194,-0.4118,-0.4118,-0.3999,-0.396,-0.4155,-0.4212,-0.428,-0.4437,-0.4434,-0.4434,-0.4361,-0.438,-0.446,-0.4577,-0.4821,-0.5302,-0.6163,-0.6654,-0.6957,-0.7087,-0.761,-0.8029,-0.8365,-0.8849,-0.9294,-0.9653,-0.9792,-0.9845,-0.9926,-1.0002,-1.0079,-1.0149,-1.0403,-1.053,1.8393,1.8459,1.8402,1.8128,1.8257,1.8465,1.8559,1.9069,1.9506,1.9506,1.9432,1.9167,1.8568,1.7596,1.65,1.5345,1.4294,1.3319,0.0,0.0,0.0,1.0476,0.0,0.0,0.0,0.0,0.0,0.0,0.0,0.0,0.0,0.0,0.5048,0.5065,0.4723,0.4649,0.4888,0.4504,0.4295,0.4295,0.4121,0.3944,0.3764,0.3674,0.0,0.0,0.0,0.0,0.0,0.1995,0.1425,0.0806,0.0133,-0.0528,-0.1257,-0.1748,-0.204,-0.2273,-0.2493,-0.2661,-0.2826,-0.2943,-0.3139,-0.3411,-0.3606,-0.3724,-0.3802,-0.3802,-0.396,-0.4079,-0.396,-0.3999,-0.4118,-0.4194,-0.4309,-0.4423,-0.4501,-0.4426,-0.4311,-0.4233,-0.4038,-0.396,-0.4079,-0.4028,-0.4063,-0.4253,-0.4215,-0.418,-0.418,-0.4155,-0.419,-0.427,-0.4445,-0.4778,-0.5389,-0.6005,-0.6377,-0.6514,-0.7176,-0.7676,-0.8059,-0.8632,-0.9163,-0.9564,-0.9715,-0.9869,-1.0045,-1.0049,-1.0186,-1.0396,-1.0416,-1.0425,0.0,1.899,1.8762,1.8605,1.8739,1.8868,1.8868,1.9312,0.0,1.97,1.9337,1.8814,1.8159,1.7091,1.6141,1.5591,1.4327,1.323,0.0,1.2033,0.0,0.0,0.9599,0.0,0.0,0.0,0.0,0.0,0.0,0.0,0.0,0.0,0.5146,0.5416,0.5067,0.4888,0.5055,0.501,0.501,0.501,0.4792,0.4705,0.4703,0.4472,0.0,0.0,0.0,0.0,0.0,0.2515,0.193,0.1114,0.0612,-0.013,-0.0989,-0.1403,-0.1866,-0.2263,-0.2412,-0.2589,-0.2747,-0.2787,-0.2904,-0.3141,-0.3411,-0.3604,-0.3763,-0.3802,-0.3921,-0.4079,-0.4079,-0.4079,-0.4116,-0.4345,-0.4384,-0.4462,-0.4659,-0.4701,-0.4659,-0.4423,-0.4231,-0.4079,-0.4079,-0.4079,-0.4155,-0.4345,-0.4192,-0.4079,-0.4079,-0.3921,-0.3882,-0.404,-0.4079,-0.4272,-0.4662,-0.51,-0.5497,-0.5854,-0.6328,-0.6834,-0.7442,-0.8046,-0.8553,-0.8983,-0.9529,-0.9751,-0.961,-1.0077,-1.039,-1.0553,-1.0247,-1.0077,1.8803,0.0,1.9537,1.9242,1.9335,1.9475,0.0,1.9596,1.97,1.97,1.947,1.8952,1.7699,1.6962,1.6137,1.4874,1.4108,1.3322,1.2495,1.1589,0.0,1.0725,0.9719,0.0,0.0,0.0,0.0,0.0,0.0,0.0,0.0,0.0,0.5416,0.5644,0.5399,0.5355,0.5552,0.5191,0.5099,0.5282,0.4882,0.4792,0.4919,0.4757,0.0,0.0,0.0,0.0,0.3644,0.2882,0.2254,0.1706,0.0891,0.0126,-0.0537,-0.1143,-0.1528,-0.1781,-0.1969,-0.2082,-0.2161,-0.2472,-0.2707,-0.2904,-0.3139,-0.3372,-0.3604,-0.3763,-0.3841,-0.3882,-0.3882,-0.3882,-0.3921,-0.4116,-0.427,-0.4462,-0.4659,-0.4701,-0.4659,-0.4423,-0.4231,-0.404,-0.3882,-0.3882,-0.388,-0.3919,-0.3919,-0.3882,-0.3882,-0.3841,-0.3802,-0.3882,-0.3999,-0.4194,-0.4462,-0.4864,-0.5209,-0.5434,-0.6022,-0.6563,-0.7019,-0.761,-0.8259,-0.8978,-0.9596,-0.9752,-0.9524,-1.0047,-1.0228,-1.0074,-1.0093,-1.0,1.8786,1.9256,1.9404,1.9169,1.9129,1.9122,1.9083,1.9185,1.9261,1.9204,1.9041,1.8521,1.7279,1.6674,1.5943,1.4587,1.3935,0.0,0.0,0.0,1.0877,1.0419,0.0,0.0,0.0,0.0,0.0,0.0,0.0,0.0,0.0,0.0,0.5597,0.5688,0.5599,0.5597,0.5688,0.5371,0.5282,0.5552,0.5144,0.5029,0.5246,0.5135,0.0,0.0,0.0,0.0,0.389,0.3065,0.25,0.2058,0.1247,0.0575,0.0041,-0.0603,-0.0953,-0.1178,-0.1493,-0.169,-0.1807,-0.2003,-0.2238,-0.2434,-0.263,-0.2784,-0.2979,-0.3374,-0.3491,-0.3491,-0.3645,-0.3645,-0.3724,-0.404,-0.4194,-0.4309,-0.4504,-0.4582,-0.454,-0.4423,-0.4231,-0.4079,-0.396,-0.3843,-0.3802,-0.3802,-0.3802,-0.3763,-0.3684,-0.3763,-0.3763,-0.3684,-0.3841,-0.4075,-0.4384,-0.4534,-0.4835,-0.5279,-0.5715,-0.6185,-0.6601,-0.7116,-0.7756,-0.8533,-0.9119,-0.9329,-0.9217,-0.9731,-0.9876,-0.9718,-0.9692,-0.9604,1.8594,1.8809,1.8751,1.8721,1.8518,1.8265,1.8137,1.8346,1.8522,1.8406,1.8305,1.7871,1.6761,1.6203,1.5575,1.4398,0.0,0.0,1.0968,1.0945,1.0762,0.9875,0.0,0.0,0.0,0.0,0.0,0.0,0.0,0.0,0.0,0.0,0.0,0.5688,0.5688,0.568,0.5661,0.5481,0.5481,0.5659,0.5318,0.5263,0.5475,0.5396,0.0,0.0,0.0,0.0,0.3917,0.3234,0.2741,0.2326,0.1631,0.1133,0.0686,0.0079,-0.0275,-0.0471,-0.0943,-0.1218,-0.1375,-0.1415,-0.1572,-0.1729,-0.2,-0.2079,-0.2198,-0.2708,-0.2945,-0.31,-0.3331,-0.3409,-0.3526,-0.3921,-0.3999,-0.4077,-0.4268,-0.4307,-0.4307,-0.4307,-0.4153,-0.3999,-0.3999,-0.3843,-0.3724,-0.3763,-0.3763,-0.3684,-0.3526,-0.3684,-0.3724,-0.3526,-0.3673,-0.3975,-0.4322,-0.427,-0.4513,-0.5254,-0.5458,-0.5815,-0.6327,-0.6728,-0.7223,-0.7865,-0.8375,-0.8673,-0.8738,-0.9224,-0.94,-0.933,-0.919,-0.9129,1.761,1.7797,1.7904,1.8226,1.7884,1.7437,1.7228,1.7379,1.7522,1.7508,1.7626,1.7311,1.6084,1.5519,1.4803,1.3421,0.0,1.0799,0.0,0.0,0.9958,0.0,0.0,0.0,0.0,0.0,0.0,0.0,0.0,0.0,0.0,0.0,0.0,0.5688,0.5688,0.564,0.5537,0.5315,0.5315,0.5534,0.5204,0.5147,0.5393,0.5271,0.5205,0.0,0.0,0.4528,0.4252,0.3585,0.3082,0.2657,0.2053,0.1658,0.1382,0.0708,0.0432,0.0353,-0.0039,-0.0236,-0.0314,-0.0628,-0.0786,-0.0864,-0.1296,-0.1571,-0.1728,-0.1806,-0.2316,-0.2865,-0.2904,-0.3022,-0.3217,-0.3448,-0.3565,-0.3643,-0.3841,-0.388,-0.388,-0.388,-0.3722,-0.3604,-0.3604,-0.3374,-0.3295,-0.3526,-0.3565,-0.3526,-0.3487,-0.3684,-0.3724,-0.3526,-0.3732,-0.3991,-0.422,-0.4274,-0.4546,-0.5177,-0.5401,-0.5842,-0.6518,-0.693,-0.721,-0.732,-0.7683,-0.7934,-0.8058,-0.8513,-0.8661,-0.8492,-0.8751,-0.8791,1.6908,1.717,1.7209,1.706,1.6715,1.6419,1.6301,1.6156,1.6101,1.6347,1.638,1.6088,1.5275,1.4774,1.3957,1.218,0.0,1.0023,0.9323,0.9425,0.0,0.0,0.0,0.0,0.0,0.0,0.0,0.0,0.0,0.0,0.0,0.0,0.0,0.0,0.5711,0.5564,0.5508,0.5291,0.5301,0.545,0.5085,0.5028,0.5306,0.5148,0.5094,0.5091,0.0,0.4582,0.4345,0.3839,0.3372,0.2904,0.2431,0.2118,0.1845,0.1218,0.0904,0.0707,0.0432,0.0236,0.0118,-0.0196,-0.0353,-0.051,-0.0825,-0.1061,-0.1218,-0.1218,-0.1767,-0.2357,-0.2433,-0.255,-0.2668,-0.2862,-0.294,-0.2979,-0.3096,-0.3096,-0.3137,-0.3255,-0.3096,-0.2979,-0.3096,-0.2942,-0.2863,-0.3098,-0.3136,-0.3136,-0.3136,-0.3374,-0.3501,-0.3385,-0.3724,-0.4073,-0.4407,-0.4483,-0.4725,-0.5186,-0.5587,-0.5932,-0.6172,-0.6544,-0.6731,-0.6599,-0.7026,-0.7255,-0.7255,-0.783,-0.8073,-0.7987,-0.8321,-0.8495,1.61,1.6446,1.6503,1.5909,1.5676,1.5533,1.5367,1.5037,1.4838,1.5024,1.4958,1.4667,1.4105,1.3528,0.0,1.1015,1.012,0.9384,0.8548,0.0,0.0,0.0,0.0,0.0,0.0,0.0,0.0,0.0,0.0,0.0,0.0,0.0,0.0,0.0,0.5785,0.5537,0.5467,0.5295,0.5235,0.5366,0.5006,0.4951,0.5143,0.5056,0.5018,0.4979,0.482,0.4621,0.4384,0.4036,0.3569,0.3062,0.2707,0.2431,0.2157,0.1688,0.1335,0.1061,0.0904,0.0707,0.051,0.0275,0.0079,-0.0118,-0.0312,-0.0545,-0.0778,-0.0812,-0.1236,-0.1742,-0.1995,-0.2079,-0.2157,-0.2315,-0.2354,-0.2354,-0.2315,-0.2276,-0.2354,-0.247,-0.2354,-0.2276,-0.247,-0.2354,-0.2315,-0.255,-0.2589,-0.2623,-0.2686,-0.2986,-0.3172,-0.3192,-0.3627,-0.4087,-0.4566,-0.4717,-0.4894,-0.5171,-0.5692,-0.5948,-0.5874,-0.616,-0.6269,-0.6151,-0.6552,-0.6715,-0.6663,-0.7246,-0.7544,-0.7563,-0.7895,-0.8109,1.5048,1.5347,1.5472,1.5202,1.5146,1.4964,1.4377,1.4138,1.3987,1.3621,1.3487,1.3174,1.2332,1.129,1.0446,1.0043,0.9248,0.8508,0.0,0.0,0.0,0.0,0.0,0.0,0.0,0.0,0.0,0.0,0.0,0.0,0.0,0.0,0.0,0.0,0.0,0.5707,0.5424,0.5252,0.5192,0.5197,0.5044,0.499,0.5029,0.5021,0.5018,0.5018,0.4979,0.474,0.4384,0.4155,0.3688,0.3062,0.2865,0.255,0.2196,0.2157,0.1884,0.1533,0.1533,0.1415,0.1178,0.0904,0.0707,0.0508,0.0306,-0.0038,-0.0378,-0.0553,-0.0806,-0.1075,-0.1514,-0.1768,-0.1925,-0.1925,-0.1925,-0.1886,-0.169,-0.165,-0.1689,-0.1686,-0.153,-0.1452,-0.1647,-0.153,-0.1531,-0.1921,-0.196,-0.2061,-0.2395,-0.2613,-0.2773,-0.293,-0.3349,-0.3878,-0.4558,-0.4881,-0.5076,-0.5102,-0.5437,-0.5755,-0.6072,-0.6116,-0.6164,-0.6276,-0.6312,-0.641,-0.653,-0.6811,-0.7025,-0.7166,-0.7413,-0.7622,1.3851,1.4188,1.4321,1.4243,1.4243,1.4159,1.3906,1.3378,1.2879,1.2758,1.2251,1.1585,1.0951,1.045,0.9963,0.944,0.8909,0.0,0.0,0.0,0.0,0.0,0.0,0.0,0.0,0.0,0.0,0.0,0.0,0.0,0.0,0.0,0.0,0.0,0.0,0.5674,0.5464,0.522,0.508,0.508,0.5037,0.5018,0.5018,0.5132,0.5132,0.5018,0.5132,0.4971,0.4582,0.4387,0.3997,0.3491,0.2981,0.2628,0.2353,0.2235,0.2118,0.1923,0.169,0.1518,0.1383,0.0998,0.076,0.0561,0.0371,0.0037,-0.0332,-0.0402,-0.0656,-0.0952,-0.127,-0.1426,-0.1469,-0.1454,-0.1459,-0.1427,-0.1214,-0.1178,-0.1139,-0.102,-0.0903,-0.0903,-0.0981,-0.0903,-0.0942,-0.1217,-0.1279,-0.1415,-0.1781,-0.1988,-0.2228,-0.2596,-0.3311,-0.3949,-0.4536,-0.4765,-0.4901,-0.4963,-0.5461,-0.5749,-0.5776,-0.5977,-0.6071,-0.5986,-0.6076,-0.6147,-0.6198,-0.6584,-0.6847,-0.6982,-0.7257,-0.744,1.2668,1.2943,1.3083,1.3083,1.3124,1.3124,1.3,1.2594,1.2108,1.1738,1.0952,1.019,0.9832,0.9649,0.0,0.0,0.0,0.0,0.0,0.0,0.0,0.0,0.0,0.0,0.0,0.0,0.0,0.0,0.0,0.0,0.0,0.0,0.0,0.0,0.0,0.0,0.5517,0.5154,0.5018,0.5018,0.5018,0.5018,0.5018,0.5207,0.5207,0.5093,0.5243,0.5126,0.4776,0.4501,0.4073,0.353,0.302,0.2668,0.247,0.2353,0.2225,0.2134,0.1864,0.1644,0.1422,0.116,0.0888,0.0655,0.0469,0.0144,-0.0144,-0.025,-0.0498,-0.0747,-0.0925,-0.1081,-0.1208,-0.1193,-0.116,-0.1053,-0.0841,-0.0768,-0.0653,-0.0537,-0.0499,-0.0499,-0.0499,-0.0499,-0.0537,-0.0691,-0.0757,-0.0933,-0.1333,-0.147,-0.1705,-0.2221,-0.3029,-0.37,-0.4162,-0.4324,-0.448,-0.4658,-0.5151,-0.5486,-0.5592,-0.5871,-0.5978,-0.5932,-0.6009,-0.6059,-0.6059,-0.6436,-0.6652,-0.6739,-0.6982,-0.7171,1.1483,1.1665,1.1702,1.1702,1.1822,1.1862,1.1462,1.1714,1.1649,1.0511,0.9589,0.9009,0.8982,0.8788,0.0,0.8344,0.0,0.0,0.0,0.0,0.0,0.0,0.0,0.0,0.0,0.0,0.0,0.0,0.0,0.0,0.0,0.0,0.0,0.0,0.0,0.0,0.5514,0.5154,0.5018,0.5018,0.5018,0.5018,0.5018,0.5207,0.5321,0.5321,0.5321,0.5201,0.4963,0.4577,0.3878,0.31,0.2863,0.2666,0.251,0.251,0.2318,0.2083,0.2083,0.1788,0.1385,0.1385,0.1166,0.087,0.0671,0.0455,0.0209,-0.017,-0.0303,-0.0337,-0.0472,-0.0842,-0.1202,-0.1203,-0.1056,-0.0838,-0.0656,-0.0437,-0.0291,-0.0291,-0.0291,-0.0291,-0.0291,-0.0291,-0.0291,-0.0291,-0.0474,-0.0722,-0.1054,-0.1086,-0.1269,-0.1751,-0.2445,-0.2984,-0.3279,-0.3608,-0.39,-0.4187,-0.4519,-0.4963,-0.5567,-0.5736,-0.5932,-0.6178,-0.6205,-0.6205,-0.6205,-0.6332,-0.6408,-0.6408,-0.6598,-0.6701,1.0203,1.0478,1.0622,1.0939,1.106,1.0975,1.0531,1.0774,1.0701,0.9453,0.8975,0.8651,0.8219,0.819,0.0,0.0,0.0,0.0,0.0,0.0,0.0,0.0,0.0,0.0,0.0,0.0,0.0,0.0,0.0,0.0,0.0,0.0,0.0,0.0,0.0,0.0,0.5771,0.5539,0.5365,0.5207,0.5365,0.5365,0.5207,0.5401,0.5518,0.5518,0.567,0.5515,0.5157,0.4576,0.3935,0.328,0.2999,0.2646,0.235,0.235,0.2302,0.2215,0.2066,0.1849,0.1596,0.1454,0.1156,0.0827,0.0752,0.0546,0.0272,0.0169,-0.0067,-0.0303,-0.0337,-0.0546,-0.0728,-0.0777,-0.0744,-0.0641,-0.0436,-0.0437,-0.0474,-0.0328,-0.0364,-0.0437,-0.0437,-0.0437,-0.0437,-0.0437,-0.0502,-0.0562,-0.065,-0.1022,-0.1309,-0.1422,-0.1896,-0.2335,-0.2626,-0.2875,-0.3133,-0.3408,-0.3741,-0.4291,-0.5066,-0.5458,-0.5704,-0.5786,-0.5873,-0.5932,-0.5932,-0.6146,-0.6255,-0.6255,-0.6571,-0.6701,0.8876,0.9094,0.9262,0.9574,0.973,0.9686,0.933,0.9591,0.9666,0.8765,0.8513,0.8327,0.7876,0.7952,0.0,0.0,0.0,0.0,0.0,0.0,0.0,0.0,0.0,0.0,0.0,0.0,0.0,0.0,0.0,0.0,0.0,0.0,0.0,0.0,0.0,0.0,0.5902,0.5712,0.5521,0.544,0.5559,0.5595,0.5553,0.5673,0.5712,0.5709,0.573,0.5513,0.5046,0.4477,0.3911,0.3383,0.3041,0.2696,0.2405,0.2335,0.2284,0.2227,0.2119,0.194,0.1758,0.1552,0.1263,0.0977,0.0843,0.0674,0.0472,0.0337,0.0135,-0.0067,-0.0169,-0.0236,-0.0338,-0.0516,-0.0517,-0.0451,-0.0317,-0.0389,-0.046,-0.0389,-0.0495,-0.0637,-0.0637,-0.0637,-0.0601,-0.0495,-0.0558,-0.0618,-0.0608,-0.0933,-0.1146,-0.1081,-0.1388,-0.1704,-0.194,-0.2209,-0.249,-0.2854,-0.3158,-0.3627,-0.4267,-0.4846,-0.5234,-0.5403,-0.5485,-0.5599,-0.5709,-0.5873,-0.5982,-0.6041,-0.6305,-0.6436,0.7596,0.7685,0.7788,0.7987,0.8185,0.8291,0.8062,0.8289,0.8513,0.8327,0.814,0.7953,0.7761,0.7857,0.0,0.0,0.0,0.0,0.0,0.0,0.0,0.0,0.0,0.0,0.0,0.0,0.0,0.0,0.0,0.0,0.0,0.0,0.0,0.0,0.0,0.0,0.5941,0.575,0.5676,0.0,0.5676,0.5789,0.5941,0.5902,0.5896,0.5874,0.5635,0.5239,0.4809,0.4288,0.381,0.3376,0.304,0.2784,0.2567,0.239,0.2248,0.2201,0.2201,0.2062,0.1884,0.1681,0.148,0.1244,0.0909,0.0843,0.0775,0.0438,0.0337,0.0303,0.0101,0.0034,-0.0034,-0.0336,-0.0336,-0.027,-0.027,-0.0303,-0.0371,-0.0472,-0.0673,-0.0806,-0.0806,-0.0804,-0.0769,-0.0569,-0.0702,-0.0803,-0.0803,-0.0916,-0.0922,-0.074,-0.1019,-0.1222,-0.1294,-0.16,-0.1964,-0.241,-0.2685,-0.2991,-0.333,-0.4049,-0.4601,-0.4987,-0.5014,-0.5179,-0.5513,-0.5536,-0.5614,-0.5741,-0.5869,-0.5937,0.6565,0.6969,0.7395,0.7661,0.7809,0.785,0.748,0.745,0.7526,0.745,0.7411,0.7334,0.7138,0.0,0.0,0.0,0.0,0.0,0.0,0.0,0.0,0.0,0.0,0.0,0.0,0.0,0.0,0.0,0.0,0.0,0.0,0.0,0.0,0.0,0.0,0.6637,0.6219,0.618,0.6145,0.0,0.6296,0.6331,0.6219,0.598,0.5918,0.5962,0.5632,0.5334,0.5041,0.4278,0.3811,0.3591,0.3138,0.2771,0.2431,0.2399,0.2288,0.2207,0.2207,0.2064,0.1884,0.1681,0.148,0.1277,0.1076,0.1043,0.0975,0.0741,0.0707,0.0639,0.0438,0.0398,0.0359,0.0293,0.0099,-0.0067,-0.0067,-0.027,-0.0472,-0.0506,-0.0761,-0.0946,-0.0946,-0.0959,-0.0945,-0.0913,-0.085,-0.0787,-0.0724,-0.0783,-0.0832,-0.0866,-0.1065,-0.1222,-0.1294,-0.1515,-0.174,-0.1937,-0.2214,-0.2491,-0.283,-0.3549,-0.4045,-0.4242,-0.4349,-0.457,-0.4881,-0.5011,-0.5108,-0.5246,-0.5396,-0.5444,0.567,0.6101,0.6615,0.6932,0.7113,0.7151,0.6857,0.676,0.6721,0.649,0.6756,0.6984,0.6791,0.0,0.0,0.0,0.0,0.0,0.0,0.0,0.0,0.0,0.0,0.0,0.0,0.0,0.0,0.0,0.0,0.0,0.0,0.0,0.0,0.0,0.7061,0.6834,0.6451,0.6451,0.6451,0.6451,0.6563,0.6486,0.6298,0.6069,0.595,0.5986,0.5514,0.5233,0.5082,0.4227,0.3805,0.3698,0.3276,0.2958,0.2792,0.2725,0.2656,0.2555,0.2487,0.2386,0.2252,0.1985,0.1817,0.1681,0.1412,0.1344,0.1312,0.1111,0.1043,0.1005,0.0794,0.075,0.0739,0.0698,0.0448,0.0194,0.0194,0.0,-0.0194,-0.0259,-0.0479,-0.0696,-0.0759,-0.0843,-0.0927,-0.0988,-0.0927,-0.0896,-0.0834,-0.0945,-0.099,-0.1033,-0.125,-0.1373,-0.1293,-0.1543,-0.1713,-0.1797,-0.199,-0.2268,-0.2577,-0.2965,-0.3327,-0.3601,-0.3677,-0.3863,-0.4121,-0.4272,-0.4388,-0.4543,-0.4794,-0.4948,0.4893,0.5325,0.5813,0.6194,0.6397,0.6409,0.6224,0.6183,0.6064,0.5637,0.6135,0.6633,0.0,0.0,0.0,0.0,0.0,0.0,0.0,0.0,0.0,0.0,0.0,0.0,0.0,0.0,0.0,0.0,0.0,0.0,0.0,0.0,0.7407,0.7223,0.7184,0.7026,0.6637,0.6637,0.6676,0.6718,0.665,0.6487,0.6247,0.605,0.5915,0.5902,0.5332,0.508,0.498,0.4165,0.3825,0.3792,0.346,0.3326,0.3293,0.319,0.3123,0.3056,0.2887,0.282,0.2721,0.2388,0.2287,0.222,0.1817,0.1715,0.1715,0.1513,0.1474,0.1428,0.1231,0.115,0.1103,0.1047,0.0824,0.0579,0.0493,0.037,0.0247,0.0123,-0.0061,-0.0245,-0.0365,-0.0547,-0.0729,-0.0851,-0.0882,-0.0912,-0.0942,-0.107,-0.1169,-0.1199,-0.1455,-0.1543,-0.1403,-0.1629,-0.1797,-0.1797,-0.1933,-0.2122,-0.2389,-0.243,-0.261,-0.2978,-0.3074,-0.3211,-0.3396,-0.354,-0.3652,-0.3781,-0.4126,-0.4385,0.4282,0.4775,0.5392,0.586,0.5954,0.5876,0.5722,0.5676,0.5637,0.0,0.5556,0.0,0.0,0.0,0.0,0.0,0.0,0.0,0.0,0.0,0.0,0.0,0.0,0.0,0.0,0.0,0.0,0.0,0.0,0.0,0.0,0.7484,0.7407,0.7223,0.7184,0.7099,0.6865,0.6865,0.6945,0.7103,0.6768,0.6424,0.6135,0.5801,0.5647,0.5647,0.525,0.4993,0.4788,0.4203,0.3961,0.3961,0.3928,0.3825,0.3725,0.3825,0.3692,0.342,0.3387,0.3288,0.3092,0.2755,0.2619,0.2552,0.222,0.2188,0.2255,0.212,0.2116,0.2106,0.1903,0.1705,0.1516,0.151,0.1478,0.1328,0.0916,0.0679,0.0556,0.0525,0.0302,0.0118,0.0114,-0.0114,-0.0284,-0.0313,-0.0398,-0.054,-0.071,-0.0849,-0.1017,-0.1271,-0.1464,-0.1629,-0.1713,-0.1769,-0.1797,-0.1797,-0.1933,-0.1991,-0.1989,-0.2151,-0.2203,-0.2165,-0.2622,-0.2899,-0.2988,-0.3116,-0.3189,-0.3203,-0.3443,-0.3615,0.4038,0.437,0.4642,0.5192,0.5194,0.5077,0.5133,0.5102,0.5007,0.4838,0.0,0.0,0.0,0.0,0.0,0.0,0.0,0.0,0.0,0.0,0.0,0.0,0.0,0.0,0.0,0.0,0.0,0.0,0.0,0.0,0.7484,0.7484,0.7446,0.7369,0.7369,0.7253,0.7061,0.7061,0.7015,0.6848,0.6585,0.6269,0.599,0.5717,0.5555,0.5406,0.5182,0.5047,0.4924,0.4398,0.4231,0.4328,0.4197,0.4264,0.4361,0.4428,0.4425,0.4386,0.4189,0.4056,0.3925,0.3456,0.3322,0.3222,0.2788,0.269,0.269,0.252,0.2471,0.2442,0.2306,0.2068,0.1872,0.1838,0.1757,0.1669,0.1542,0.1374,0.1257,0.117,0.0926,0.0685,0.0619,0.0336,0.0112,0.0028,-0.014,-0.0308,-0.0421,-0.0645,-0.087,-0.1066,-0.1234,-0.1347,-0.1403,-0.1403,-0.1375,-0.1291,-0.1349,-0.1433,-0.1546,-0.1648,-0.1756,-0.1896,-0.2221,-0.2379,-0.2342,-0.2465,-0.2513,-0.2484,-0.2758,-0.2956,0.3751,0.3913,0.401,0.4585,0.455,0.4385,0.4557,0.0,0.4368,0.0,0.0,0.0,0.0,0.0,0.0,0.0,0.0,0.0,0.0,0.0,0.0,0.0,0.0,0.0,0.0,0.0,0.0,0.0,0.0,0.0,0.7561,0.7565,0.7561,0.7484,0.7561,0.7468,0.7194,0.7151,0.6948,0.6603,0.6408,0.6151,0.5855,0.5751,0.5562,0.5378,0.5169,0.512,0.5123,0.4631,0.4531,0.4661,0.4597,0.4731,0.4964,0.5063,0.516,0.5186,0.4891,0.4758,0.4625,0.4092,0.3928,0.3825,0.3357,0.3159,0.3086,0.293,0.2801,0.2693,0.2611,0.2381,0.2195,0.214,0.2046,0.1992,0.1987,0.1959,0.1874,0.1762,0.1512,0.1289,0.1205,0.0924,0.0644,0.0505,0.0252,0.0056,-0.0028,-0.0336,-0.0561,-0.0701,-0.0842,-0.0926,-0.0926,-0.0926,-0.0894,-0.0803,-0.081,-0.0872,-0.1064,-0.1125,-0.1266,-0.1493,-0.1727,-0.1857,-0.1859,-0.198,-0.1986,-0.1906,-0.2217,-0.244,0.3207,0.344,0.3593,0.4166,0.4143,0.3944,0.3948,0.0,0.3891,0.0,0.0,0.0,0.0,0.0,0.0,0.0,0.0,0.0,0.0,0.0,0.0,0.0,0.0,0.0,0.0,0.0,0.0,0.0,0.0,0.0,0.7791,0.7804,0.7684,0.7522,0.7684,0.7605,0.7203,0.707,0.6869,0.661,0.6445,0.6184,0.5817,0.5873,0.5767,0.5561,0.5256,0.5223,0.5362,0.493,0.4797,0.4831,0.5196,0.5362,0.5395,0.5723,0.5719,0.555,0.5425,0.5226,0.499,0.4431,0.4267,0.4197,0.3859,0.3627,0.3445,0.3383,0.3191,0.2942,0.2827,0.2621,0.2471,0.2465,0.2465,0.238,0.2071,0.2099,0.2183,0.2183,0.2043,0.1959,0.1931,0.1706,0.1483,0.1262,0.101,0.0729,0.0421,0.014,-0.0084,-0.0224,-0.0364,-0.0449,-0.0449,-0.0449,-0.047,-0.0508,-0.0533,-0.0491,-0.0456,-0.062,-0.072,-0.0669,-0.0992,-0.134,-0.1716,-0.1835,-0.1821,-0.1636,-0.1906,-0.2061,0.2345,0.2618,0.284,0.3393,0.333,0.3158,0.3352,0.3231,0.3075,0.0,0.0,0.0,0.0,0.0,0.0,0.0,0.0,0.0,0.0,0.0,0.0,0.0,0.0,0.0,0.0,0.0,0.0,0.0,0.0,0.0,0.7796,0.7808,0.7765,0.7684,0.7496,0.7311,0.7086,0.6845,0.6647,0.6468,0.6302,0.6082,0.5873,0.5881,0.5855,0.5785,0.5517,0.5451,0.5488,0.5156,0.506,0.5193,0.5193,0.5422,0.5723,0.5859,0.5987,0.6086,0.5822,0.5527,0.5216,0.4667,0.4385,0.4164,0.3848,0.369,0.359,0.3328,0.3153,0.2979,0.2834,0.2644,0.2493,0.2493,0.2577,0.2605,0.2465,0.2493,0.2521,0.2521,0.241,0.2324,0.2324,0.2071,0.182,0.1764,0.1512,0.126,0.1009,0.0814,0.0617,0.0393,0.0385,0.0325,0.0244,0.0292,0.0339,0.0386,0.0402,0.0416,0.0429,0.0289,0.0097,-0.0143,-0.0346,-0.0767,-0.1381,-0.1477,-0.1493,-0.1478,-0.1658,-0.1748,0.1614,0.1944,0.2223,0.271,0.2677,0.2567,0.2684,0.0,0.2367,0.0,0.0,0.0,0.0,0.0,0.0,0.0,0.0,0.0,0.0,0.0,0.0,0.0,0.0,0.0,0.0,0.0,0.0,0.0,0.0,0.0,0.7914,0.7887,0.7846,0.7706,0.7339,0.7118,0.7109,0.6802,0.6575,0.6489,0.6358,0.6232,0.6057,0.6057,0.6057,0.6057,0.5818,0.565,0.5583,0.5322,0.5292,0.5395,0.5289,0.5488,0.5822,0.5951,0.6086,0.6178,0.5923,0.5607,0.5255,0.4697,0.4374,0.4155,0.385,0.3727,0.363,0.3376,0.3196,0.3049,0.2876,0.2736,0.2661,0.2772,0.2828,0.2828,0.2828,0.2772,0.2691,0.2691,0.2635,0.2577,0.2577,0.238,0.2212,0.2183,0.2015,0.1792,0.1515,0.1403,0.1229,0.0939,0.0945,0.0927,0.0812,0.0869,0.0928,0.1039,0.1087,0.1112,0.1144,0.1003,0.0839,0.0606,0.0407,0.0024,-0.0559,-0.0898,-0.1119,-0.1231,-0.1321,-0.1433,0.0,0.0,0.0,0.2173,0.2232,0.0,0.1918,0.0,0.1831,0.0,0.0,0.0,0.0,0.0,0.0,0.0,0.0,0.0,0.0,0.0,0.0,0.0,0.0,0.0,0.0,0.0,0.0,0.0,0.0,0.8093,0.8093,0.8105,0.7929,0.7512,0.7182,0.7105,0.7291,0.6901,0.6708,0.6708,0.6708,0.6581,0.6387,0.6387,0.6387,0.6383,0.6053,0.5785,0.5583,0.5458,0.5395,0.5428,0.5554,0.5617,0.565,0.6046,0.605,0.5858,0.573,0.5473,0.5094,0.4581,0.4293,0.4144,0.3956,0.3806,0.3666,0.3524,0.3404,0.3234,0.2969,0.2916,0.3,0.3332,0.3272,0.313,0.313,0.2912,0.2719,0.2691,0.2691,0.2691,0.2691,0.2691,0.2663,0.2521,0.2493,0.2326,0.1881,0.1825,0.169,0.1337,0.1304,0.1284,0.1212,0.1257,0.1311,0.131,0.1451,0.1543,0.1615,0.15,0.1478,0.1614,0.1299,0.0985,0.0716,-0.0163,-0.0675,-0.0873,-0.0895,-0.1074,0.0356,0.0,0.0,0.0,0.0,0.0,0.0,0.0,0.0,0.0,0.0,0.0,0.0,0.0,0.0,0.0,0.0,0.0,0.0,0.0,0.0,0.0,0.0,0.0,0.0,0.0,0.0,0.0,0.7778,0.7952,0.8089,0.8084,0.7918,0.7502,0.7272,0.7112,0.7025,0.6907,0.6811,0.6708,0.6708,0.6581,0.6387,0.6387,0.635,0.6247,0.6148,0.602,0.5789,0.562,0.5554,0.5554,0.5583,0.5617,0.5617,0.5716,0.5777,0.5734,0.5534,0.5147,0.4654,0.4352,0.4042,0.3769,0.3709,0.3652,0.3592,0.347,0.3403,0.3311,0.3114,0.3221,0.3416,0.3527,0.3577,0.3602,0.3602,0.3383,0.3107,0.2775,0.2691,0.2691,0.2691,0.2691,0.2691,0.2663,0.2635,0.2523,0.213,0.2102,0.1965,0.1632,0.1536,0.149,0.1433,0.1485,0.1569,0.1666,0.187,0.2041,0.2103,0.2079,0.2012,0.1967,0.1724,0.1478,0.1208,0.0385,-0.0158,-0.0403,-0.0537,-0.0717,-0.0138,0.0207,0.0446,0.0,0.0,0.0,0.1212,0.1178,0.0,0.0,0.0,0.0,0.0,0.0,0.0,0.0,0.0,0.0,0.0,0.0,0.0,0.0,0.0,0.0,0.0,0.0,0.0,0.0,0.7693,0.7867,0.7964,0.7987,0.7785,0.7403,0.725,0.7135,0.7012,0.7012,0.6942,0.6778,0.6778,0.6646,0.6387,0.6387,0.635,0.628,0.6214,0.6148,0.6086,0.5818,0.5683,0.5617,0.5617,0.555,0.5514,0.5513,0.5496,0.5431,0.5267,0.4863,0.4358,0.4158,0.3894,0.3613,0.3613,0.3638,0.3663,0.3577,0.3577,0.3577,0.3549,0.3663,0.3805,0.4027,0.4079,0.4101,0.4101,0.3907,0.3574,0.3079,0.2912,0.2856,0.2856,0.283,0.2775,0.2775,0.2747,0.2607,0.2352,0.2268,0.2138,0.1857,0.1766,0.1699,0.1631,0.1705,0.1817,0.1951,0.2129,0.2328,0.2551,0.2551,0.2526,0.2477,0.2326,0.2061,0.1658,0.0985,0.0492,0.0179,-0.0157,-0.0336,-0.0573,-0.0236,0.0034,0.0,0.0,0.0,0.0708,0.0776,0.0842,0.0,0.0,0.0,0.0,0.0,0.0,0.0,0.0,0.0,0.0,0.0,0.0,0.0,0.0,0.0,0.0,0.0,0.7232,0.7461,0.7659,0.7789,0.7831,0.784,0.7652,0.73,0.7274,0.7248,0.7237,0.7237,0.7106,0.6913,0.6913,0.6716,0.6387,0.6396,0.6388,0.6355,0.6233,0.6233,0.6355,0.6059,0.5804,0.5617,0.5617,0.5521,0.5408,0.5385,0.5251,0.5067,0.4989,0.4619,0.4186,0.4064,0.3858,0.3638,0.3666,0.3774,0.3879,0.3907,0.3935,0.3962,0.4218,0.419,0.4242,0.466,0.4684,0.4629,0.4629,0.4457,0.4181,0.3688,0.3355,0.3186,0.3186,0.3051,0.2944,0.2944,0.283,0.2689,0.2549,0.2418,0.2258,0.2054,0.1977,0.1923,0.1867,0.1973,0.2109,0.2243,0.235,0.2549,0.2912,0.2957,0.2998,0.3034,0.2954,0.2623,0.2062,0.1569,0.1141,0.076,0.0336,0.0134,0.0,0.0,0.0,0.0,0.0,0.0,0.0539,0.0674,0.077,0.0,0.0,0.0,0.0,0.0,0.0,0.0,0.0,0.0,0.0,0.0,0.0,0.0,0.0,0.0,0.0,0.0,0.6937,0.7237,0.7592,0.7864,0.7966,0.7966,0.7913,0.7836,0.7679,0.7536,0.7461,0.7428,0.7265,0.6913,0.6913,0.6716,0.6383,0.6298,0.6229,0.6224,0.6051,0.6071,0.6229,0.6169,0.6028,0.5822,0.565,0.5521,0.5375,0.5221,0.506,0.4935,0.481,0.4527,0.4203,0.4175,0.4052,0.3941,0.4055,0.4218,0.4405,0.4622,0.4677,0.4704,0.4763,0.4822,0.4932,0.5144,0.5285,0.5371,0.5371,0.523,0.5034,0.4822,0.4156,0.3658,0.3658,0.3469,0.3304,0.3304,0.3132,0.2963,0.2852,0.2717,0.2545,0.2352,0.2214,0.2152,0.2199,0.2326,0.2462,0.2598,0.2862,0.3059,0.3129,0.3353,0.3423,0.3328,0.3046,0.2732,0.2395,0.1813,0.1411,0.1186,0.1097,0.0985,0.0,0.0,0.0,-0.027,0.0,0.0,0.0,0.0528,0.0654,0.0,0.0,0.0,0.0,0.0,0.0,0.0,0.0,0.0,0.0,0.0,0.0,0.0,0.0,0.0,0.0,0.0,0.6544,0.7171,0.7532,0.7793,0.785,0.795,0.8016,0.8016,0.7818,0.7661,0.7596,0.7426,0.7182,0.6801,0.6705,0.6472,0.6152,0.609,0.6049,0.6045,0.5959,0.5967,0.6049,0.5952,0.5849,0.5752,0.5756,0.5541,0.523,0.5049,0.4901,0.4782,0.4658,0.45,0.4356,0.4356,0.4356,0.4384,0.4519,0.4818,0.5199,0.5395,0.5449,0.5449,0.5449,0.5559,0.5696,0.5805,0.5968,0.6077,0.6,0.5914,0.5805,0.5668,0.5254,0.4787,0.4401,0.4132,0.3938,0.3938,0.3716,0.3519,0.3463,0.3284,0.3105,0.3021,0.2815,0.2718,0.2751,0.2882,0.3018,0.3148,0.3347,0.3502,0.3653,0.3766,0.3792,0.3663,0.3309,0.3043,0.2837,0.244,0.2083,0.1789,0.1701,0.1614,0.0,0.0,0.0,0.0,0.0,-0.0166,0.0,0.0,0.0,0.0,0.0,0.0,0.0,0.0,0.0,0.0,0.0,0.0,0.0,0.0,0.0,0.0,0.0,0.0,0.0,0.0,0.6248,0.7036,0.74,0.7666,0.7764,0.7922,0.8014,0.8047,0.7857,0.7712,0.7636,0.7338,0.7015,0.6626,0.6476,0.6224,0.5888,0.5852,0.5835,0.5831,0.5829,0.5862,0.5865,0.5737,0.5693,0.5692,0.5786,0.5553,0.5133,0.4989,0.4885,0.4753,0.4626,0.4601,0.4629,0.4656,0.4794,0.5014,0.5226,0.5637,0.6073,0.6213,0.6241,0.6245,0.6218,0.6295,0.6404,0.6571,0.6674,0.6701,0.6625,0.6598,0.6517,0.6376,0.6241,0.5946,0.523,0.4901,0.4712,0.4712,0.4436,0.4242,0.4242,0.404,0.3889,0.3838,0.3605,0.3462,0.348,0.3568,0.37,0.3847,0.3939,0.4071,0.4286,0.4286,0.4202,0.4034,0.3726,0.3483,0.3303,0.3132,0.2818,0.237,0.2219,0.2129,0.0,0.0,0.0,0.0,-0.0165,0.0,0.0,0.0,0.0492,0.0447,0.0,0.0,0.0,0.0,0.0,0.0,0.0,0.0,0.0,0.0,0.0,0.0,0.0,0.0,0.0,0.0,0.0,0.6728,0.7073,0.7466,0.7954,0.7987,0.8047,0.8172,0.8047,0.7795,0.7433,0.7293,0.6945,0.6436,0.6414,0.6224,0.588,0.5718,0.5644,0.5632,0.5647,0.5696,0.5822,0.5992,0.6057,0.6001,0.5624,0.5418,0.5347,0.5152,0.5078,0.5042,0.4901,0.4928,0.5042,0.5171,0.5582,0.61,0.6529,0.6804,0.6972,0.7128,0.7155,0.7128,0.7004,0.6977,0.7058,0.73,0.7306,0.7257,0.7359,0.7279,0.7122,0.6879,0.6798,0.6603,0.5973,0.5645,0.5481,0.5481,0.5285,0.514,0.514,0.5078,0.4923,0.4696,0.4526,0.4434,0.4434,0.4465,0.4574,0.4831,0.4901,0.4944,0.4988,0.4923,0.4787,0.453,0.4316,0.4008,0.3631,0.3612,0.3281,0.2662,0.2642,0.2551,0.0,0.0,0.0,0.0,0.0,0.0,0.0,0.0,0.0328,0.0,0.0,0.0,0.0,0.0,0.0,0.0,0.0,0.0,0.0,0.0,0.0,0.0,0.0,0.0,0.0,0.0,0.0,0.0,0.0,0.7064,0.7399,0.7758,0.7978,0.8074,0.7925,0.7686,0.7399,0.6917,0.652,0.6229,0.6028,0.5804,0.5547,0.5579,0.5598,0.5593,0.5688,0.5756,0.5802,0.5886,0.593,0.5918,0.5718,0.5582,0.5512,0.5409,0.5315,0.5218,0.514,0.5281,0.5586,0.5991,0.6399,0.6783,0.7133,0.7408,0.7574,0.7622,0.7729,0.7783,0.761,0.7649,0.7762,0.7869,0.7922,0.7922,0.7922,0.7768,0.7607,0.7408,0.7306,0.7171,0.6923,0.6408,0.6055,0.6055,0.5937,0.5823,0.5823,0.5739,0.5616,0.5505,0.5284,0.5125,0.5128,0.512,0.5161,0.5291,0.5388,0.5453,0.5453,0.5431,0.5323,0.5118,0.4884,0.4661,0.4465,0.4228,0.3943,0.3612,0.3262,0.3084,-0.0067,0.0,0.0,0.0,0.0,0.0,0.0,0.0,0.0,0.0,0.0,0.0,0.0,0.0,0.0,0.0,0.0,0.0,0.0,0.0,0.0,0.0,0.0,0.0,0.0,0.0,0.0,0.0,0.591,0.0,0.6776,0.7338,0.7729,0.7859,0.7708,0.7535,0.7311,0.6685,0.625,0.6021,0.5797,0.5595,0.538,0.5567,0.565,0.565,0.5845,0.5905,0.5905,0.6009,0.6037,0.6037,0.6037,0.5981,0.5875,0.5762,0.5645,0.5555,0.5555,0.58,0.6186,0.6729,0.7085,0.7327,0.7601,0.7815,0.7981,0.8035,0.8135,0.8215,0.8064,0.8156,0.8275,0.8295,0.8348,0.8368,0.8268,0.8115,0.7922,0.7723,0.7622,0.7542,0.7494,0.7036,0.6657,0.6657,0.6544,0.6453,0.6453,0.6352,0.6264,0.6205,0.6031,0.5898,0.5859,0.5828,0.5777,0.5761,0.5825,0.5895,0.5895,0.5852,0.5782,0.5647,0.5404,0.5226,0.5079,0.4779,0.4583,0.4473,0.3836,0.3505,0.0,0.0,0.0,0.0743,0.0,0.0,0.0,0.0,0.073,0.0,0.0,0.0,0.0,0.0,0.1797,0.1797,0.0,0.0,0.0,0.0,0.0,0.0,0.0,0.0,0.0,0.0,0.0,0.4567,0.5063,0.0,0.619,0.6732,0.7185,0.7507,0.7435,0.7301,0.7101,0.6697,0.6262,0.5804,0.5927,0.5841,0.5595,0.5736,0.5795,0.5795,0.6069,0.6178,0.62,0.6544,0.6674,0.6674,0.6674,0.668,0.6608,0.6146,0.6059,0.6182,0.6182,0.6485,0.6928,0.7333,0.7568,0.775,0.8082,0.8195,0.8221,0.8342,0.8395,0.8395,0.8395,0.8395,0.8421,0.8547,0.8501,0.8395,0.8395,0.8295,0.8082,0.775,0.7696,0.7643,0.7521,0.7365,0.7263,0.7263,0.7144,0.7085,0.7085,0.7074,0.6961,0.671,0.6846,0.6887,0.6767,0.6632,0.6516,0.6386,0.6373,0.6373,0.6373,0.6255,0.612,0.5976,0.5841,0.562,0.5285,0.5285,0.5181,0.4968,0.4236,0.3814,0.0,0.0,0.1539,0.1415,0.0,0.0,0.0,0.0,0.0,0.0,0.0,0.0,0.0,0.0,0.1933,0.1933,0.2071,0.2128,0.0,0.0,0.0,0.0,0.0,0.0,0.0,0.0,0.0,0.3433,0.4069,0.4685,0.0,0.6048,0.6612,0.6961,0.7154,0.7147,0.6911,0.6556,0.6234,0.5923,0.59,0.5818,0.5736,0.5868,0.5923,0.595,0.6119,0.6255,0.6332,0.6463,0.6571,0.6701,0.6701,0.6761,0.6793,0.6544,0.6485,0.6539,0.6625,0.6874,0.7203,0.7413,0.7595,0.7723,0.7836,0.7863,0.7889,0.8029,0.8162,0.8295,0.8368,0.8395,0.8421,0.8448,0.8501,0.8521,0.8521,0.8501,0.8441,0.8309,0.8309,0.8256,0.8129,0.8055,0.7869,0.7365,0.7257,0.7198,0.7112,0.7112,0.7111,0.7089,0.7065,0.7129,0.7262,0.7266,0.724,0.7199,0.7193,0.7193,0.7193,0.6943,0.6754,0.6665,0.6365,0.6142,0.6018,0.5706,0.5641,0.5786,0.5314,0.4884,0.2421,0.2405,0.0,0.2109,0.1928,0.0,0.1752,0.0,0.0,0.0,0.0,0.0,0.0,0.0,0.2212,0.2099,0.2043,0.1903,0.0,0.1431,0.0,0.0,0.0,0.0,0.0,0.0,0.2354,0.2571,0.3211,0.3831,0.0,0.0,0.5835,0.6167,0.648,0.6599,0.6472,0.6248,0.6081,0.6,0.6005,0.6009,0.6009,0.6168,0.6218,0.6164,0.6305,0.644,0.6517,0.6544,0.668,0.6837,0.6837,0.6896,0.6955,0.6815,0.6815,0.6864,0.6982,0.7176,0.7392,0.7521,0.7622,0.7696,0.7696,0.767,0.7676,0.7848,0.7981,0.8135,0.8342,0.8395,0.8421,0.8448,0.8547,0.86,0.8659,0.8659,0.8659,0.8659,0.8712,0.8712,0.8633,0.8659,0.8448,0.7741,0.7526,0.7413,0.7327,0.7273,0.7306,0.744,0.7404,0.7473,0.7728,0.7832,0.7837,0.7739,0.7732,0.7732,0.7732,0.748,0.7269,0.7115,0.679,0.6591,0.6549,0.6095,0.6051,0.6393,0.6005,0.5736]}]]